[[{"header":{"parameterUnit":"m.s-1","parameterCategory":1,"la1":30.6,"la2":29.2853,"lo1":-89.7004,"lo2":-87.6739,"dy":0.0162,"dx":0.0183,"nx":112,"ny":82,"refTime":"2023-05-17T00:00:00:Z","depth":0,"parameterNumber":2,"parameterNumberName":"U-component_of_WINDS"},"data":[0.0,0.0,0.0,0.0,0.0,0.0,0.0,0.0,0.0,0.0,0.0,0.0,0.0,0.0,0.0,0.0,0.0,0.0,0.0,0.0,0.0,0.0,0.0,0.0,0.0,0.0,0.0,0.0,0.0,0.0,0.0,0.0,0.0,0.0,0.0,0.0,0.0,0.0,0.0,0.0,0.0,0.0,0.0,0.0,0.0,0.0,0.0,0.0,0.0,0.0,0.0,0.0,0.0,0.0,0.0,0.0,0.0,0.0,0.0,0.0,0.0,0.0,0.0,0.0,0.0,0.0,0.0,0.0,0.0,0.0,0.0,0.0,0.0,0.0,0.0,0.0,0.0,0.0,0.0,0.0,0.0,0.0,0.0,0.0,0.0,0.0,0.0,0.0,0.0,0.0,-2.1053,-1.8189,-1.7501,-1.7219,-1.7166,-1.4413,-1.3241,-1.457,0.0,0.0,0.0,0.0,0.0,0.0,0.0,0.0,0.0,0.0,0.0,0.0,0.0,0.0,0.0,0.0,0.0,0.0,0.0,0.0,0.0,0.0,0.0,0.0,0.0,0.0,0.0,0.0,0.0,0.0,0.0,0.0,0.0,0.0,0.0,0.0,0.0,0.0,0.0,0.0,0.0,0.0,0.0,0.0,0.0,0.0,0.0,0.0,0.0,0.0,0.0,0.0,0.0,0.0,0.0,0.0,0.0,0.0,0.0,0.0,0.0,0.0,0.0,0.0,0.0,0.0,0.0,0.0,0.0,0.0,0.0,0.0,0.0,0.0,0.0,0.0,0.0,0.0,0.0,0.0,0.0,0.0,0.0,0.0,0.0,0.0,0.0,0.0,0.0,0.0,0.0,0.0,0.0,0.0,0.0,0.0,0.0,0.0,0.0,0.0,0.0,0.0,0.0,0.0,-2.3422,-2.2806,-1.9565,-1.6651,-1.4572,-1.363,-1.3997,-1.6042,0.0,0.0,0.0,0.0,0.0,0.0,0.0,0.0,0.0,0.0,0.0,0.0,0.0,0.0,0.0,0.0,0.0,0.0,0.0,0.0,0.0,0.0,0.0,0.0,0.0,0.0,0.0,0.0,0.0,0.0,0.0,0.0,0.0,0.0,0.0,0.0,0.0,0.0,0.0,0.0,0.0,0.0,0.0,0.0,0.0,0.0,0.0,0.0,0.0,0.0,0.0,0.0,0.0,0.0,0.0,0.0,0.0,0.0,0.0,0.0,0.0,0.0,0.0,0.0,0.0,0.0,0.0,0.0,0.0,0.0,0.0,0.0,0.0,0.0,0.0,0.0,0.0,0.0,0.0,0.0,0.0,0.0,0.0,0.0,0.0,0.0,0.0,0.0,0.0,0.0,0.0,0.0,0.0,0.0,0.0,0.0,0.0,0.0,0.0,0.0,0.0,0.0,0.0,-2.1221,-2.0972,-2.3143,-1.8545,-1.4839,-1.375,-1.3484,-1.453,-1.7348,-1.7164,0.0,0.0,0.0,0.0,0.0,0.0,0.0,0.0,0.0,0.0,0.0,0.0,0.0,0.0,0.0,0.0,0.0,0.0,0.0,0.0,0.0,0.0,0.0,0.0,0.0,0.0,0.0,0.0,0.0,0.0,0.0,0.0,0.0,0.0,0.0,0.0,0.0,0.0,0.0,0.0,0.0,0.0,0.0,0.0,0.0,0.0,0.0,0.0,0.0,0.0,0.0,0.0,0.0,0.0,0.0,0.0,0.0,0.0,0.0,0.0,0.0,0.0,0.0,0.0,0.0,0.0,0.0,0.0,0.0,0.0,0.0,0.0,0.0,0.0,0.0,0.0,0.0,0.0,0.0,0.0,0.0,0.0,0.0,0.0,0.0,0.0,0.0,0.0,0.0,0.0,0.0,0.0,0.0,0.0,0.0,0.0,0.0,0.0,0.0,0.0,0.0,0.0,-2.187,-1.9748,-2.2937,-1.7474,-1.3615,-1.3783,-1.371,-1.4927,-1.7939,-1.8263,0.0,0.0,0.0,0.0,0.0,0.0,0.0,0.0,0.0,0.0,0.0,0.0,0.0,0.0,0.0,0.0,0.0,0.0,0.0,0.0,0.0,0.0,0.0,0.0,0.0,0.0,0.0,0.0,0.0,0.0,0.0,0.0,0.0,0.0,0.0,0.0,0.0,0.0,0.0,0.0,0.0,0.0,0.0,0.0,0.0,0.0,0.0,0.0,0.0,0.0,0.0,0.0,0.0,0.0,0.0,0.0,0.0,0.0,0.0,0.0,0.0,0.0,0.0,0.0,0.0,0.0,0.0,0.0,0.0,0.0,0.0,0.0,0.0,0.0,0.0,0.0,0.0,0.0,0.0,0.0,0.0,0.0,0.0,0.0,0.0,0.0,0.0,0.0,0.0,0.0,0.0,0.0,0.0,0.0,0.0,0.0,0.0,0.0,0.0,0.0,0.0,0.0,-2.5171,-2.3536,-2.4065,-1.7906,-1.3977,-1.4497,-1.4209,-1.5023,-1.7244,-1.7506,0.0,0.0,0.0,0.0,0.0,0.0,0.0,0.0,0.0,0.0,0.0,0.0,0.0,0.0,0.0,0.0,0.0,0.0,0.0,0.0,0.0,0.0,0.0,0.0,0.0,0.0,0.0,0.0,0.0,0.0,0.0,0.0,0.0,0.0,0.0,0.0,0.0,0.0,0.0,0.0,0.0,0.0,0.0,0.0,0.0,0.0,0.0,0.0,0.0,0.0,0.0,0.0,0.0,0.0,0.0,0.0,0.0,0.0,0.0,0.0,0.0,0.0,0.0,0.0,0.0,0.0,0.0,0.0,0.0,0.0,0.0,0.0,0.0,0.0,0.0,0.0,0.0,0.0,0.0,0.0,0.0,0.0,0.0,0.0,0.0,0.0,0.0,0.0,0.0,0.0,0.0,0.0,0.0,0.0,0.0,0.0,0.0,0.0,0.0,0.0,0.0,0.0,-2.7128,-2.5476,-2.432,-1.9991,-1.6487,-1.4719,-1.4274,-1.539,-1.8497,0.0,0.0,0.0,0.0,0.0,0.0,0.0,0.0,0.0,0.0,0.0,0.0,0.0,0.0,0.0,0.0,0.0,0.0,0.0,0.0,0.0,0.0,0.0,0.0,0.0,0.0,0.0,0.0,0.0,0.0,0.0,0.0,0.0,0.0,0.0,0.0,0.0,0.0,0.0,0.0,0.0,0.0,0.0,0.0,0.0,0.0,0.0,0.0,0.0,0.0,0.0,0.0,0.0,0.0,0.0,0.0,0.0,0.0,0.0,0.0,0.0,0.0,0.0,0.0,0.0,0.0,0.0,0.0,0.0,0.0,0.0,0.0,0.0,0.0,0.0,0.0,0.0,0.0,0.0,0.0,0.0,0.0,0.0,0.0,0.0,0.0,0.0,0.0,0.0,0.0,0.0,0.0,0.0,0.0,0.0,0.0,0.0,0.0,0.0,0.0,0.0,0.0,-2.9418,-2.8608,-2.734,-2.5715,-2.194,-1.8695,-1.6412,-1.5292,-1.5924,-1.8951,0.0,0.0,0.0,0.0,0.0,0.0,0.0,0.0,0.0,0.0,0.0,0.0,0.0,0.0,0.0,0.0,0.0,0.0,0.0,0.0,0.0,0.0,0.0,0.0,0.0,0.0,0.0,0.0,0.0,0.0,0.0,0.0,0.0,0.0,0.0,0.0,0.0,0.0,0.0,0.0,0.0,0.0,0.0,0.0,0.0,0.0,0.0,0.0,0.0,0.0,0.0,0.0,0.0,0.0,0.0,0.0,0.0,0.0,0.0,0.0,0.0,0.0,0.0,0.0,0.0,0.0,0.0,0.0,0.0,0.0,0.0,0.0,0.0,0.0,0.0,0.0,0.0,0.0,0.0,0.0,0.0,0.0,0.0,0.0,0.0,0.0,0.0,0.0,0.0,0.0,0.0,0.0,0.0,0.0,0.0,0.0,0.0,0.0,0.0,0.0,0.0,0.0,-2.9732,-2.9677,-2.9335,-2.8497,-2.3664,-2.0309,-1.9813,-1.7347,-1.6546,0.0,0.0,0.0,0.0,0.0,0.0,0.0,0.0,0.0,0.0,0.0,0.0,0.0,0.0,0.0,0.0,0.0,0.0,0.0,0.0,0.0,0.0,0.0,0.0,0.0,0.0,0.0,0.0,0.0,0.0,0.0,0.0,0.0,0.0,0.0,0.0,0.0,0.0,0.0,0.0,0.0,0.0,0.0,0.0,0.0,0.0,0.0,0.0,0.0,0.0,0.0,0.0,0.0,0.0,0.0,0.0,0.0,0.0,0.0,0.0,0.0,0.0,0.0,0.0,0.0,0.0,0.0,0.0,0.0,0.0,0.0,0.0,0.0,0.0,0.0,0.0,0.0,0.0,0.0,0.0,0.0,0.0,0.0,0.0,0.0,0.0,0.0,0.0,0.0,0.0,0.0,0.0,0.0,0.0,0.0,0.0,0.0,0.0,0.0,0.0,0.0,0.0,0.0,-2.9973,-3.1287,-3.1405,-2.9332,-2.723,-2.439,-2.0472,-1.9258,-1.8923,-1.944,0.0,0.0,0.0,0.0,0.0,0.0,0.0,0.0,0.0,0.0,0.0,0.0,0.0,0.0,0.0,0.0,0.0,0.0,0.0,0.0,0.0,0.0,0.0,0.0,0.0,0.0,0.0,0.0,0.0,0.0,0.0,0.0,0.0,0.0,0.0,0.0,0.0,0.0,0.0,0.0,0.0,0.0,0.0,0.0,0.0,0.0,0.0,0.0,0.0,0.0,0.0,0.0,0.0,0.0,0.0,0.0,0.0,0.0,0.0,0.0,0.0,0.0,0.0,0.0,0.0,0.0,0.0,0.0,0.0,0.0,0.0,0.0,0.0,0.0,0.0,0.0,0.0,0.0,0.0,0.0,0.0,0.0,0.0,0.0,0.0,0.0,0.0,0.0,0.0,0.0,0.0,0.0,0.0,0.0,0.0,0.0,0.0,0.0,0.0,0.0,0.0,0.0,-3.0153,-3.2144,-3.2958,-3.1402,-2.9906,-2.7244,-2.2883,-2.1374,-2.0396,-1.9723,0.0,0.0,0.0,0.0,0.0,0.0,0.0,0.0,0.0,0.0,0.0,0.0,0.0,0.0,0.0,0.0,0.0,0.0,0.0,0.0,0.0,0.0,0.0,0.0,0.0,0.0,0.0,0.0,0.0,0.0,0.0,0.0,0.0,0.0,0.0,0.0,0.0,0.0,0.0,0.0,0.0,0.0,0.0,0.0,0.0,0.0,0.0,0.0,0.0,0.0,0.0,0.0,0.0,0.0,0.0,0.0,0.0,0.0,0.0,0.0,0.0,0.0,0.0,0.0,0.0,0.0,0.0,0.0,0.0,0.0,0.0,0.0,0.0,0.0,0.0,0.0,0.0,0.0,0.0,0.0,0.0,0.0,0.0,0.0,0.0,0.0,0.0,0.0,0.0,0.0,0.0,0.0,0.0,0.0,0.0,0.0,0.0,0.0,0.0,0.0,0.0,0.0,-3.0297,-3.2402,-3.3921,-3.3972,-3.1872,-2.9313,-2.648,-2.3752,-2.1505,-1.9899,0.0,0.0,0.0,0.0,0.0,0.0,0.0,0.0,0.0,0.0,0.0,0.0,0.0,0.0,0.0,0.0,0.0,0.0,0.0,0.0,0.0,0.0,0.0,0.0,0.0,0.0,0.0,0.0,0.0,0.0,0.0,0.0,0.0,0.0,0.0,0.0,0.0,0.0,0.0,0.0,0.0,0.0,0.0,0.0,0.0,0.0,0.0,0.0,0.0,0.0,0.0,0.0,0.0,0.0,0.0,0.0,0.0,0.0,0.0,0.0,-3.3037,-3.1392,0.0,0.0,0.0,0.0,0.0,0.0,0.0,0.0,0.0,0.0,0.0,0.0,0.0,0.0,0.0,0.0,0.0,0.0,0.0,0.0,0.0,0.0,0.0,0.0,0.0,0.0,0.0,0.0,0.0,0.0,0.0,0.0,0.0,0.0,0.0,0.0,0.0,0.0,0.0,0.0,-3.0302,-3.2365,-3.3839,-3.3921,-3.3508,-3.2218,-2.9648,-2.6729,-2.4408,-2.2965,-2.2394,0.0,0.0,0.0,0.0,0.0,0.0,0.0,0.0,0.0,0.0,0.0,0.0,0.0,0.0,0.0,0.0,0.0,0.0,0.0,0.0,0.0,0.0,0.0,0.0,0.0,0.0,0.0,0.0,0.0,0.0,0.0,0.0,0.0,0.0,0.0,0.0,0.0,0.0,0.0,0.0,0.0,0.0,0.0,0.0,0.0,0.0,0.0,0.0,0.0,0.0,0.0,0.0,0.0,0.0,0.0,0.0,0.0,0.0,0.0,-3.4284,-3.3209,0.0,0.0,0.0,0.0,0.0,0.0,0.0,0.0,0.0,0.0,0.0,0.0,0.0,0.0,0.0,0.0,0.0,0.0,0.0,0.0,0.0,0.0,0.0,0.0,0.0,0.0,0.0,0.0,0.0,0.0,0.0,0.0,0.0,0.0,0.0,0.0,0.0,0.0,0.0,0.0,-3.0297,-3.2402,-3.3935,-3.4049,-3.4221,-3.3263,-3.0625,-2.9054,-2.7368,-2.5368,-2.5276,0.0,0.0,0.0,0.0,0.0,0.0,0.0,0.0,0.0,0.0,0.0,0.0,0.0,0.0,0.0,0.0,0.0,0.0,0.0,0.0,0.0,0.0,0.0,0.0,0.0,0.0,0.0,0.0,0.0,0.0,0.0,0.0,0.0,0.0,0.0,0.0,0.0,0.0,0.0,0.0,0.0,0.0,0.0,0.0,0.0,0.0,0.0,0.0,0.0,0.0,0.0,0.0,0.0,-3.526,-3.5349,-3.5474,-3.6412,-3.6488,-3.5945,-3.522,-3.5027,-3.5094,-3.4012,0.0,0.0,0.0,0.0,0.0,0.0,0.0,0.0,0.0,0.0,0.0,0.0,0.0,0.0,0.0,0.0,0.0,0.0,0.0,0.0,0.0,0.0,-3.3685,-3.3455,-3.4623,-3.5238,-3.3169,0.0,0.0,0.0,0.0,0.0,0.0,0.0,0.0,0.0,0.0,0.0,-3.0599,-3.2629,-3.4099,-3.4173,-3.445,-3.3675,-3.1354,-3.0889,-2.9825,-2.7689,-2.8171,-2.8456,0.0,0.0,0.0,0.0,0.0,0.0,0.0,0.0,0.0,0.0,0.0,0.0,0.0,0.0,0.0,0.0,0.0,0.0,0.0,0.0,0.0,0.0,0.0,0.0,0.0,0.0,0.0,0.0,0.0,0.0,0.0,0.0,-3.1438,-3.1493,0.0,0.0,0.0,0.0,0.0,0.0,0.0,0.0,0.0,0.0,0.0,0.0,0.0,-3.4889,-3.4995,-3.5969,-3.6343,-3.6132,-3.7111,-3.7469,-3.7255,-3.7234,-3.7175,-3.7061,-3.6955,0.0,-3.518,-3.5013,0.0,0.0,0.0,0.0,0.0,0.0,0.0,0.0,0.0,0.0,0.0,0.0,0.0,0.0,0.0,0.0,0.0,0.0,0.0,0.0,0.0,0.0,-3.5742,-3.6408,-3.6756,-3.6882,-3.6916,-3.4001,-3.1285,-3.0976,-2.9945,-2.8732,0.0,0.0,0.0,0.0,0.0,0.0,-3.1711,-3.3261,-3.4221,-3.4124,-3.4473,-3.4565,-3.4247,-3.2104,-3.0739,-3.0641,-3.0659,-3.0263,-2.934,-3.1996,0.0,0.0,0.0,0.0,0.0,0.0,0.0,0.0,0.0,0.0,0.0,0.0,0.0,0.0,0.0,0.0,0.0,0.0,0.0,0.0,0.0,0.0,0.0,0.0,0.0,0.0,0.0,0.0,0.0,-3.0162,-3.0767,-3.0681,-3.097,-3.0802,0.0,0.0,0.0,0.0,0.0,0.0,0.0,0.0,0.0,-3.5243,-3.5545,-3.5954,-3.6452,-3.697,-3.7149,-3.7041,-3.756,-3.7721,-3.7594,-3.7521,-3.741,-3.7297,-3.7297,-3.6911,-3.6207,-3.5871,-3.5507,-3.5174,0.0,0.0,0.0,0.0,-3.4335,-3.4276,-3.4026,-3.3915,-3.3823,-3.3481,0.0,0.0,0.0,0.0,0.0,0.0,0.0,-3.3332,-3.4456,-3.525,-3.5983,-3.7064,-3.7431,-3.7452,-3.7131,-3.5297,-3.3441,-3.2645,-3.1093,-2.9535,-2.8353,-2.863,0.0,0.0,0.0,-3.1502,-3.1978,-3.3264,-3.4148,-3.4148,-3.445,-3.4691,-3.4794,-3.3901,-3.3409,-3.3601,-3.3556,-3.3316,-3.2836,-3.3544,-3.377,0.0,0.0,0.0,0.0,0.0,0.0,0.0,0.0,0.0,0.0,0.0,0.0,0.0,0.0,0.0,0.0,0.0,0.0,0.0,0.0,0.0,0.0,0.0,0.0,0.0,0.0,0.0,0.0,-3.0422,-3.1046,-3.1254,-3.1961,-3.2058,0.0,0.0,0.0,0.0,0.0,0.0,-3.4618,-3.54,-3.6131,-3.6684,-3.6648,-3.6933,-3.7577,-3.7577,-3.7577,-3.7577,-3.7577,-3.7577,-3.7503,-3.7594,-3.7484,-3.7297,-3.7334,-3.7259,-3.7013,-3.6491,-3.613,-3.5924,-3.5308,-3.5042,-3.4987,-3.4866,-3.4844,-3.4874,-3.5143,-3.5223,-3.5156,-3.5113,-3.4925,-3.4627,-3.4116,0.0,0.0,0.0,0.0,-3.4157,-3.5394,-3.5806,-3.6218,-3.7325,-3.7757,-3.7683,-3.6823,-3.5862,-3.4869,-3.3811,-3.2144,-3.061,-2.9496,-2.985,0.0,-2.9695,-3.1049,-3.2218,-3.2465,-3.3393,-3.4074,-3.4221,-3.4473,-3.467,-3.4774,-3.51,-3.5369,-3.5477,-3.548,-3.5487,-3.548,-3.5022,-3.4943,-3.5338,0.0,0.0,0.0,0.0,0.0,0.0,0.0,0.0,0.0,0.0,0.0,0.0,0.0,0.0,0.0,0.0,0.0,0.0,0.0,0.0,0.0,0.0,0.0,0.0,0.0,0.0,0.0,0.0,0.0,-3.5126,-3.4789,0.0,0.0,0.0,0.0,-3.399,-3.5851,-3.6803,-3.6309,-3.7537,-3.8023,-3.7559,-3.7523,-3.7541,-3.7577,-3.7577,-3.7577,-3.7577,-3.7577,-3.7521,-3.7334,-3.7503,-3.7484,-3.7297,-3.7521,-3.7484,-3.7259,-3.6851,-3.6917,-3.7285,-3.697,-3.7143,-3.7453,-3.6953,-3.6755,-3.6676,-3.6147,-3.5968,-3.5924,-3.581,-3.529,-3.4669,-3.4635,-3.4193,0.0,0.0,-3.4635,-3.4985,-3.6457,-3.6847,-3.7058,-3.7933,-3.8088,-3.7751,-3.6874,-3.5616,-3.4517,-3.4122,-3.3369,-3.2385,-3.1196,0.0,-3.112,-3.1351,-3.1523,-3.2184,-3.371,-3.4012,-3.4148,-3.4269,-3.4539,-3.4689,-3.4694,-3.5136,-3.5405,-3.5399,-3.558,-3.5686,-3.5679,-3.6423,-3.6411,-3.5506,-3.6196,0.0,0.0,0.0,0.0,0.0,0.0,0.0,0.0,0.0,0.0,0.0,0.0,0.0,0.0,0.0,0.0,0.0,0.0,0.0,0.0,0.0,0.0,0.0,0.0,0.0,0.0,0.0,0.0,-3.2951,-3.4321,0.0,-3.42,-3.4994,-3.5578,-3.5578,-3.6784,-3.7446,-3.7256,-3.77,-3.7844,-3.7667,-3.7613,-3.7577,-3.7577,-3.7577,-3.7577,-3.7577,-3.7484,-3.7372,-3.7297,-3.7259,-3.7164,-3.7105,-3.7164,-3.7164,-3.7105,-3.6806,-3.6806,-3.693,-3.6851,-3.6799,-3.6803,-3.6597,-3.6533,-3.6492,-3.6259,-3.6105,-3.5975,-3.5756,-3.5497,-3.5294,-3.5294,-3.5135,-3.4965,-3.5209,-3.5294,-3.5547,-3.6631,-3.69,-3.7094,-3.7985,-3.8174,-3.7727,-3.6242,-3.5518,-3.4827,-3.3562,-3.2816,-3.2263,-3.1949,-3.2178,-3.2447,-3.2393,-3.2755,-3.3268,-3.3968,-3.4099,-3.4197,-3.4473,-3.458,-3.4689,-3.4831,-3.5047,-3.5243,-3.5258,-3.5466,-3.5605,-3.5705,-3.6534,-3.7128,-3.7357,-3.8121,-3.7574,0.0,0.0,0.0,0.0,0.0,0.0,0.0,0.0,0.0,0.0,0.0,0.0,0.0,0.0,0.0,0.0,0.0,0.0,0.0,0.0,0.0,0.0,0.0,0.0,0.0,-3.2009,-3.3192,-3.2861,-3.4601,-3.557,-3.4888,-3.6025,-3.6792,-3.6792,-3.7381,-3.7703,-3.7685,-3.7667,-3.7703,-3.7685,-3.7613,-3.7577,-3.7577,-3.7577,-3.7558,-3.7521,-3.7372,-3.722,-3.7122,-3.7027,-3.6948,-3.6908,-3.6987,-3.6948,-3.6869,-3.6766,-3.6643,-3.6561,-3.6561,-3.6461,-3.6301,-3.6301,-3.6301,-3.6276,-3.6216,-3.6105,-3.5888,-3.5728,-3.5622,-3.5622,-3.5622,-3.5622,-3.5622,-3.5622,-3.5622,-3.5827,-3.6661,-3.69,-3.7094,-3.7985,-3.7975,-3.738,-3.5894,-3.5307,-3.4666,-3.3198,-3.2636,-3.2385,-3.2488,-3.2816,-3.3019,-3.2809,-3.3332,-3.3762,-3.3787,-3.3986,-3.4245,-3.4495,-3.4583,-3.4689,-3.4851,-3.4889,-3.498,-3.5157,-3.5199,-3.5465,-3.6005,-3.6219,-3.6914,-3.8135,-3.8951,-3.8441,-3.6572,0.0,0.0,0.0,0.0,0.0,0.0,0.0,0.0,0.0,0.0,0.0,0.0,0.0,0.0,0.0,0.0,0.0,0.0,0.0,0.0,0.0,0.0,0.0,-3.2077,-3.2413,-3.3376,-3.5362,-3.5883,-3.6498,-3.7577,-3.7613,-3.7577,-3.7577,-3.7667,-3.7667,-3.7613,-3.7667,-3.7667,-3.7613,-3.7577,-3.7577,-3.7577,-3.7577,-3.7484,-3.7297,-3.7297,-3.7083,-3.6702,-3.6908,-3.6869,-3.6702,-3.6908,-3.6869,-3.6702,-3.6702,-3.6544,-3.6301,-3.6301,-3.6301,-3.6301,-3.6301,-3.6233,-3.6165,-3.6019,-3.5905,-3.5817,-3.5773,-3.5728,-3.5622,-3.5622,-3.5622,-3.5622,-3.5622,-3.5622,-3.5827,-3.6661,-3.69,-3.7111,-3.7985,-3.7558,-3.6761,-3.5869,-3.4961,-3.4056,-3.3172,-3.2948,-3.2916,-3.2916,-3.2916,-3.2834,-3.255,-3.3124,0.0,-3.327,-3.3795,-3.4245,-3.4363,-3.4539,-3.4689,-3.4753,-3.4597,-3.4659,-3.5051,-3.4887,-3.534,-3.6647,-3.5684,-3.597,-3.7767,-3.8647,-3.8717,-3.7942,0.0,0.0,0.0,0.0,0.0,0.0,0.0,0.0,0.0,0.0,0.0,0.0,0.0,0.0,0.0,0.0,0.0,0.0,0.0,0.0,0.0,-3.1523,-3.2536,-3.2475,-3.3582,-3.4631,-3.5178,-3.5976,-3.6574,-3.6878,-3.7337,-3.7577,-3.7577,-3.7667,-3.7667,-3.7613,-3.7667,-3.7667,-3.7613,-3.7447,-3.7372,-3.7372,-3.7259,-3.7143,-3.7066,-3.6926,-3.6823,-3.6702,-3.6568,-3.6468,-3.6402,-3.6468,-3.6468,-3.6402,-3.6402,-3.6318,-3.6251,-3.6259,-3.6276,-3.6208,-3.6208,-3.6148,-3.6036,-3.5905,-3.5817,-3.5773,-3.5684,-3.5622,-3.5622,-3.5622,-3.5622,-3.5622,-3.5622,-3.5622,-3.5739,-3.6326,-3.6678,-3.7017,-3.7559,-3.7354,-3.6761,-3.5869,-3.4961,-3.4056,-3.3172,-3.2948,-3.2916,-3.2916,-3.2916,-3.2993,-3.328,-3.3473,-3.368,-3.3891,-3.4037,-3.4037,-3.3773,-3.3747,-3.3806,-3.4006,-3.3956,-3.4203,-3.4832,-3.5494,-3.6086,-3.6612,-3.7594,-3.8673,-3.9858,-3.9318,-3.8914,0.0,0.0,0.0,0.0,0.0,0.0,0.0,0.0,0.0,0.0,0.0,0.0,0.0,0.0,0.0,0.0,0.0,0.0,0.0,0.0,0.0,0.0,-3.2406,-3.3156,-3.3236,-3.4211,-3.5024,-3.5224,-3.5924,-3.6492,-3.6753,-3.7126,-3.7354,-3.7354,-3.7466,-3.7466,-3.7354,-3.7466,-3.7466,-3.7354,-3.7259,-3.7182,-3.7182,-3.7066,-3.6948,-3.6869,-3.6783,-3.6643,-3.6544,-3.6343,-3.6301,-3.6301,-3.6301,-3.6301,-3.6301,-3.6276,-3.6251,-3.6208,0.0,0.0,0.0,0.0,-3.5993,-3.5905,-3.5756,-3.5728,-3.5711,-3.5622,-3.5622,-3.5622,-3.5622,-3.5594,-3.5549,-3.5549,-3.5503,-3.5577,-3.6028,-3.6291,-3.6643,-3.7228,-3.672,-3.5996,-3.5681,-3.4627,-3.3598,-3.3118,-3.2948,0.0,-3.277,-3.2834,-3.293,-3.3019,-3.3386,-3.3625,-3.3707,-3.3935,-3.4012,-3.3784,-3.3758,-3.3784,-3.3894,-3.3781,0.0,0.0,0.0,-3.6007,-3.6287,-3.807,0.0,0.0,0.0,-3.9275,-3.9836,-3.9107,0.0,0.0,-3.8063,-3.7951,0.0,0.0,0.0,0.0,0.0,0.0,0.0,0.0,0.0,0.0,0.0,0.0,0.0,0.0,0.0,0.0,-3.3355,-3.4101,-3.4101,-3.4448,-3.4897,-3.5431,-3.5847,-3.6326,-3.6908,-3.6987,-3.6987,-3.6987,-3.7182,-3.7182,-3.7027,-3.7182,0.0,0.0,0.0,-3.6987,-3.6987,-3.6948,-3.6829,-3.6643,-3.6661,-3.652,-3.6301,-3.6259,-3.6259,-3.6259,-3.6259,-3.6259,-3.6259,-3.6208,-3.6182,-3.6122,-3.6122,-3.6079,-3.5975,-3.5817,-3.5773,-3.5773,-3.5622,0.0,0.0,-3.5622,-3.5577,-3.5577,-3.5577,-3.5566,-3.5492,-3.5492,-3.54,-3.5367,-3.5749,-3.5864,-3.6088,-3.6837,-3.5879,-3.4889,-3.5265,-3.4132,-3.2979,-3.2979,-3.2916,-3.2802,-3.2639,-3.2737,-3.2737,-3.2386,-3.305,-3.3455,-3.31,-3.368,-3.4074,-3.403,-3.4055,0.0,-3.4105,-3.3795,-3.391,-3.4562,-3.5296,-3.5895,-3.6359,-3.7982,-3.8593,-3.7932,-3.8762,-3.9785,-4.0974,-4.0928,-4.0968,-4.1022,-3.8646,-3.8202,0.0,0.0,0.0,0.0,0.0,0.0,0.0,0.0,0.0,0.0,0.0,0.0,0.0,0.0,0.0,-3.2236,-3.3323,-3.4101,-3.4101,-3.4448,-3.4818,-3.5207,-3.5749,-3.6284,-3.6725,-3.6908,-3.6987,-3.6987,-3.7027,-3.7027,-3.6987,-3.7027,-3.7027,-3.6987,-3.6846,-3.6766,-3.6766,-3.6527,-3.6426,-3.6402,-3.6335,0.0,-3.6208,-3.6105,-3.6062,-3.6062,-3.6062,-3.6062,-3.6062,-3.6019,-3.5975,-3.5861,-3.5861,-3.5861,-3.5817,-3.5667,-3.5622,-3.5622,-3.5622,-3.5622,-3.5622,-3.5622,-3.5549,-3.5537,-3.5537,-3.5429,0.0,-3.5337,-3.5291,-3.5337,-3.5412,-3.5677,-3.5865,-3.5779,-3.5252,-3.4747,-3.4566,-3.3723,-3.2979,-3.2979,-3.2802,-3.2639,-3.2606,-3.2639,-3.2654,-3.2636,-3.3001,-3.3332,-3.3468,-3.3805,-3.3884,-3.3497,-3.3356,-3.3328,-3.3385,-3.327,-3.3817,-3.5224,-3.699,-3.8369,-3.9338,-3.9757,-3.9978,-3.9935,-4.0221,-4.0525,-4.084,-4.0876,-4.0918,-4.094,-4.0458,-4.0422,0.0,0.0,0.0,0.0,0.0,0.0,0.0,0.0,0.0,0.0,0.0,-2.8493,-2.9501,0.0,-3.1978,-3.2606,-3.3519,-3.4101,-3.4101,-3.425,-3.4546,-3.4913,-3.5526,-3.6028,-3.6233,-3.6485,-3.6632,-3.6632,-3.6788,-3.6788,-3.665,-3.6788,-3.6788,-3.6632,-3.6502,-3.6437,-3.6437,-3.6233,-3.6131,-3.6131,-3.6122,-3.6122,-3.6122,-3.6019,-3.6019,-3.6019,-3.6019,-3.6019,-3.5975,-3.5932,-3.5817,-3.5711,-3.5711,-3.5711,-3.5667,-3.5622,-3.5622,-3.5622,-3.5622,-3.5622,-3.5577,-3.5549,-3.552,-3.5492,-3.5446,-3.5291,-3.5198,-3.5198,-3.5152,-3.5088,-3.5088,-3.5258,-3.5341,-3.501,-3.4627,-3.4281,-3.395,-3.3321,-3.2802,-3.2802,-3.2606,-3.242,-3.237,-3.2335,-3.2404,-3.247,-3.2749,-3.3001,-3.3136,-3.3458,-3.3597,-3.3393,-3.3411,-3.3468,-3.3496,-3.3897,-3.489,-3.6601,-3.7735,-3.8844,-3.9941,-4.01,-4.0233,-4.0392,-4.0515,-4.0629,-4.0699,-4.0734,-4.0789,-4.0849,-4.0839,-4.0918,0.0,0.0,0.0,0.0,0.0,0.0,0.0,-2.7162,-2.7216,-2.7418,-2.804,-2.8838,-2.9802,-3.1112,-3.2262,-3.2983,-3.3484,-3.3889,-3.4084,-3.405,-3.4151,-3.4546,-3.5195,-3.5588,-3.5694,-3.6002,-3.6216,-3.6216,-3.6461,-3.6544,-3.6301,-3.6502,-3.6502,-3.6276,-3.6191,-3.6165,-3.6165,-3.6062,-3.6019,-3.6019,-3.5975,-3.5975,-3.5975,-3.5932,-3.5932,-3.5932,-3.5905,-3.5888,-3.5888,-3.5773,-3.5639,-3.5532,-3.5532,-3.5532,-3.5532,-3.5577,-3.5622,-3.5577,-3.5577,-3.5594,-3.5594,-3.5492,-3.5446,-3.54,-3.5291,-3.5152,-3.5041,-3.5041,-3.4994,-3.4899,-3.4851,-3.4851,-3.4761,-3.4297,-3.3947,-3.3596,-3.3261,-3.2809,-3.2488,-3.2521,-3.2386,-3.2232,-3.2108,-3.2073,-3.2073,-3.2197,-3.2437,-3.2636,-3.2636,-3.3014,-3.3314,-3.3419,-3.3532,-3.3707,-3.3927,-3.5018,-3.6325,-3.7819,-3.8156,-3.8758,-3.9743,-3.9897,-4.0061,-4.0289,-4.0392,-4.0485,-4.0563,-4.0574,-4.0629,-4.073,-4.0681,-4.0768,-2.7212,-2.7436,-2.7377,-2.7678,-2.7434,-2.7048,0.0,-2.6924,-2.7006,-2.7274,-2.7862,-2.8668,-2.9706,-3.0526,-3.1494,-3.287,-3.2917,-3.3074,-3.3953,-3.3899,-3.3848,-3.4151,-3.4546,-3.4913,-3.5224,-3.5633,-3.5871,-3.5871,-3.6174,-3.6343,-3.6301,-3.6293,-3.6268,-3.6208,-3.6079,-3.6019,-3.6019,-3.6019,-3.6019,-3.6019,-3.5905,-3.5817,-3.5817,-3.5711,-3.5667,-3.5622,-3.5566,-3.5583,-3.5537,-3.5429,-3.5337,-3.5337,-3.5337,-3.5337,-3.5337,-3.5532,-3.5622,-3.5577,-3.552,-3.5492,-3.5492,-3.5337,-3.5245,-3.5152,-3.5152,-3.5041,-3.4899,-3.4899,-3.4899,-3.4899,-3.4739,-3.4691,-3.4424,-3.3345,-3.3057,-3.2832,-3.2199,-3.2036,-3.2038,-3.2283,-3.2232,-3.2108,-3.2108,-3.1929,-3.1837,-3.1856,-3.2109,-3.2369,-3.2419,-3.2763,-3.3087,-3.3458,-3.3207,-3.3376,-3.4359,-3.6266,-3.7563,-3.7894,-3.8697,-3.9358,-3.9781,-3.9807,-3.9937,-4.0215,-4.0288,-4.0358,-4.0419,-4.0469,-4.0519,-4.0534,-4.0519,-4.0623,-2.5415,-2.713,-2.7144,-2.7204,-2.7037,-2.6782,-2.6657,-2.6659,-2.6769,-2.71,-2.7615,-2.8201,-2.8979,-2.9864,-3.0703,-3.1294,-3.1612,-3.2056,-3.294,-3.295,-3.3042,-3.3543,-3.3797,-3.4084,-3.461,-3.5131,-3.5453,-3.5436,-3.5722,-3.5958,-3.6148,-3.6105,-3.6062,-3.6062,-3.5949,-3.5888,-3.5888,-3.58,-3.5773,-3.5701,-3.5656,-3.5566,-3.552,-3.5085,-3.4721,-3.4447,-3.4431,-3.4593,-3.4866,-3.4802,-3.4961,-3.5291,-3.5291,-3.5291,-3.5291,-3.5367,-3.5412,-3.5412,-3.5383,-3.5383,-3.5354,-3.5245,-3.5152,-3.5105,-3.4994,-3.4947,-3.4899,-3.4899,-3.4899,-3.4851,-3.4739,-3.4691,-3.4329,-3.2937,-3.2779,-3.2605,-3.1506,-3.1507,-3.1768,-3.1877,-3.1912,-3.1946,-3.1946,-3.1873,-3.18,-3.18,-3.1929,-3.202,-3.2055,-3.2317,-3.2699,-3.3057,-3.3364,-3.3928,-3.4813,-3.6107,-3.7185,-3.7844,-3.8266,-3.8752,-3.9305,-3.9338,-3.9519,-3.9958,-4.0059,-4.008,-3.9984,-4.0269,-4.0304,-4.0157,-4.0358,-4.0489,-2.4189,-2.6718,-2.6627,-2.6893,-2.6736,-2.6578,-2.6472,-2.6457,-2.6525,-2.6759,-2.7225,-2.768,-2.8125,-2.8978,-2.9688,-3.0148,-3.0429,-3.093,-3.1855,-3.1915,-3.2104,-3.2661,-3.2898,-3.3165,-3.3593,-3.4333,-3.4816,-3.4783,-3.5098,-3.5345,-3.5526,-3.5526,-3.5509,-3.5509,-3.5345,-3.5253,-3.5253,-3.5115,-3.5021,-3.4961,-3.4961,-3.4913,-3.4818,-3.4382,-3.3953,-3.3582,-3.3531,-3.3751,-3.4119,-3.407,-3.4333,-3.4706,-3.4706,-3.4706,-3.4723,-3.4883,-3.5105,-3.5291,-3.5245,-3.5245,-3.5198,-3.5105,-3.5041,-3.5041,-3.4947,-3.4899,-3.4835,-3.4835,-3.4804,-3.4739,-3.4643,-3.4594,-3.4234,-3.2927,-3.2767,-3.2641,-3.1524,-3.1571,-3.189,-3.1986,-3.2158,-3.2252,-3.2214,-3.2307,-3.2383,-3.2345,-3.2345,-3.2314,-3.2107,-3.256,-3.295,-3.314,-3.4052,-3.4832,-3.5332,-3.615,-3.7005,-3.7754,-3.7911,-3.8212,-3.8778,-3.8857,-3.909,-3.9519,-3.9675,-3.9656,-3.9529,-3.9859,-3.9901,-3.9709,-3.9962,-4.0081,-2.4342,-2.6275,-2.5827,-2.6988,-2.6811,-2.6286,-2.6286,-2.6286,-2.6272,-2.6165,-2.6669,-2.721,-2.7464,-2.778,-2.8452,-2.9958,-2.9614,-2.9647,-3.1047,-3.1024,-3.0923,-3.1223,-3.1921,-3.2195,-3.1904,-3.3093,-3.3834,-3.3834,-3.4202,-3.4431,-3.4431,-3.4333,-3.4235,-3.4235,-3.3987,-3.3836,-3.3836,-3.3735,-3.3649,-3.3649,-3.3649,-3.3649,-3.3633,-3.3633,-3.3649,-3.3582,-3.3443,-3.3443,-3.3443,-3.3287,-3.3235,-3.3235,-3.3235,-3.3235,-3.3355,-3.3917,-3.4643,-3.5291,-3.5152,-3.5105,-3.5088,-3.4947,-3.4899,-3.4899,-3.4899,-3.4804,-3.4707,-3.4707,-3.4594,-3.4497,-3.4349,-3.43,-3.4121,-3.3275,-3.3097,-3.2982,-3.2541,-3.2467,-3.2557,-3.2867,-3.322,-3.3413,-3.3263,-3.3571,-3.3774,-3.3652,-3.3733,-3.3573,-3.2853,-3.3699,-3.4265,-3.4086,-3.5361,-3.6114,-3.5817,-3.686,-3.756,-3.7614,-3.7895,-3.815,-3.8291,-3.8517,-3.8693,-3.8832,-3.8943,-3.9044,-3.9125,-3.9205,-3.9231,-3.9231,-3.9231,-3.9264,-2.2771,-2.4832,-2.4773,-2.5666,-2.5687,-2.5564,-2.5948,-2.6002,-2.6002,-2.6002,-2.651,-2.6967,-2.6967,-2.7393,-2.7821,-2.8278,-2.8026,-2.8083,-2.907,-2.9139,-2.9357,-3.0164,-3.0477,-3.0683,-3.0855,-3.2442,-3.3455,-3.3407,-3.3732,-3.4002,-3.4119,-3.4119,-3.4003,-3.3937,-3.3836,-3.3735,-3.3684,-3.3633,-3.3547,-3.3495,-3.3391,-3.3145,-3.2788,-3.2788,-3.2586,-3.2201,-3.2145,-3.2296,-3.2555,-3.2625,-3.2718,-3.2902,-3.3039,-3.2971,-3.2902,-3.3077,-3.3323,-3.37,-3.4658,-3.4739,-3.4448,-3.4707,-3.4756,-3.4739,-3.4643,-3.4594,-3.4546,-3.4546,-3.4546,-3.4448,-3.4349,-3.43,-3.4071,-3.3291,-3.308,-3.2934,-3.2299,-3.2367,-3.255,-3.264,-3.2934,-3.322,-3.3397,-3.3456,-3.3556,-3.3663,-3.3802,-3.3854,-3.3692,-3.3904,-3.4042,-3.398,-3.4794,-3.5364,-3.5267,-3.6122,-3.6776,-3.6992,-3.7108,-3.7319,-3.7685,-3.7913,-3.8147,-3.8444,-3.8633,-3.8663,-3.8584,-3.8812,-3.884,-3.8656,-3.8906,-3.9043,-2.1262,-2.3605,-2.3731,-2.4406,-2.4681,-2.4878,-2.5258,-2.5439,-2.5619,-2.5743,-2.6204,-2.6549,-2.6669,-2.6945,-2.7203,-2.7386,-2.7462,-2.755,-2.7636,-2.7963,-2.8343,-2.8643,-2.8919,-2.9229,-2.9785,-3.1149,-3.2048,-3.2175,-3.2636,-3.2934,-3.3042,-3.3228,-3.3319,-3.3235,-3.3145,-3.3039,-3.2933,-3.2879,-3.2826,-3.2718,-3.2625,-3.2422,-3.2079,-3.2079,-3.1853,-3.1482,-3.1482,-3.1625,-3.1879,-3.1992,-3.2089,-3.2226,-3.2296,-3.2241,-3.217,-3.236,-3.2321,-3.2321,-3.3649,-3.3885,-3.363,-3.3885,-3.3986,-3.3986,-3.3885,-3.3834,-3.3783,-3.3783,-3.3901,-3.4018,-3.3917,-3.4084,-3.4087,-3.3451,-3.3304,-3.3176,-3.2561,-3.2644,-3.2789,-3.2789,-3.3057,-3.3367,-3.3516,-3.3712,-3.3889,-3.4107,-3.4397,-3.4521,-3.4427,-3.4535,-3.4665,-3.473,-3.5111,-3.5402,-3.5427,-3.5891,-3.631,-3.652,-3.662,-3.6846,-3.7147,-3.7337,-3.7613,-3.7929,-3.8099,-3.8132,-3.8099,-3.8337,-3.8387,-3.8231,-3.8444,-3.8596,-1.9838,-2.248,-2.2652,-2.3301,-2.3846,-2.4221,-2.4234,-2.465,-2.5061,-2.5369,-2.5688,-2.6056,-2.6525,-2.6457,-2.651,-2.7181,-2.7697,-2.77,-2.6765,-2.7504,-2.7771,-2.675,-2.7215,-2.7876,-2.8606,-2.9154,-2.9689,-3.0195,-3.0944,-3.1397,-3.1443,-3.1894,-3.2191,-3.2191,-3.194,-3.1799,-3.1784,-3.1597,-3.1482,-3.1482,-3.1482,-3.1482,-3.1482,-3.1482,-3.1482,-3.1482,-3.1467,-3.1467,-3.1482,-3.1351,-3.1292,-3.1219,-3.1132,-3.1087,-3.1132,-3.1637,-3.1537,-3.1234,-3.2266,-3.2617,-3.2671,-3.2671,-3.2671,-3.2671,-3.2687,-3.2579,-3.2485,-3.2485,-3.281,-3.3145,-3.3198,-3.3594,-3.4,-3.3745,-3.371,-3.3607,-3.3346,-3.3309,-3.3309,-3.3309,-3.3559,-3.3799,-3.3694,-3.4301,-3.4816,-3.4927,-3.5424,-3.5589,-3.5111,-3.5617,-3.6062,-3.6259,-3.6191,-3.6165,-3.6182,-3.6182,-3.6165,-3.6208,-3.652,-3.6702,-3.6702,-3.6869,-3.7066,-3.7259,-3.7354,-3.7449,-3.7667,-3.7775,-3.7864,-3.7864,-3.7864,-3.7864,-1.8051,-2.0859,-2.1227,-2.2518,-2.2955,-2.3135,-2.361,-2.4105,-2.4523,-2.4593,-2.5384,-2.5948,-2.566,-2.5879,-2.6056,-2.5825,-2.5786,-2.5716,-2.5453,-2.5661,-2.5855,-2.5851,-2.6018,-2.6335,-2.6818,-2.7382,-2.7799,-2.7908,-2.9888,-3.1317,-3.1805,-3.2003,-3.1996,-3.1898,-3.1856,-3.1727,-3.1597,-3.1539,-3.1482,-3.1482,-3.1482,-3.1482,-3.1482,-3.1409,-3.1351,-3.1351,-3.1249,-3.1132,-3.0999,-3.1132,-3.0999,-3.0821,-3.0821,-3.0821,-3.0762,-3.0911,-3.0851,-3.0762,-3.1073,-3.1549,-3.2139,-3.247,-3.2579,-3.2524,-3.2461,-3.2477,-3.2422,-3.2422,-3.2532,-3.2641,-3.2841,-3.3002,-3.3193,-3.3346,-3.3398,-3.3398,-3.3293,-3.3309,-3.3309,-3.3309,-3.3559,-3.3799,-3.3694,-3.4036,-3.435,-3.4268,-3.4721,-3.5232,-3.5702,-3.583,-3.5861,-3.5932,-3.58,-3.5844,-3.6019,-3.6062,-3.6105,-3.6276,-3.636,-3.6402,-3.6402,-3.6626,-3.6806,-3.6846,-3.7027,-3.7126,-3.7164,-3.7203,-3.7297,-3.7447,-3.7447,-3.7558,-1.7016,-1.8839,-1.9357,-2.0812,-2.1318,-2.1744,-2.287,-2.3492,-2.4047,-2.4708,-2.5508,-2.5948,-2.5508,-2.5784,-2.5893,-2.5286,-2.5492,-2.5504,-2.4848,-2.5208,-2.5433,-2.516,-2.5119,-2.5439,-2.6244,-2.6595,-2.7018,-2.7769,-2.9542,-3.0728,-3.1087,-3.1603,-3.1898,-3.1799,-3.1727,-3.1597,-3.1409,-3.1409,-3.1409,-3.1409,-3.1366,-3.1176,-3.097,-3.1176,-3.1043,-3.0718,-3.0999,-3.1014,-3.0955,-3.0955,-3.0895,-3.0702,-3.0702,-3.0702,-3.0568,-3.0568,-3.0568,-3.0568,-3.0568,-3.0896,-3.1349,-3.1607,-3.1664,-3.1664,-3.1637,-3.1595,-3.1595,-3.1595,-3.1823,-3.2104,-3.2547,-3.2695,-3.2857,-3.324,-3.3011,-3.2726,-3.2617,-3.2578,-3.2687,-3.285,-3.3033,-3.3177,-3.3156,-3.3459,-3.3751,-3.3665,-3.4119,-3.4625,-3.5052,-3.5515,-3.5817,-3.5905,-3.5773,-3.5756,-3.5975,-3.6019,-3.6062,-3.6233,-3.6259,-3.6301,-3.6301,-3.6444,-3.6602,-3.6702,-3.6806,-3.6908,-3.6987,-3.6987,-3.7066,-3.7182,-3.7182,-3.7241,-1.6157,-1.6771,-1.7309,-1.8726,-1.9312,-2.0127,-2.1942,-2.2749,-2.3539,-2.5005,-2.5688,-2.5879,-2.5495,-2.5729,-2.5729,-2.4978,-2.5627,-2.5707,-2.4461,-2.5168,-2.5476,-2.4461,-2.4408,-2.4922,-2.6197,-2.6233,-2.6858,-2.8344,-2.9303,-2.9842,-2.9957,-3.0951,-3.1482,-3.1482,-3.1292,-3.1161,-3.1029,-3.097,-3.097,-3.097,-3.0866,-3.0553,-3.0133,-3.0613,-3.0433,-2.9889,-3.0493,-3.0821,-3.0895,-3.0702,-3.0702,-3.0762,-3.0642,-3.0568,-3.0568,-3.0507,-3.0447,-3.0447,-3.0372,-3.0387,-3.0507,-3.0507,-3.0568,-3.0568,-3.0522,-3.0522,-3.0522,-3.0522,-3.0911,-3.1422,-3.1992,-3.2312,-3.2586,-3.2904,-3.2437,-3.1921,-3.1667,-3.1682,-3.1853,-3.2231,-3.2342,-3.2398,-3.2398,-3.2788,-3.3093,-3.3093,-3.3563,-3.3869,-3.3869,-3.488,-3.5622,-3.5739,-3.5605,-3.5605,-3.5722,-3.5766,-3.5871,-3.6079,-3.6088,-3.6156,-3.6301,-3.6259,-3.636,-3.6643,-3.6643,-3.6708,-3.6891,-3.6891,-3.6948,-3.6948,-3.6948,-3.6987,-1.4514,-1.5309,-1.5861,-1.7309,-1.7716,-1.8358,-2.0733,-2.1623,-2.2481,-2.415,-2.5021,-2.5231,-2.4323,-2.4694,-2.4694,-2.3255,-2.3548,-2.3705,-2.304,-2.3488,-2.379,-2.3628,-2.3923,-2.4452,-2.5196,-2.5625,-2.6192,-2.698,-2.8098,-2.899,-2.9534,-2.9756,-2.9842,-2.9732,-2.967,-2.9594,-2.938,-2.938,-2.938,-2.938,-2.9393,-2.9331,-2.9192,-2.9219,-2.9107,-2.9044,-2.8953,-2.9282,-2.987,-2.9808,-3.0129,-3.0642,-3.0628,-3.0568,-3.0507,-3.0007,-2.9747,-2.9685,-2.9079,-2.9282,-2.9808,-3.0251,-3.0326,-3.0326,-3.0233,-3.0172,-3.0172,-3.0172,-3.028,-3.0462,-3.0807,-3.097,-3.1073,-3.1306,-3.1306,-3.119,-3.1146,-3.1437,-3.1724,-3.1781,-3.212,-3.2398,-3.2398,-3.2492,-3.2547,-3.2547,-3.3002,-3.3355,-3.3355,-3.3919,-3.4317,-3.4317,-3.4333,-3.4366,-3.4479,-3.4528,-3.483,-3.5481,-3.522,-3.5448,-3.6259,-3.6028,-3.6045,-3.6343,-3.636,-3.6402,-3.6426,-3.6426,-3.6527,-3.6725,-3.6725,-3.6846,-1.2131,-1.2868,-1.3454,-1.5309,-1.5738,-1.6587,-1.9791,-2.0745,-2.1689,-2.4226,-2.5203,-2.5314,-2.4465,-2.4708,-2.465,-2.3531,-2.3378,-2.333,-2.3065,-2.2992,-2.2992,-2.2992,-2.345,-2.3963,-2.4507,-2.5064,-2.5633,-2.6257,-2.6793,-2.7657,-2.8889,-2.9219,-2.9345,-2.931,-2.9219,-2.9093,-2.8903,-2.8903,-2.8903,-2.8903,-2.8826,-2.862,-2.8298,-2.8583,-2.8454,-2.8143,-2.8376,-2.8698,-2.903,-2.903,-2.9219,-2.9532,-2.9532,-2.9532,-2.947,-2.9156,-2.903,-2.8967,-2.862,-2.8889,-2.9498,-2.9651,-2.996,-3.0266,-3.0205,-3.0172,-3.0111,-3.0111,-3.0111,-3.0233,-3.0658,-3.0732,-3.0673,-3.1116,-3.0881,-3.0613,-3.0613,-3.1014,-3.1437,-3.1667,-3.2064,-3.2398,-3.2398,-3.2398,-3.2398,-3.2398,-3.2641,-3.2788,-3.2788,-3.3002,-3.3371,-3.3935,-3.3986,-3.407,-3.4186,-3.4186,-3.4382,-3.483,-3.483,-3.5018,-3.5493,-3.5481,-3.5588,-3.5705,-3.5722,-3.5722,-3.5722,-3.5722,-3.581,-3.5915,-3.5915,-3.6071,-0.9489,-1.0323,-1.092,-1.2743,-1.3179,-1.4324,-1.8541,-1.9564,-2.0733,-2.4244,-2.5216,-2.5216,-2.465,-2.4607,-2.4492,-2.3865,-2.345,-2.315,-2.2957,-2.2616,-2.2421,-2.2224,-2.2771,-2.3381,-2.3891,-2.4451,-2.4986,-2.5591,-2.5627,-2.6308,-2.7723,-2.8376,-2.8648,-2.8492,-2.8349,-2.8298,-2.8274,-2.7973,-2.7973,-2.8274,-2.7973,-2.771,-2.7484,-2.7855,-2.7802,-2.7284,-2.7868,-2.8182,-2.8298,-2.8298,-2.8363,-2.8492,-2.8492,-2.8492,-2.8492,-2.8298,-2.8247,-2.8168,-2.7986,-2.8441,-2.898,-2.8675,-2.931,-3.019,-3.0144,-2.996,-2.9775,-2.9775,-2.9775,-2.9884,-3.0315,-3.0404,-3.0493,-3.0925,-3.0584,-3.0144,-3.0144,-3.0493,-3.097,-3.1321,-3.1781,-3.2104,-3.2231,-3.2231,-3.2287,-3.2398,-3.2398,-3.2398,-3.2398,-3.2398,-3.2695,-3.3578,-3.3681,-3.3716,-3.3786,-3.3903,-3.4003,-3.4186,-3.435,-3.4544,-3.4736,-3.4847,-3.4927,-3.5021,-3.5021,-3.5021,-3.5021,-3.5068,-3.5115,-3.5115,-3.5161,-3.5362,-0.6716,-0.838,-0.8604,-0.9471,-0.9686,-1.1016,-1.626,-1.7603,-1.8998,-2.3495,-2.4408,-2.4292,-2.3813,-2.3721,-2.3437,-2.2653,-2.2592,-2.2334,-2.1439,-2.169,-2.1741,-2.1101,-2.1859,-2.2622,-2.314,-2.3602,-2.4189,-2.4767,-2.4815,-2.5028,-2.5603,-2.6252,-2.6471,-2.5963,-2.5894,-2.6195,-2.6726,-2.5252,-2.5264,-2.6714,-2.5931,-2.5931,-2.6589,-2.6658,-2.6658,-2.6589,-2.6658,-2.704,-2.7604,-2.7604,-2.792,-2.8492,-2.8492,-2.8492,-2.8427,-2.7604,-2.7284,-2.7217,-2.6427,-2.7015,-2.7986,-2.7324,-2.8376,-2.9822,-2.9713,-2.9184,-2.8634,-2.8634,-2.8634,-2.8684,-2.8748,-2.9233,-2.9727,-2.9775,-2.9713,-2.9665,-2.9665,-3.0021,-3.0372,-3.0433,-3.0792,-3.1263,-3.1667,-3.1781,-3.1894,-3.2342,-3.2398,-3.2398,-3.2398,-3.2398,-3.2453,-3.2547,-3.2547,-3.2547,-3.2532,-3.285,-3.3156,-3.3495,-3.3455,-3.3764,-3.4431,-3.4119,-3.4119,-3.4479,-3.4479,-3.4479,-3.4479,-3.4736,-3.483,-3.483,-3.5115,-3.5224,-0.4072,-0.6133,-0.6747,-0.7567,-0.8116,-0.9867,-1.4913,-1.6193,-1.7734,-2.2456,-2.3564,-2.3623,-2.3327,-2.328,-2.3173,-2.2896,-2.2519,-2.2087,-2.1502,-2.1591,-2.1285,-2.0053,-2.1108,-2.1788,-2.1669,-2.2436,-2.3093,-2.3661,-2.3694,-2.3621,-2.3548,-2.4624,-2.5134,-2.4909,-2.4767,-2.4838,-2.5063,-2.4409,-2.4409,-2.5063,-2.4707,-2.4779,-2.5063,-2.5594,-2.5816,-2.5804,-2.6314,-2.6658,-2.6905,-2.6905,-2.704,-2.7297,-2.7162,-2.7095,-2.704,-2.6564,-2.644,-2.6371,-2.6037,-2.6496,-2.7204,-2.6867,-2.7524,-2.8454,-2.8441,-2.8182,-2.792,-2.792,-2.8182,-2.8492,-2.8492,-2.9044,-2.9602,-2.9602,-2.9602,-2.9602,-2.9602,-2.996,-3.0312,-3.0312,-3.0673,-3.1087,-3.1263,-3.1495,-3.1781,-3.1951,-3.2231,-3.2398,-3.2398,-3.2398,-3.2398,-3.2398,-3.2398,-3.2398,-3.2398,-3.2523,-3.2742,-3.3065,-3.2888,-3.2926,-3.3287,-3.3251,-3.3251,-3.3287,-3.3578,-3.3748,-3.3748,-3.385,-3.3901,-3.3901,-3.4018,-3.4152,-0.135,-0.3887,-0.4897,-0.5739,-0.6962,-0.91,-1.3598,-1.5394,-1.7321,-2.1685,-2.2725,-2.2895,-2.2834,-2.2725,-2.2677,-2.275,-2.2137,-2.1565,-2.1313,-2.111,-2.0555,-1.9417,-2.0366,-2.0857,-2.0389,-2.1074,-2.1712,-2.2048,-2.2069,-2.1993,-2.17,-2.2553,-2.3368,-2.3986,-2.3841,-2.3902,-2.4108,-2.3683,-2.3683,-2.4108,-2.3902,-2.3902,-2.412,-2.4707,-2.4933,-2.5004,-2.5511,-2.5791,-2.5804,-2.5721,-2.5721,-2.5652,-2.5453,-2.5382,-2.5382,-2.5158,-2.5229,-2.5453,-2.5382,-2.5931,-2.6607,-2.6333,-2.6676,-2.7136,-2.7043,-2.7056,-2.7149,-2.7149,-2.7657,-2.8182,-2.8182,-2.8712,-2.9198,-2.9008,-2.9135,-2.9261,-2.9261,-2.9699,-3.0083,-3.0083,-3.0372,-3.0613,-3.0792,-3.1087,-3.1321,-3.1495,-3.1766,-3.1992,-3.1992,-3.1992,-3.1992,-3.1992,-3.1992,-3.2104,-3.2398,-3.2523,-3.2539,-3.2554,-3.2398,-3.2272,-3.2145,-3.2201,-3.2241,-3.2145,-3.2437,-3.2617,-3.2617,-3.2834,-3.2958,-3.2958,-3.3187,-3.3435,0.1476,-0.1718,-0.2737,-0.3597,-0.5698,-0.8472,-1.2294,-1.5343,-1.8177,-2.1118,-2.1827,-2.1939,-2.2113,-2.1877,-2.1776,-2.1877,-2.1175,-2.0602,-2.0635,-1.9955,-1.9497,-1.9341,-1.9604,-1.9713,-1.9538,-1.9792,-1.9894,-1.9894,-1.9894,-1.9894,-1.9904,-1.9982,-2.0904,-2.2927,-2.3001,-2.335,-2.412,-2.2606,-2.2606,-2.412,-2.335,-2.3423,-2.4108,-2.4108,-2.4108,-2.4108,-2.412,-2.4108,-2.4108,-2.3891,-2.3818,-2.3818,-2.3599,-2.3514,-2.3514,-2.3294,-2.3745,-2.4409,-2.4192,-2.5122,-2.6277,-2.5581,-2.5791,-2.6277,-2.5523,-2.5861,-2.6414,-2.6414,-2.6947,-2.7484,-2.7484,-2.7986,-2.8363,-2.767,-2.8051,-2.8492,-2.8492,-2.9121,-2.9602,-2.9602,-2.9602,-2.9789,-3.0266,-3.0312,-3.0493,-3.097,-3.1029,-3.1029,-3.1029,-3.1029,-3.1029,-3.1029,-3.1029,-3.1364,-3.2342,-3.2703,-3.2554,-3.1739,-3.1992,-3.1807,-3.1029,-3.1029,-3.1029,-3.1029,-3.1029,-3.1029,-3.1029,-3.1751,-3.213,-3.213,-3.2942,-3.3309,0.3264,-0.2856,-0.7697,-0.8005,-0.9321,-1.1348,-1.4439,-1.5928,-1.7408,-2.0257,-2.0764,-2.0741,-2.0996,-2.0944,-2.059,-1.9965,-1.9521,-1.9138,-1.8629,-1.7949,-1.7404,-1.707,-1.6714,-1.6672,-1.723,-1.7637,-1.797,-1.8143,-1.808,-1.8417,-1.9,-1.9,-1.9562,-2.0827,-2.1308,-2.17,-2.1907,-2.1863,-2.2025,-2.2531,-2.2327,-2.2317,-2.2531,-2.3128,-2.335,-2.335,-2.3902,-2.4036,-2.3891,-2.3818,-2.3745,-2.3588,-2.3368,-2.3294,-2.3294,-2.3084,-2.3243,-2.3463,-2.339,-2.3683,-2.4036,-2.3829,-2.3902,-2.4036,-2.3829,-2.4636,-2.5721,-2.6277,-2.6552,-2.6879,-2.7351,-2.767,-2.7736,-2.7537,-2.7986,-2.8492,-2.8492,-2.9058,-2.9602,-2.9602,-2.9602,-2.9665,-2.9789,-3.0083,-3.0176,-2.9799,-3.0104,-3.0151,-2.9633,-2.9558,-2.9558,-2.9558,-2.9558,-3.0076,-3.1364,-3.1552,-3.1595,-3.1507,-3.1233,-3.0999,-3.0793,-3.0718,-3.0687,-3.0553,-3.0851,-3.1029,-3.1029,-3.1248,-3.1364,-3.1349,-3.1951,-3.2191,0.4522,-0.2412,-0.8882,-0.9479,-1.1082,-1.3099,-1.5471,-1.677,-1.8071,-1.9835,-2.0064,-1.9922,-2.0053,-1.9977,-1.9694,-1.8961,-1.8188,-1.7571,-1.7455,-1.6395,-1.5585,-1.5551,-1.5089,-1.4989,-1.5562,-1.5912,-1.6285,-1.642,-1.6571,-1.6814,-1.7398,-1.7398,-1.7641,-1.8212,-1.9737,-2.0537,-2.0537,-2.0934,-2.1088,-2.1088,-2.1088,-2.1088,-2.1088,-2.1852,-2.2166,-2.2166,-2.2809,-2.3021,0.0,-2.2734,-2.2649,-2.251,-2.2274,-2.2188,-2.2188,-2.2134,-2.2285,-2.2585,-2.2585,-2.2734,-2.3032,-2.3032,-2.3032,-2.3032,-2.3032,-2.3829,-2.4921,-2.5417,-2.5767,-2.5963,-2.6158,-2.642,-2.6637,-2.6663,-2.7191,-2.771,-2.771,-2.826,-2.8817,-2.8817,-2.8817,-2.8817,-2.8817,-2.9044,-2.9079,-2.8657,-2.8834,-2.8898,-2.8438,-2.8373,-2.8373,-2.8373,-2.8373,-2.8707,-2.9628,-3.0254,-3.0748,-3.0984,-3.0658,-3.0433,-3.0283,-3.0251,-3.0144,-3.0021,-3.0312,-3.0493,-3.0493,-3.0673,-3.0851,-3.1029,-3.1321,-3.1437,0.0,-0.0902,-0.7714,-0.9209,-1.1584,-1.3948,-1.5549,-1.7822,0.0,-1.9736,-1.9671,-1.9407,-1.9131,-1.9065,-1.8931,-1.8664,-1.7014,-1.5931,-1.6702,-1.4931,-1.3775,-1.4296,-1.4201,-1.4133,-1.4178,-1.4396,-1.4576,-1.4604,-1.4832,-1.5018,-1.5184,-1.5213,-1.5304,-1.5394,-1.8132,-1.9571,-1.965,-1.9737,-1.9737,-1.9737,-1.9816,-1.9816,-1.9816,-2.0459,-2.0624,-2.0479,-2.1031,-2.1195,-2.0964,-2.0819,-2.0741,-2.0664,-2.0576,-2.0489,-2.0489,-2.0566,-2.1088,-2.169,-2.169,-2.2209,-2.2809,-2.2809,-2.2809,-2.2809,-2.2883,-2.3463,-2.4047,-2.4047,-2.4529,-2.4874,-2.4253,-2.4601,-2.5169,-2.5288,-2.5861,-2.6414,-2.6414,-2.6934,-2.7404,-2.7484,-2.7471,-2.7404,-2.7484,-2.7484,-2.7484,-2.7417,-2.7417,-2.7417,-2.7338,-2.7338,-2.7338,-2.7338,-2.7338,-2.7338,-2.7338,-2.8834,-2.9922,-3.0054,-3.0115,-2.9884,-2.9477,-2.9477,-2.9477,-2.9477,-2.9477,-2.9477,-2.9477,-2.9884,-3.0297,-3.0777,-3.0777,-3.0777,0.6533,0.0,-1.3769,-1.415,-1.5424,-1.6693,0.0,-1.8065,-1.8942,-1.8854,-1.8731,-1.8596,-1.8654,-1.8596,-1.8114,-1.6844,-1.5134,-1.3818,-1.3626,-1.1945,-1.0507,-0.9776,-0.9792,-0.9887,-1.0126,-1.0363,-1.0561,-1.074,-1.0979,-1.1617,-1.3023,-1.3233,-1.3951,-1.5394,-1.6124,-1.6675,-1.7122,-1.7937,-1.8346,-1.8346,-1.8753,-1.8921,-1.8921,-1.9088,-1.9088,-1.9088,-1.9246,-1.9177,-1.8939,-1.8948,-1.8798,-1.8727,-1.9371,-1.9618,-1.9696,-2.0323,-2.0712,-2.0867,-2.0867,-2.1021,-2.1165,-2.1165,-2.1165,-2.1318,-2.1918,-2.2649,-2.3243,-2.3243,-2.3379,-2.3599,-2.3963,-2.4253,-2.4541,-2.5158,-2.5861,-2.6414,-2.6414,-2.6501,-2.6722,-2.7404,-2.7018,-2.6803,-2.7404,-2.7484,-2.7284,-2.6744,-2.6688,-2.6471,-2.5918,-2.5849,-2.5849,-2.5849,-2.5849,-2.5836,-2.5718,-2.7152,-2.8103,-2.813,-2.813,-2.813,-2.8012,-2.8012,-2.8012,-2.8012,-2.8012,-2.8012,-2.8012,-2.813,-2.8182,-2.8298,-2.8657,-2.8834,0.3304,-0.6065,-1.4919,-1.5488,-1.6385,-1.7139,-1.7335,-1.7765,-1.8124,-1.7891,-1.7619,-1.7354,-1.7276,-1.6269,-1.553,-1.572,-1.2683,-1.0098,-0.9638,-0.96,-0.918,-0.8071,-0.8071,-0.8192,-0.8453,-0.8709,-0.8885,-0.9157,-0.9365,-0.9975,-1.1029,-1.126,-1.173,-1.2643,-1.3115,-1.4105,-1.5674,-1.6242,-1.6487,-1.6406,-1.6651,-1.6814,-1.6814,-1.7131,-1.7203,-1.7114,-1.7438,-1.7616,-1.773,-1.773,-1.7819,-1.8078,-1.8487,-1.8727,-1.8727,-1.9204,-1.9441,-1.9441,-1.9441,-1.9687,-2.0089,-2.0489,-2.0566,-2.0644,-2.1088,-2.1538,-2.1983,-2.236,-2.2435,-2.2499,-2.2936,-2.301,-2.3231,-2.4047,-2.4552,-2.4826,-2.4826,-2.4791,-2.4909,-2.5356,-2.5344,-2.5344,-2.5426,-2.5718,-2.566,-2.4969,-2.4826,-2.4696,-2.4276,-2.4276,-2.4276,-2.4276,-2.4276,-2.4264,-2.4158,-2.4933,-2.5693,-2.6357,-2.6425,-2.6425,-2.6425,-2.6425,-2.6425,-2.6425,-2.6425,-2.6425,-2.6425,-2.6803,-2.695,-2.695,-2.7485,-2.7749,-0.1028,-0.7724,-1.3078,-1.5037,-1.5903,-1.6446,-1.7139,-1.7285,-1.7235,-1.701,-1.6585,-1.5939,-1.5176,-1.3724,-1.2964,-1.404,-0.9849,-0.6294,-0.5736,-0.7134,-0.7982,-0.7061,-0.6988,-0.7069,-0.7302,-0.7512,-0.7836,-0.8073,-0.8336,-0.8693,-0.9099,-0.9294,-0.9321,-0.9312,-1.0203,-1.1764,-1.4032,-1.4427,-1.4538,-1.4371,-1.4455,-1.4538,-1.4538,-1.5011,-1.5162,-1.5072,-1.5636,-1.6062,-1.6421,-1.6421,-1.6756,-1.7342,-1.7585,-1.7666,-1.7666,-1.7827,-1.7917,-1.7997,-1.7997,-1.8487,-1.9213,-1.9923,-2.0167,-2.0167,-2.0167,-2.0167,-2.0391,-2.1221,-2.1527,-2.169,-2.1766,-2.1832,-2.1983,-2.2809,-2.3032,-2.3032,-2.3032,-2.2872,-2.2883,-2.2957,-2.339,-2.3599,-2.3106,-2.3537,-2.3756,-2.3095,-2.3032,-2.3032,-2.3032,-2.3032,-2.2957,-2.2798,-2.2798,-2.2713,-2.2403,-2.2403,-2.287,-2.3925,-2.4519,-2.4755,-2.4755,-2.4755,-2.4755,-2.4755,-2.4755,-2.4755,-2.4755,-2.5493,-2.5795,-2.5795,-2.6314,-2.6531,-0.0859,-0.5698,-0.9614,-1.434,-1.5921,-1.6403,-1.6673,-1.6742,-1.6673,-1.6446,-1.6097,-1.4931,-1.2101,-1.345,-1.3494,-0.893,-0.6614,-0.4857,-0.3276,-0.3355,-0.3509,-0.3355,-0.3435,-0.3593,-0.3593,-0.3834,-0.4231,-0.5015,-0.5209,-0.6003,-0.7457,-0.7694,-0.8197,-0.8937,-0.9219,-0.9404,-0.9653,-1.1889,-1.3039,-1.3039,-1.3385,-1.3561,-1.3561,-1.3717,-1.3717,-1.3717,-1.3795,-1.388,-1.3971,-1.3971,-1.3971,-1.4223,-1.5538,-1.6026,-1.6108,-1.6919,-1.7496,-1.7997,-1.7997,-1.8078,-1.8238,-1.8399,-1.8399,-1.8399,-1.8399,-1.8399,-1.8559,-1.9441,-2.0235,-2.0944,-2.1614,-2.1832,-2.1983,-2.2809,-2.3032,-2.3032,-2.3032,-2.2435,-2.2209,-2.2883,-2.2499,-2.236,-2.2872,-2.3095,-2.3106,-2.3032,-2.3032,-2.3032,-2.3032,-2.3032,-2.2713,-2.2006,-2.192,-2.1303,-1.9896,-1.974,-1.9584,-1.9122,-2.1738,-2.3294,-2.3294,-2.3294,-2.3294,-2.3294,-2.3294,-2.3294,-2.3294,-2.3441,-2.3514,-2.3514,-2.3345,-2.3334,-0.6391,-0.9652,-1.1158,-1.2591,-1.1766,-1.0587,-1.0575,-1.0647,-1.1037,-1.2161,-1.2202,-1.1525,-0.9918,-0.9794,-0.8148,-0.2741,-0.3356,-0.3681,-0.1325,-0.2024,-0.2724,-0.2345,-0.2503,-0.266,-0.266,-0.2737,-0.2969,-0.3517,-0.3553,-0.4207,-0.5623,-0.583,-0.6312,-0.7049,-0.762,-0.7875,-0.7704,-0.9484,-1.0419,-1.0448,-1.0621,-1.0794,-1.0794,-1.0794,-1.1058,-1.1499,-1.1499,-1.2015,-1.2875,-1.2875,-1.3052,-1.3476,-1.4223,-1.4468,-1.4552,-1.4873,-1.5448,-1.6034,-1.6175,-1.6421,-1.6764,-1.6903,-1.6895,-1.6895,-1.6895,-1.6895,-1.7066,-1.7811,-1.863,-1.9362,-2.0216,-2.045,-2.0527,-2.0904,-2.1375,-2.1603,-2.1135,-2.0682,-2.044,-2.0324,-2.0314,-2.0391,-2.0324,-2.1028,-2.1497,-2.1048,-2.1375,-2.1527,-2.1058,-2.0971,-2.0653,-1.9769,-1.969,-1.9376,-1.8603,-1.8523,-1.8372,-1.7997,-1.9474,-2.0324,-2.0324,-2.0324,-2.0324,-2.0324,-2.0324,-2.0324,-2.0324,-2.0767,-2.0911,-2.0911,-2.1034,-2.11,-1.0892,-1.2461,-1.154,-0.9578,-0.7933,-0.6566,-0.5747,-0.56,-0.606,-0.7821,-0.7995,-0.7711,-0.7492,-0.5548,-0.2908,0.0387,-0.0845,-0.1531,0.0623,-0.0543,-0.1472,-0.1014,-0.1093,-0.1171,-0.1171,-0.1406,-0.172,-0.2033,-0.2268,-0.2893,-0.3904,-0.4053,-0.4336,-0.4743,-0.5662,-0.6059,-0.6138,-0.6944,-0.7785,-0.8479,-0.8524,-0.8544,-0.8544,-0.8544,-0.8894,-0.9593,-0.9593,-1.0284,-1.1494,-1.1494,-1.1752,-1.2266,-1.2437,-1.2607,-1.2869,-1.3222,-1.3646,-1.3971,-1.4273,-1.4692,-1.5206,-1.5335,-1.5403,-1.5403,-1.5403,-1.5403,-1.5576,-1.625,-1.6675,-1.7172,-1.8479,-1.8895,-1.8975,-1.8807,-1.9362,-1.9844,-1.9134,-1.8975,-1.8727,-1.7908,-1.8275,-1.8417,-1.7649,-1.8585,-1.9219,-1.8621,-1.9097,-1.9256,-1.8621,-1.8541,-1.8221,-1.7326,-1.7245,-1.7163,-1.6927,-1.6927,-1.6927,-1.6927,-1.7423,-1.7836,-1.7997,-1.7641,-1.756,-1.7747,-1.756,-1.7471,-1.7568,-1.8337,-1.8647,-1.8559,-1.8646,-1.8795,-1.0393,-0.9822,-0.6776,-0.4633,-0.7052,-0.9265,-0.6757,-0.5593,-0.517,-0.5321,-0.4969,-0.439,-0.4022,-0.1986,-0.1152,-0.3448,-0.0231,0.2649,0.2888,0.2731,0.2652,0.2731,0.2733,0.2733,0.2733,0.1877,0.0939,0.0156,-0.0861,-0.1801,-0.2581,-0.2665,-0.2666,-0.2744,-0.2889,-0.3331,-0.4142,-0.4318,-0.5762,-0.8381,-0.8463,-0.8544,-0.8544,-0.8544,-0.8544,-0.8632,-0.8632,-0.8632,-0.8803,-0.8803,-0.8803,-0.8886,-0.9566,-1.0428,-1.1391,-1.2869,-1.3052,-1.2619,-1.33,-1.3561,-1.3561,-1.3555,-1.3555,-1.3555,-1.3555,-1.3555,-1.3802,-1.4594,-1.428,-1.43,-1.6593,-1.7658,-1.7917,-1.7326,-1.7658,-1.8158,-1.8078,-1.8078,-1.7908,-1.7163,-1.7163,-1.6903,-1.6219,-1.6211,-1.6293,-1.6219,-1.6293,-1.6293,-1.6219,-1.6219,-1.589,-1.4996,-1.492,-1.4601,-1.3808,-1.3724,-1.3724,-1.3724,-1.5854,-1.7334,-1.7997,-1.6587,-1.6164,-1.7074,-1.6254,-1.5912,-1.6137,-1.6814,-1.7066,-1.6798,-1.5763,-1.5934,-1.1316,-0.9823,-0.6728,-0.4398,-0.3655,-0.2711,0.0152,0.0993,0.0688,-0.099,-0.1142,-0.1373,-0.2592,0.0615,0.2633,0.0,0.2401,0.4533,0.4139,0.3982,0.3746,0.3359,0.3202,0.3124,0.3124,0.2735,0.2423,0.203,0.1563,0.086,0.0078,-0.0078,-0.039,-0.0936,-0.1496,-0.1977,-0.2293,-0.2919,-0.3788,-0.4891,-0.6023,-0.6702,-0.6789,-0.6789,-0.7051,-0.7669,-0.7669,-0.7929,-0.8544,-0.8544,-0.8544,-0.8544,-0.8798,-0.9144,-0.9492,-1.0101,-1.0443,-1.0611,-1.0443,-1.0616,-1.095,-1.0529,-1.0712,-1.1149,-1.0534,-1.0799,-1.123,-1.1445,-1.1278,-1.1712,-1.474,-1.5749,-1.5913,-1.5666,-1.6152,-1.6643,-1.6078,-1.5913,-1.5674,-1.4956,-1.4789,-1.4615,-1.4001,-1.4657,-1.5065,-1.4809,-1.5471,-1.5352,-1.3612,-1.4428,-1.4379,-1.233,-1.2076,-1.1464,-1.0,-0.9484,-0.9402,-0.9828,-1.2946,-1.4873,-1.5123,-1.3981,-1.3549,-1.3904,-1.3549,-1.338,-1.3477,-1.4079,-1.4253,-1.4162,-1.3309,-1.3224,-1.0246,-0.8738,-0.6287,-0.2707,-0.0749,0.13,0.5132,0.5709,0.4991,0.3247,0.2381,0.1376,-0.0305,0.2308,0.4187,0.2318,0.4121,0.5712,0.5237,0.5079,0.4844,0.4375,0.4217,0.4139,0.4139,0.3826,0.3593,0.3593,0.3127,0.2656,0.2105,0.1872,0.1482,0.0936,0.0234,-0.0234,-0.0467,-0.1429,-0.201,-0.2268,-0.3847,-0.4656,-0.4789,-0.4789,-0.5156,-0.5805,-0.5805,-0.6154,-0.677,-0.7037,-0.7309,-0.7665,-0.7929,-0.7837,-0.7654,-0.7918,-0.8345,-0.8769,-0.8261,-0.8615,-0.9135,-0.8623,-0.8894,-0.9331,-0.8719,-0.8982,-0.9327,-0.8948,-0.8769,-0.9278,-1.1299,-1.2596,-1.3393,-1.3484,-1.3697,-1.3748,-1.3445,-1.2915,-1.2234,-1.1417,-1.1257,-1.1086,-1.0565,-1.1225,-1.1719,-1.1464,-1.212,-1.2091,-1.0113,-1.1006,-1.1118,-0.9229,-0.8694,-0.808,-0.7125,-0.634,-0.6253,-0.7041,-0.9502,-1.1177,-1.1599,-1.0469,-1.0034,-1.0297,-0.9943,-0.9861,-1.0048,-1.0373,-1.054,-1.0545,-0.9775,-0.9602,-0.6437,-0.6193,-0.4716,0.1285,0.1141,0.0989,0.6798,0.731,0.6623,0.6861,0.5378,0.3875,0.3211,0.3133,0.2984,0.2311,0.4506,0.6338,0.6338,0.6338,0.6338,0.6338,0.6338,0.6338,0.6338,0.5315,0.4688,0.4688,0.3748,0.3124,0.3124,0.2971,0.2818,0.2818,0.2582,0.211,0.1325,0.0468,-0.0474,-0.1372,-0.2267,-0.2741,-0.2863,-0.2863,-0.2897,-0.2865,-0.2865,-0.2867,-0.2956,-0.3941,-0.4837,-0.5733,-0.67,-0.6514,-0.5794,-0.6757,-0.7017,-0.7017,-0.7017,-0.7643,-0.8456,-0.8456,-0.8456,-0.8456,-0.8456,-0.8456,-0.8273,-0.7288,-0.7017,-0.6838,-0.5946,-0.8039,-1.0585,-1.0864,-0.9957,-0.9311,-1.0267,-0.8944,-0.7458,-0.6776,-0.6692,-0.644,-0.5761,-0.5678,-0.5678,-0.5678,-0.5678,-0.5678,-0.5678,-0.5678,-0.5678,-0.5678,-0.4775,-0.4594,-0.5499,-0.4685,-0.4597,-0.5588,-0.559,-0.6277,-0.7631,-0.6171,-0.5739,-0.6608,-0.547,-0.5132,-0.5678,-0.5909,-0.5985,-0.5906,-0.478,-0.4949,-0.7527,-0.4563,-0.1005,0.059,0.3394,0.6152,0.7901,0.7923,0.7698,0.7927,0.7499,0.6529,0.4733,0.5831,0.6391,0.4515,0.6325,0.8016,0.8016,0.7484,0.7176,0.7176,0.6644,0.6338,0.6338,0.6022,0.5786,0.5786,0.5392,0.5076,0.5076,0.4768,0.4538,0.4538,0.3832,0.3283,0.3046,0.2188,0.1647,0.1342,0.0474,-0.0972,-0.2883,-0.2883,-0.2893,-0.2914,-0.2872,-0.2891,-0.2894,-0.3206,-0.3494,-0.376,-0.4026,-0.3935,-0.3755,-0.402,-0.4107,-0.4107,-0.4107,-0.4287,-0.4554,-0.4554,-0.4994,-0.5432,-0.473,-0.4994,-0.5343,-0.4374,-0.4107,-0.4107,-0.384,-0.3914,-0.4515,-0.5909,-0.59,-0.5542,-0.5172,-0.5092,-0.4747,-0.3947,-0.4664,-0.521,-0.4154,-0.4242,-0.433,-0.4156,-0.3882,-0.3699,-0.3699,-0.2472,-0.1681,-0.1681,-0.1415,-0.0797,0.0267,0.0623,0.0623,0.0356,0.0356,-0.1329,-0.5107,-0.4784,-0.4438,-0.398,-0.4082,-0.4267,-0.4448,-0.3978,-0.3791,-0.3705,-0.3093,-0.3005,-0.2991,-0.0214,0.2707,0.3793,0.5836,0.7938,0.92,0.9145,0.8922,0.9367,0.9442,0.8954,0.7211,0.8174,0.859,0.676,0.7728,0.8699,0.8775,0.8394,0.8089,0.8241,0.7783,0.748,0.7403,0.7403,0.7176,0.6795,0.6637,0.6405,0.6099,0.5709,0.5553,0.5553,0.4771,0.438,0.438,0.3441,0.3049,0.2971,0.2192,0.0874,-0.0815,-0.1485,-0.1749,-0.1766,-0.1789,-0.1981,-0.2346,-0.2289,-0.2578,-0.2867,-0.2867,-0.2689,-0.2331,-0.2331,-0.2331,-0.2331,-0.2331,-0.2598,-0.2867,-0.2416,-0.268,-0.2942,-0.2053,-0.214,-0.2404,-0.1429,-0.1162,-0.1073,-0.0715,-0.0179,-0.0357,-0.3009,-0.274,-0.1767,-0.1585,-0.1235,-0.0795,-0.0176,-0.0882,-0.1326,-0.0619,-0.0796,-0.1062,-0.0886,-0.0708,-0.053,-0.053,0.0709,0.1508,0.1508,0.2126,0.2839,0.3659,0.4105,0.4105,0.3749,0.3749,0.2576,0.0088,-0.0886,-0.1068,-0.0444,-0.0711,-0.08,-0.0889,-0.0266,0.0,-0.0089,0.0266,0.0443,0.416,0.5164,0.6108,0.8925,0.828,0.763,1.0467,1.0513,1.0218,1.0962,1.1111,1.0887,1.0143,0.9992,0.9765,0.9079,0.8927,0.9003,0.9226,0.915,0.9226,0.9372,0.9372,0.9221,0.9074,0.8998,0.8618,0.771,0.7633,0.733,0.6567,0.6251,0.6093,0.6015,0.5628,0.5395,0.5321,0.438,0.391,0.391,0.3049,0.2581,0.2584,0.0962,0.0246,0.0252,0.0168,-0.034,-0.1125,-0.1213,-0.1842,-0.2591,-0.2502,-0.1969,-0.1166,-0.1076,-0.0986,-0.0986,-0.0986,-0.1613,-0.2238,-0.134,-0.0982,-0.0803,0.0089,0.0356,0.0534,0.1427,0.1695,0.1963,0.2862,0.3133,0.2322,-0.1063,0.0177,0.1956,0.1326,0.2661,0.4013,0.4101,0.4013,0.3835,0.3924,0.3749,0.3573,0.3575,0.3489,0.3312,0.3312,0.3837,0.4273,0.4273,0.5601,0.6222,0.5328,0.6042,0.613,0.5328,0.5326,0.5769,0.6574,0.4545,0.3484,0.3573,0.3926,0.4101,0.3922,0.4461,0.455,0.4281,0.455,0.4641,0.1221,0.4012,0.6842,0.7677,0.901,1.0306,1.095,1.0962,1.0887,1.1037,1.1111,1.1037,1.0887,1.0962,1.1037,1.0881,1.0956,1.1105,1.1105,1.0571,1.019,1.0265,0.9669,0.9301,0.9226,0.9221,0.915,0.8917,0.877,0.8618,0.8394,0.808,0.754,0.6934,0.6468,0.5931,0.5321,0.4935,0.4779,0.4701,0.391,0.3519,0.3519,0.2438,0.1999,0.1962,0.1309,0.0912,0.0677,0.0,-0.0429,-0.0525,0.0175,0.0618,0.0896,0.1702,0.1971,0.1971,0.1971,0.1791,0.17,0.1878,0.1969,0.2146,0.285,0.3027,0.3203,0.3999,0.4265,0.4267,0.4535,0.5073,0.551,0.5041,0.5053,0.5422,0.6552,0.6994,0.7351,0.8158,0.6919,0.5948,0.6571,0.6313,0.6231,0.6766,0.6766,0.677,0.677,0.6854,0.6939,0.6939,0.7295,0.7386,0.7204,0.7383,0.7383,0.7204,0.8066,0.8412,0.8078,0.6207,0.5499,0.6213,0.611,0.6104,0.6016,0.7088,0.7537,0.7534,0.7537,0.7625,0.3836,0.5966,0.7834,0.8891,1.0142,1.1111,1.1111,1.1111,1.1111,1.1111,1.1111,1.1111,1.126,1.1335,1.1409,1.1558,1.1632,1.1706,1.1855,1.1471,1.1242,1.1316,1.1019,1.0726,1.0576,1.0576,1.0421,0.9895,0.9744,0.9523,0.915,0.8846,0.8461,0.8084,0.7617,0.7234,0.6773,0.6549,0.6398,0.6167,0.5767,0.5458,0.5229,0.3359,0.2678,0.2867,0.2152,0.1859,0.1817,0.1405,0.1173,0.1283,0.1709,0.1992,0.2118,0.2996,0.3367,0.3395,0.3748,0.3924,0.4014,0.4459,0.4548,0.4725,0.5518,0.5957,0.6219,0.6568,0.6828,0.7085,0.7428,0.7872,0.8491,0.9347,0.8495,0.7731,0.8786,0.8952,0.9118,0.9662,0.9109,0.8657,0.91,0.8674,0.8503,0.9274,0.9274,0.9434,1.0267,1.0287,1.0378,1.0787,1.0807,1.0904,1.1401,1.0989,1.0742,1.0742,1.1016,1.1026,1.0682,1.0029,0.9247,0.8329,0.8562,0.8558,0.8222,0.9187,0.9461,0.9209,0.9209,0.9209,0.7446,0.8713,0.9326,1.087,1.1186,1.1111,1.126,1.1329,1.1403,1.1477,1.1403,1.1403,1.1552,1.1774,1.199,1.2137,1.2211,1.2218,1.2224,1.2224,1.2298,1.2305,1.2305,1.2224,1.2077,1.2077,1.17,1.0864,1.0789,1.0496,0.9825,0.9528,0.9377,0.9231,0.8841,0.8533,0.838,0.8232,0.7927,0.7617,0.754,0.7314,0.6938,0.4448,0.3515,0.3982,0.3281,0.3003,0.3058,0.2898,0.2856,0.2833,0.2999,0.3125,0.3358,0.4038,0.434,0.4581,0.5207,0.539,0.5569,0.6565,0.6926,0.7102,0.8169,0.8782,0.9126,0.9213,0.9557,1.0072,1.0747,1.0833,1.1096,1.2457,1.1278,0.9923,1.0269,1.0524,1.0697,1.0697,1.1187,1.1605,1.1268,1.1091,1.107,1.156,1.1464,1.1866,1.3349,1.3387,1.3574,1.4303,1.4428,1.4622,1.5036,1.4705,1.4296,1.3981,1.3827,1.3587,1.3347,1.4273,1.3412,1.0524,1.1198,1.1278,1.0697,1.1284,1.1278,1.0697,1.0697,1.0697,0.7003,0.9526,1.1545,1.1855,1.1484,1.126,1.1781,1.2137,1.2572,1.3091,1.2792,1.2425,1.2425,1.3215,1.3947,1.3947,1.4091,1.4027,1.339,1.3317,1.3025,1.2378,1.2305,1.2298,1.2224,1.2224,1.2224,1.207,1.1922,1.1774,1.1626,1.1254,1.0738,1.0062,0.9679,0.914,0.838,0.8232,0.808,0.8003,0.7693,0.7544,0.7629,0.67,0.6391,0.6395,0.5532,0.5151,0.5165,0.446,0.4128,0.4216,0.5028,0.5344,0.5527,0.637,0.6719,0.6836,0.7059,0.7193,0.7382,0.8463,0.886,0.9118,1.0595,1.1284,1.1616,1.2231,1.2577,1.2911,1.3787,1.3477,1.325,1.4566,1.4085,1.336,1.336,1.3789,1.4048,1.4048,1.442,1.4309,1.2917,1.3871,1.4587,1.371,1.4192,1.4759,1.5007,1.5015,1.5022,1.5097,1.5792,1.5628,1.4302,1.539,1.5546,1.4058,1.5703,1.6129,1.4754,1.6627,1.6561,1.4048,1.4132,1.4132,1.4048,1.4132,1.4132,1.4048,1.4048,1.4048,0.6779,0.9894,1.2592,1.2806,1.2652,1.2579,1.3004,1.3295,1.3433,1.373,1.4019,1.4091,1.365,1.3939,1.4307,1.445,1.453,1.4458,1.4178,1.4178,1.4178,1.3818,1.3882,1.3947,1.3947,1.3455,1.3091,1.3091,1.2519,1.215,1.215,1.1855,1.1484,1.1037,1.0732,1.0351,0.9895,0.9825,0.9674,0.9453,0.8456,0.8232,0.8627,0.7783,0.7399,0.7399,0.6623,0.6311,0.6311,0.5922,0.5799,0.5855,0.6254,0.6424,0.6552,0.7369,0.776,0.7847,0.8346,0.8787,0.9308,1.001,1.0508,1.1043,1.194,1.2492,1.2838,1.3099,1.386,1.4685,1.5569,1.5808,1.6234,1.7284,1.7212,1.6976,1.6976,1.6175,1.5696,1.6577,1.6879,1.6782,1.6129,1.6277,1.6734,1.7363,1.7426,1.7985,1.9422,1.8813,1.8364,1.891,1.8444,1.8125,1.8347,1.8205,1.7974,1.7645,1.7929,1.7713,1.7066,1.8195,1.8364,1.7326,1.6429,1.5779,1.5448,1.5304,1.5304,1.5448,1.5448,1.5448,0.6939,0.9595,1.205,1.2858,1.2924,1.3063,1.4011,1.4299,1.4442,1.4585,1.5242,1.5675,1.5092,1.495,1.5029,1.5242,1.5242,1.518,1.5029,1.5108,1.5117,1.4966,1.51,1.5234,1.5234,1.4522,1.4099,1.4099,1.3448,1.2945,1.2659,1.2439,1.2291,1.207,1.1922,1.1774,1.17,1.1477,1.1037,1.0513,0.9448,0.915,0.9397,0.8551,0.8318,0.8466,0.7706,0.7322,0.7322,0.7322,0.7322,0.7322,0.7322,0.7406,0.7521,0.8077,0.8321,0.8443,0.9066,0.9722,1.0471,1.1035,1.1782,1.248,1.3003,1.3559,1.4076,1.4151,1.5151,1.6393,1.7365,1.7883,1.8452,1.9413,1.9344,1.9186,1.9256,1.8035,1.7139,1.8346,1.8885,1.9043,1.8506,1.855,1.9006,2.011,2.0014,2.0631,2.2713,2.1876,2.1344,2.2059,2.1125,2.0894,2.1669,2.0971,2.0575,2.0797,2.0187,1.9719,1.9552,1.9953,1.9963,1.9552,1.8656,1.7777,1.6814,1.6683,1.6683,1.6814,1.6814,1.6814,0.7419,0.8254,0.9546,1.1483,1.1396,1.1537,1.4227,1.518,1.5542,1.6053,1.6551,1.683,1.676,1.676,1.683,1.7028,1.689,1.6612,1.6237,1.6035,1.5754,1.5234,1.5163,1.5234,1.5234,1.5163,1.5092,1.5092,1.5092,1.4665,1.3673,1.3448,1.323,1.3164,1.2945,1.3011,1.339,1.2445,1.1484,1.0513,1.0438,1.0218,0.9846,0.9392,0.962,1.0288,0.9155,0.8623,0.8623,0.8623,0.8623,0.8623,0.8623,0.8632,0.8641,0.8641,0.8646,0.8688,0.8968,0.9503,1.0393,1.1505,1.2393,1.32,1.4109,1.504,1.587,1.6284,1.7223,1.8479,1.9653,1.952,1.9195,2.0226,1.952,1.8816,1.9186,1.9177,1.9177,1.9256,2.0469,2.0998,1.9158,2.0864,2.2027,2.0941,2.1441,2.2231,2.2883,2.2957,2.2883,2.2947,2.3452,2.3283,2.1845,2.3051,2.3209,2.1759,2.2499,2.2809,2.2136,2.236,2.1821,2.0352,2.1064,2.069,1.9097,1.9097,1.9097,1.9097,1.9097,1.9097,0.8116,0.8869,1.0071,1.1101,1.1892,1.2767,1.4173,1.5429,1.6473,1.6621,1.6899,1.7107,1.7107,1.7107,1.7107,1.7166,1.7245,1.7254,1.7107,1.7088,1.701,1.6862,1.6932,1.701,1.701,1.6437,1.607,1.607,1.5517,1.5021,1.4665,1.4593,1.4378,1.4099,1.4027,1.381,1.3535,1.2886,1.2378,1.2003,1.1768,1.1613,1.1391,1.0346,1.0051,1.0276,0.9685,0.976,1.0207,1.0207,1.0207,1.0207,1.0207,1.0207,1.0207,1.0207,1.0207,1.0223,1.0312,1.0872,1.1671,1.2254,1.3054,1.3796,1.4321,1.4691,1.5173,1.5747,1.6698,1.764,1.8703,1.9474,2.027,2.1362,2.1352,2.1114,2.1186,2.0982,2.1161,2.2221,2.2829,2.3051,2.236,2.2914,2.3379,2.3283,2.3452,2.3841,2.4576,2.4131,2.3756,2.3902,2.361,2.3379,2.343,2.3379,2.3452,2.3649,2.3526,2.3379,2.3283,2.3452,2.3379,2.2807,2.304,2.2157,2.006,2.0012,2.0012,2.006,2.0566,2.0566,0.8062,0.8585,0.9401,1.0204,1.1218,1.2383,1.4086,1.5342,1.6385,1.7148,1.7423,1.7628,1.7891,1.8027,1.8027,1.7765,1.7784,1.793,1.8327,1.8182,1.8104,1.8104,1.8066,1.8008,1.8008,1.7432,1.707,1.707,1.6507,1.6009,1.5658,1.5658,1.5517,1.5108,1.5108,1.4824,1.4178,1.3615,1.3258,1.3112,1.2652,1.2505,1.2505,1.1378,1.1013,1.1168,1.0956,1.0738,1.0738,1.0962,1.1111,1.1111,1.1111,1.1111,1.1111,1.1111,1.1111,1.1111,1.1391,1.1977,1.2753,1.3035,1.3784,1.4579,1.4592,1.4955,1.5498,1.6055,1.6985,1.7908,1.8644,1.9837,2.1037,2.1585,2.2127,2.2536,2.2536,2.2258,2.2277,2.3247,2.3745,2.3827,2.3615,2.3615,2.3885,2.4425,2.4378,2.459,2.5581,2.5087,2.4779,2.4862,2.4348,2.4204,2.4862,2.4348,2.4276,2.5087,2.4564,2.4409,2.4564,2.448,2.4409,2.448,2.448,2.3599,2.1735,2.1673,2.1683,2.1725,2.2232,2.2232,0.0,0.0,0.0,0.8788,0.915,1.0181,1.3894,1.4712,1.5263,1.7639,1.82,1.8469,1.9333,1.9661,1.9596,1.8957,1.87,1.89,1.9966,1.9365,1.89,1.9044,1.8462,1.8008,1.8008,1.8008,1.8008,1.8008,1.8008,1.7579,1.6706,1.6636,1.6437,1.6044,1.6193,1.6053,1.5534,1.476,1.4049,1.3535,1.3185,1.2966,1.2973,1.2505,1.2652,1.3193,1.2746,1.1632,1.0067,1.0812,1.1186,1.1186,1.1186,1.1186,1.1186,1.1186,1.1186,1.1323,1.2018,1.2816,1.3484,1.3708,1.4657,1.5604,1.5108,1.5956,1.7162,1.7429,1.8402,1.9504,1.9808,2.0684,2.1366,2.0935,2.168,2.2638,2.3164,2.2896,2.2502,2.2321,2.301,2.3423,2.2672,2.3033,2.3625,2.4136,2.4058,2.4398,2.5718,2.5861,2.5861,2.5861,2.5861,2.5861,2.5861,2.5873,2.5886,2.5886,2.5898,2.598,2.6213,2.5453,2.5158,2.5312,2.5312,2.4933,2.4192,2.412,2.4108,2.4108,2.4108,2.412,0.7729,0.0,0.0,0.0,0.0,0.0,1.1107,1.3546,1.5556,1.5721,1.7658,1.9267,1.9023,1.9552,2.0085,2.0409,2.002,1.977,2.0042,1.9901,1.9759,1.977,1.9177,1.8721,1.8721,1.8269,1.8008,1.8008,1.8008,1.7872,1.7647,1.7491,1.7295,1.7107,1.6751,1.6403,1.6053,1.5621,1.5188,1.476,1.4625,1.441,1.4129,1.331,1.3018,1.3171,1.2739,1.2298,1.1929,1.2526,1.2826,1.2826,1.2973,1.2973,1.2826,1.2973,1.3324,1.3658,1.3867,1.4498,1.528,1.5359,1.572,1.6097,1.5956,1.6237,1.6673,1.7278,1.7653,1.8242,1.9417,2.0367,2.1124,2.1525,2.2305,2.2946,2.3021,2.2959,2.3179,2.3908,2.4263,2.4406,2.4198,2.4275,2.439,2.4406,2.4352,2.448,2.4839,2.4785,2.4718,2.4863,2.4785,2.4718,2.4863,2.5154,2.5444,2.5702,2.5965,2.6201,2.6396,2.6176,2.6094,2.6176,2.6176,2.6094,2.5791,2.5229,2.4636,2.4108,2.4108,2.4696,0.8171,0.7965,0.7902,0.7825,0.0,0.0,1.0882,1.3221,1.5356,1.6528,1.8598,2.0257,2.0204,2.0613,2.1083,2.1526,2.121,2.0955,2.0955,2.0677,2.0549,2.0549,1.9901,1.9441,1.9441,1.8854,1.8395,1.8395,1.8134,1.8008,1.8008,1.7784,1.7647,1.747,1.7107,1.6751,1.6551,1.6202,1.5912,1.563,1.5346,1.5062,1.4848,1.4114,1.3753,1.3688,1.3477,1.3331,1.3258,1.3492,1.3572,1.3564,1.4065,1.4,1.371,1.4561,1.484,1.4966,1.5517,1.6149,1.6636,1.6715,1.712,1.7599,1.707,1.7522,1.817,1.8267,1.8536,1.9058,1.9966,2.0794,2.1467,2.1865,2.2567,2.3078,2.3017,2.3017,2.3265,2.3879,2.4054,2.4117,2.4117,2.4054,2.4079,2.424,2.4201,2.4288,2.4589,2.4536,2.4471,2.4613,2.4782,2.477,2.4613,2.5096,2.5456,2.5639,2.5838,2.6016,2.6149,2.6149,2.613,2.6168,2.6101,2.6214,2.6533,2.6025,2.5594,2.5134,2.5134,2.5569,0.8481,0.8485,0.8544,0.8183,0.8274,0.0,1.1733,1.3004,1.4566,1.788,1.9576,2.0628,2.1279,2.1444,2.1471,2.1471,2.1655,2.1913,2.2185,2.1663,2.1198,2.1198,2.0613,2.0226,2.0226,1.9573,1.911,1.911,1.8462,1.8076,1.8008,1.792,1.7784,1.7529,1.7382,1.7235,1.6908,1.6551,1.6342,1.6272,1.563,1.5275,1.5204,1.4848,1.4641,1.4569,1.4633,1.4561,1.4338,1.4072,1.3863,1.3783,1.4553,1.4561,1.4281,1.5745,1.5965,1.5613,1.6922,1.7472,1.7609,1.7765,1.8633,1.9431,1.8307,1.9333,2.0696,1.9944,2.0257,2.0899,2.106,2.1616,2.2101,2.2101,2.2616,2.3138,2.3185,2.3185,2.3198,2.3138,2.3138,2.3078,2.3078,2.3017,2.3131,2.3828,2.3829,2.3992,2.4633,2.476,2.4811,2.4811,2.529,2.5415,2.4874,2.5342,2.5743,2.5743,2.5746,2.5772,2.5772,2.5772,2.5754,2.5684,2.5696,2.5949,2.6536,2.6539,2.6533,2.6533,2.6533,2.6533,0.8354,0.8348,0.8659,0.8853,0.8757,0.0,0.9502,1.1152,1.2628,1.2834,1.5163,1.7091,1.6683,1.694,1.7161,1.7012,1.8503,2.0264,2.1975,2.2061,2.1999,2.1999,2.1336,2.0869,2.0869,2.0291,1.9901,1.9901,1.9243,1.8586,1.8008,1.8452,1.8375,1.7706,1.8037,1.791,1.7166,1.6899,1.6621,1.6272,1.5912,1.548,1.5204,1.548,1.5551,1.5551,1.5948,1.6149,1.6079,1.5259,1.4919,1.4848,1.4903,1.5251,1.5816,1.6167,1.6576,1.6991,1.7335,1.7891,1.8529,1.8596,1.9253,1.9966,1.9704,2.0279,2.0985,2.0869,2.0933,2.106,2.106,2.1616,2.2101,2.2101,2.2616,2.3258,2.378,2.3897,2.406,2.4509,2.3754,2.3078,2.3078,2.3078,2.3115,2.3228,2.371,2.4046,2.4222,2.4681,2.4958,2.4958,2.5087,2.5074,2.4958,2.5445,2.5786,2.5786,2.617,2.6425,2.6425,2.6425,2.6417,2.6414,2.6414,2.6467,2.6587,2.6537,2.6533,2.6533,2.6533,2.6533,0.8643,0.8575,0.8755,0.9139,0.8923,0.0,0.0,1.1498,1.2816,1.3327,1.5087,1.6468,1.6118,1.6215,1.6273,1.6206,1.7919,1.9749,2.1174,2.1854,2.2197,2.2197,2.1862,2.1663,2.1663,2.1008,2.0484,2.0096,1.977,1.9243,1.8529,1.8854,1.8777,1.823,1.8499,1.8499,1.8104,1.7978,1.7765,1.7354,1.6733,1.6315,1.6175,1.6175,1.6105,1.6105,1.6636,1.6844,1.6715,1.6158,1.6158,1.6515,1.5948,1.6018,1.6576,1.7404,1.7687,1.7755,1.8094,1.8586,1.8942,1.8942,1.9715,2.0549,2.0226,2.0794,2.1678,2.2002,2.2125,2.2125,2.2125,2.2372,2.2616,2.2616,2.3113,2.3721,2.4015,2.435,2.4624,2.4951,2.4496,2.4047,2.4047,2.4047,2.4047,2.4047,2.4337,2.4567,2.4567,2.4794,2.5007,2.5007,2.5245,2.5314,2.5021,2.5519,2.5881,2.5881,2.61,2.6266,2.6266,2.6266,2.6229,2.6221,2.6458,2.6607,2.6607,2.6601,2.657,2.657,2.657,2.657,0.8929,0.8783,0.8958,0.9402,0.9302,0.9524,0.0,0.0,0.0,1.447,1.5411,1.5939,1.5972,1.5843,1.5653,1.5661,1.7216,1.8592,1.9062,2.0385,2.1616,2.2519,2.242,2.2309,2.2482,2.1839,2.1123,2.042,2.0355,2.0031,1.9243,1.9299,1.9299,1.9034,1.9156,1.9156,1.9166,1.9034,1.8844,1.8576,1.7687,1.7276,1.7285,1.7079,1.6872,1.6784,1.7326,1.7463,1.7345,1.6991,1.7404,1.8104,1.712,1.6913,1.7257,1.8586,1.8664,1.8317,1.9054,1.9264,1.933,1.9452,2.0291,2.125,2.0794,2.1416,2.2433,2.2944,2.3078,2.3078,2.3078,2.3078,2.3138,2.3245,2.3721,2.4176,2.4408,2.4851,2.5189,2.53,2.5356,2.53,2.5063,2.5007,2.5007,2.5007,2.5077,2.5189,2.5189,2.53,2.5356,2.5356,2.577,2.5879,2.5412,2.577,2.6056,2.6056,2.6056,2.6056,2.6056,2.6056,2.6063,2.6015,2.6438,2.6626,2.6626,2.6685,2.663,2.6607,2.6607,2.6607,0.8651,0.8776,0.9145,0.9983,1.0136,1.0283,1.0778,0.0,1.1577,1.2081,0.0,1.2777,1.2818,0.0,0.0,1.1813,1.3469,1.46,1.4057,1.6287,1.9609,2.3722,2.316,2.2653,2.3339,2.2896,2.2161,2.1325,2.1262,2.0869,2.0031,2.0549,2.0613,1.9966,2.0398,2.0322,1.9727,1.9233,1.8977,1.8911,1.824,1.7901,1.7901,1.8172,1.8297,1.8297,1.8787,1.9065,1.8998,1.8172,1.8307,1.8865,1.7755,1.7959,1.8798,1.8808,1.8875,1.9065,1.9781,1.9977,2.0096,2.0677,2.1365,2.2113,2.2628,2.2884,2.3005,2.3078,2.3078,2.3078,2.3078,2.3078,2.3258,2.3839,2.406,2.4408,2.5439,2.5729,2.5948,2.65,2.6606,2.6272,2.5189,2.5007,2.5007,2.5007,2.5481,2.5784,2.5784,2.6272,2.6606,2.6606,2.6674,2.6674,2.6606,2.6674,2.6674,2.6674,2.6674,2.6674,2.6674,2.6674,2.6703,2.6722,2.6741,2.6769,2.6769,2.6876,2.6806,2.6607,2.6607,2.6668,0.8723,0.9491,1.0464,1.0645,1.1368,1.1927,1.1891,1.2153,1.2557,1.2961,0.0,0.0,0.0,0.0,0.0,0.0,1.4238,1.5566,1.569,1.7226,1.872,1.9732,1.949,1.9695,2.0843,2.1942,2.2359,2.1925,2.1913,2.1588,2.0741,2.0933,2.0996,2.0677,2.0933,2.0985,2.0921,2.0666,2.0355,1.9901,1.9309,1.9034,1.9034,1.8977,1.9034,1.9166,1.9528,1.9605,1.9473,1.9065,1.9131,1.9341,1.8844,1.8854,1.9075,1.9008,1.9008,1.9131,1.9386,1.9781,2.0291,2.1365,2.1865,2.2237,2.2884,2.3078,2.3078,2.3078,2.3078,2.3078,2.3078,2.3078,2.3245,2.3943,2.435,2.4851,2.5715,2.6179,2.65,2.6727,2.6779,2.6659,2.615,2.6042,2.6042,2.6042,2.6272,2.6394,2.6394,2.6621,2.6779,2.6779,2.6779,2.6779,2.6779,2.6779,2.6779,2.6779,2.6779,2.6779,2.6779,2.6779,2.6779,2.6779,2.6779,2.6779,2.6779,2.6846,2.6881,2.6806,2.6903,2.6958,0.8876,1.0183,1.1467,1.1658,1.2447,1.3146,1.3196,1.3486,1.3868,1.4416,1.4703,0.0,0.0,0.0,1.4514,1.4307,0.0,1.6303,1.6631,1.734,1.7868,1.773,1.7566,1.7762,1.8654,2.0647,2.1779,2.153,2.2149,2.2161,2.1463,2.14,2.14,2.14,2.14,2.1526,2.1851,2.1726,2.14,2.0764,2.0366,2.0107,2.0042,1.977,1.977,1.9901,2.0118,2.0064,1.9998,2.0118,2.0172,2.0107,1.9922,1.9715,1.9518,1.9452,1.9396,1.9462,1.977,2.0344,2.1112,2.2051,2.2359,2.2482,2.2944,2.3078,2.3078,2.3078,2.3078,2.3078,2.3078,2.3258,2.3543,2.4176,2.4794,2.5425,2.6002,2.65,2.6779,2.6779,2.6779,2.6779,2.6779,2.6779,2.6779,2.6779,2.6779,2.6779,2.6779,2.6779,2.6779,2.6779,2.6779,2.6779,2.6779,2.6779,2.6779,2.6779,2.6779,2.6779,2.6779,2.6779,2.6779,2.6779,2.6779,2.6779,2.6779,2.6846,2.6951,2.7055,2.7144,2.7181,0.8943,1.0447,1.1804,1.3172,1.3235,1.3317,1.4409,1.4631,1.4926,1.5846,1.6457,1.6635,1.6035,1.6349,1.6462,1.5773,1.55,0.0,0.0,1.473,1.651,2.0375,1.967,1.8551,1.7839,1.9382,2.0262,1.9824,2.1569,2.2567,2.2185,2.2185,2.2185,2.2185,2.2185,2.2185,2.2185,2.1851,2.1537,2.1158,2.1158,2.0967,2.0571,2.0571,2.0571,2.0571,2.0764,2.0828,2.0892,2.1376,2.1553,2.1491,2.0846,2.059,2.0526,2.042,2.0237,2.0226,2.1542,2.2433,2.3017,2.3065,2.3078,2.3078,2.3065,2.3078,2.3078,2.3078,2.3078,2.3078,2.3078,2.3603,2.4234,2.4851,2.5425,2.6056,2.6621,2.6779,2.6779,2.6779,2.6779,2.6779,2.6779,2.6779,2.6779,2.6779,2.6779,2.6779,2.6779,2.6779,2.6779,2.6779,2.6779,2.6779,2.6779,2.6779,2.6779,2.6779,2.6779,2.6779,2.6779,2.6779,2.6779,2.6779,2.6779,2.6779,2.6779,2.6951,2.7041,2.7181,2.7041,2.7159,0.587,0.9176,1.1942,1.2809,1.4707,1.6176,1.5396,1.5911,1.7056,1.8851,1.8312,1.7859,1.9011,1.8276,1.7311,1.6978,1.6978,1.6721,0.0,1.5271,1.5254,1.64,1.6717,1.6533,1.5852,1.8476,2.0114,1.9717,2.1444,2.2432,2.2197,2.2197,2.2197,2.2197,2.2197,2.2197,2.2197,2.2061,2.1851,2.1537,2.1537,2.1463,2.1336,2.1083,2.1198,2.1616,2.1565,2.169,2.1854,2.2163,2.2163,2.2027,2.1842,2.1604,2.1365,2.0794,2.0473,2.059,2.1978,2.2543,2.2689,2.3138,2.321,2.3078,2.3078,2.3078,2.3078,2.3078,2.3078,2.3198,2.3662,2.3943,2.4408,2.5453,2.5906,2.6244,2.6922,2.7078,2.7078,2.7078,2.7078,2.7078,2.7078,2.6989,2.6899,2.6779,2.6779,2.6779,2.6779,2.6779,2.6779,2.6779,2.6779,2.6779,2.6779,2.7041,2.7196,2.7196,2.7408,2.753,2.753,2.768,2.778,2.778,2.7978,2.8076,2.8076,2.8125,2.8174,2.8334,2.8286,2.8008,0.2372,0.7469,1.1783,1.2664,1.6152,1.9205,1.8547,1.9296,2.0556,2.2116,2.084,2.0007,2.1895,2.0012,1.8323,1.8805,1.8396,1.7658,0.0,1.5752,1.4959,1.4755,1.4894,1.4965,1.4985,1.7079,1.8771,1.9522,2.0744,2.1655,2.2185,2.2197,2.2197,2.2197,2.2197,2.2197,2.2197,2.2197,2.2111,2.1951,2.2087,2.2087,2.1951,2.1889,2.2002,2.2237,2.2421,2.2592,2.2761,2.3148,2.3195,2.3075,2.2834,2.2652,2.2421,2.1667,2.153,2.1791,2.2665,2.2932,2.2871,2.333,2.339,2.3318,2.3531,2.359,2.3649,2.3872,2.393,2.4047,2.4452,2.4738,2.5119,2.596,2.6336,2.6616,2.7115,2.7306,2.7444,2.7444,2.7444,2.7509,2.7695,2.7372,2.7041,2.6937,2.6884,2.6832,2.6846,2.6832,2.6832,2.6989,2.6989,2.7078,2.7152,2.7408,2.7575,2.7575,2.7645,2.778,2.7913,2.7997,2.8143,2.8288,2.8543,2.8685,2.8654,2.8685,2.8795,2.8904,2.8904,2.8622]},{"header":{"parameterUnit":"m.s-1","parameterCategory":1,"la1":30.6,"la2":29.2853,"lo1":-89.7004,"lo2":-87.6739,"dy":0.0162,"dx":0.0183,"nx":112,"ny":82,"refTime":"2023-05-17T00:00:00:Z","depth":0,"parameterNumber":3,"parameterNumberName":"V-component_of_WINDS"},"data":[0.0,0.0,0.0,0.0,0.0,0.0,0.0,0.0,0.0,0.0,0.0,0.0,0.0,0.0,0.0,0.0,0.0,0.0,0.0,0.0,0.0,0.0,0.0,0.0,0.0,0.0,0.0,0.0,0.0,0.0,0.0,0.0,0.0,0.0,0.0,0.0,0.0,0.0,0.0,0.0,0.0,0.0,0.0,0.0,0.0,0.0,0.0,0.0,0.0,0.0,0.0,0.0,0.0,0.0,0.0,0.0,0.0,0.0,0.0,0.0,0.0,0.0,0.0,0.0,0.0,0.0,0.0,0.0,0.0,0.0,0.0,0.0,0.0,0.0,0.0,0.0,0.0,0.0,0.0,0.0,0.0,0.0,0.0,0.0,0.0,0.0,0.0,0.0,0.0,0.0,1.751,0.7534,-1.0464,-2.2238,-2.3305,-2.9716,-2.5167,-0.5195,0.0,0.0,0.0,0.0,0.0,0.0,0.0,0.0,0.0,0.0,0.0,0.0,0.0,0.0,0.0,0.0,0.0,0.0,0.0,0.0,0.0,0.0,0.0,0.0,0.0,0.0,0.0,0.0,0.0,0.0,0.0,0.0,0.0,0.0,0.0,0.0,0.0,0.0,0.0,0.0,0.0,0.0,0.0,0.0,0.0,0.0,0.0,0.0,0.0,0.0,0.0,0.0,0.0,0.0,0.0,0.0,0.0,0.0,0.0,0.0,0.0,0.0,0.0,0.0,0.0,0.0,0.0,0.0,0.0,0.0,0.0,0.0,0.0,0.0,0.0,0.0,0.0,0.0,0.0,0.0,0.0,0.0,0.0,0.0,0.0,0.0,0.0,0.0,0.0,0.0,0.0,0.0,0.0,0.0,0.0,0.0,0.0,0.0,0.0,0.0,0.0,0.0,0.0,0.0,1.3728,-0.4381,-1.5563,-2.4342,-3.0896,-3.2703,-2.5381,-0.6279,0.0,0.0,0.0,0.0,0.0,0.0,0.0,0.0,0.0,0.0,0.0,0.0,0.0,0.0,0.0,0.0,0.0,0.0,0.0,0.0,0.0,0.0,0.0,0.0,0.0,0.0,0.0,0.0,0.0,0.0,0.0,0.0,0.0,0.0,0.0,0.0,0.0,0.0,0.0,0.0,0.0,0.0,0.0,0.0,0.0,0.0,0.0,0.0,0.0,0.0,0.0,0.0,0.0,0.0,0.0,0.0,0.0,0.0,0.0,0.0,0.0,0.0,0.0,0.0,0.0,0.0,0.0,0.0,0.0,0.0,0.0,0.0,0.0,0.0,0.0,0.0,0.0,0.0,0.0,0.0,0.0,0.0,0.0,0.0,0.0,0.0,0.0,0.0,0.0,0.0,0.0,0.0,0.0,0.0,0.0,0.0,0.0,0.0,0.0,0.0,0.0,0.0,0.0,1.25,0.2436,-0.8309,-2.0596,-2.944,-3.2991,-3.3375,-2.5552,-0.7009,-0.5577,0.0,0.0,0.0,0.0,0.0,0.0,0.0,0.0,0.0,0.0,0.0,0.0,0.0,0.0,0.0,0.0,0.0,0.0,0.0,0.0,0.0,0.0,0.0,0.0,0.0,0.0,0.0,0.0,0.0,0.0,0.0,0.0,0.0,0.0,0.0,0.0,0.0,0.0,0.0,0.0,0.0,0.0,0.0,0.0,0.0,0.0,0.0,0.0,0.0,0.0,0.0,0.0,0.0,0.0,0.0,0.0,0.0,0.0,0.0,0.0,0.0,0.0,0.0,0.0,0.0,0.0,0.0,0.0,0.0,0.0,0.0,0.0,0.0,0.0,0.0,0.0,0.0,0.0,0.0,0.0,0.0,0.0,0.0,0.0,0.0,0.0,0.0,0.0,0.0,0.0,0.0,0.0,0.0,0.0,0.0,0.0,0.0,0.0,0.0,0.0,0.0,0.0,0.3856,-0.7188,-0.9442,-2.3831,-3.328,-3.3274,-3.3304,-2.6383,-1.0098,-0.9156,0.0,0.0,0.0,0.0,0.0,0.0,0.0,0.0,0.0,0.0,0.0,0.0,0.0,0.0,0.0,0.0,0.0,0.0,0.0,0.0,0.0,0.0,0.0,0.0,0.0,0.0,0.0,0.0,0.0,0.0,0.0,0.0,0.0,0.0,0.0,0.0,0.0,0.0,0.0,0.0,0.0,0.0,0.0,0.0,0.0,0.0,0.0,0.0,0.0,0.0,0.0,0.0,0.0,0.0,0.0,0.0,0.0,0.0,0.0,0.0,0.0,0.0,0.0,0.0,0.0,0.0,0.0,0.0,0.0,0.0,0.0,0.0,0.0,0.0,0.0,0.0,0.0,0.0,0.0,0.0,0.0,0.0,0.0,0.0,0.0,0.0,0.0,0.0,0.0,0.0,0.0,0.0,0.0,0.0,0.0,0.0,0.0,0.0,0.0,0.0,0.0,0.0,0.1484,-0.9629,-0.9358,-2.3655,-3.3129,-3.2948,-3.3073,-2.8555,-1.7857,-1.7129,0.0,0.0,0.0,0.0,0.0,0.0,0.0,0.0,0.0,0.0,0.0,0.0,0.0,0.0,0.0,0.0,0.0,0.0,0.0,0.0,0.0,0.0,0.0,0.0,0.0,0.0,0.0,0.0,0.0,0.0,0.0,0.0,0.0,0.0,0.0,0.0,0.0,0.0,0.0,0.0,0.0,0.0,0.0,0.0,0.0,0.0,0.0,0.0,0.0,0.0,0.0,0.0,0.0,0.0,0.0,0.0,0.0,0.0,0.0,0.0,0.0,0.0,0.0,0.0,0.0,0.0,0.0,0.0,0.0,0.0,0.0,0.0,0.0,0.0,0.0,0.0,0.0,0.0,0.0,0.0,0.0,0.0,0.0,0.0,0.0,0.0,0.0,0.0,0.0,0.0,0.0,0.0,0.0,0.0,0.0,0.0,0.0,0.0,0.0,0.0,0.0,0.0,0.5766,-0.3694,-0.8732,-1.9054,-2.7576,-3.2485,-3.3024,-2.6928,-1.2359,0.0,0.0,0.0,0.0,0.0,0.0,0.0,0.0,0.0,0.0,0.0,0.0,0.0,0.0,0.0,0.0,0.0,0.0,0.0,0.0,0.0,0.0,0.0,0.0,0.0,0.0,0.0,0.0,0.0,0.0,0.0,0.0,0.0,0.0,0.0,0.0,0.0,0.0,0.0,0.0,0.0,0.0,0.0,0.0,0.0,0.0,0.0,0.0,0.0,0.0,0.0,0.0,0.0,0.0,0.0,0.0,0.0,0.0,0.0,0.0,0.0,0.0,0.0,0.0,0.0,0.0,0.0,0.0,0.0,0.0,0.0,0.0,0.0,0.0,0.0,0.0,0.0,0.0,0.0,0.0,0.0,0.0,0.0,0.0,0.0,0.0,0.0,0.0,0.0,0.0,0.0,0.0,0.0,0.0,0.0,0.0,0.0,0.0,0.0,0.0,0.0,0.0,1.5396,0.7934,0.0477,-0.5173,-1.4869,-2.3087,-2.8571,-3.1352,-2.6502,-1.1613,0.0,0.0,0.0,0.0,0.0,0.0,0.0,0.0,0.0,0.0,0.0,0.0,0.0,0.0,0.0,0.0,0.0,0.0,0.0,0.0,0.0,0.0,0.0,0.0,0.0,0.0,0.0,0.0,0.0,0.0,0.0,0.0,0.0,0.0,0.0,0.0,0.0,0.0,0.0,0.0,0.0,0.0,0.0,0.0,0.0,0.0,0.0,0.0,0.0,0.0,0.0,0.0,0.0,0.0,0.0,0.0,0.0,0.0,0.0,0.0,0.0,0.0,0.0,0.0,0.0,0.0,0.0,0.0,0.0,0.0,0.0,0.0,0.0,0.0,0.0,0.0,0.0,0.0,0.0,0.0,0.0,0.0,0.0,0.0,0.0,0.0,0.0,0.0,0.0,0.0,0.0,0.0,0.0,0.0,0.0,0.0,0.0,0.0,0.0,0.0,0.0,0.0,1.4824,0.6988,0.1537,0.1805,-1.1541,-2.0487,-2.0697,-2.776,-2.795,0.0,0.0,0.0,0.0,0.0,0.0,0.0,0.0,0.0,0.0,0.0,0.0,0.0,0.0,0.0,0.0,0.0,0.0,0.0,0.0,0.0,0.0,0.0,0.0,0.0,0.0,0.0,0.0,0.0,0.0,0.0,0.0,0.0,0.0,0.0,0.0,0.0,0.0,0.0,0.0,0.0,0.0,0.0,0.0,0.0,0.0,0.0,0.0,0.0,0.0,0.0,0.0,0.0,0.0,0.0,0.0,0.0,0.0,0.0,0.0,0.0,0.0,0.0,0.0,0.0,0.0,0.0,0.0,0.0,0.0,0.0,0.0,0.0,0.0,0.0,0.0,0.0,0.0,0.0,0.0,0.0,0.0,0.0,0.0,0.0,0.0,0.0,0.0,0.0,0.0,0.0,0.0,0.0,0.0,0.0,0.0,0.0,0.0,0.0,0.0,0.0,0.0,0.0,1.4377,1.1853,0.7976,0.2437,-0.2024,-0.8938,-1.9597,-2.285,-2.0116,-1.0282,0.0,0.0,0.0,0.0,0.0,0.0,0.0,0.0,0.0,0.0,0.0,0.0,0.0,0.0,0.0,0.0,0.0,0.0,0.0,0.0,0.0,0.0,0.0,0.0,0.0,0.0,0.0,0.0,0.0,0.0,0.0,0.0,0.0,0.0,0.0,0.0,0.0,0.0,0.0,0.0,0.0,0.0,0.0,0.0,0.0,0.0,0.0,0.0,0.0,0.0,0.0,0.0,0.0,0.0,0.0,0.0,0.0,0.0,0.0,0.0,0.0,0.0,0.0,0.0,0.0,0.0,0.0,0.0,0.0,0.0,0.0,0.0,0.0,0.0,0.0,0.0,0.0,0.0,0.0,0.0,0.0,0.0,0.0,0.0,0.0,0.0,0.0,0.0,0.0,0.0,0.0,0.0,0.0,0.0,0.0,0.0,0.0,0.0,0.0,0.0,0.0,0.0,1.3901,1.3397,1.1188,0.6317,0.3209,-0.3285,-1.4932,-1.8993,-1.8124,-1.1618,0.0,0.0,0.0,0.0,0.0,0.0,0.0,0.0,0.0,0.0,0.0,0.0,0.0,0.0,0.0,0.0,0.0,0.0,0.0,0.0,0.0,0.0,0.0,0.0,0.0,0.0,0.0,0.0,0.0,0.0,0.0,0.0,0.0,0.0,0.0,0.0,0.0,0.0,0.0,0.0,0.0,0.0,0.0,0.0,0.0,0.0,0.0,0.0,0.0,0.0,0.0,0.0,0.0,0.0,0.0,0.0,0.0,0.0,0.0,0.0,0.0,0.0,0.0,0.0,0.0,0.0,0.0,0.0,0.0,0.0,0.0,0.0,0.0,0.0,0.0,0.0,0.0,0.0,0.0,0.0,0.0,0.0,0.0,0.0,0.0,0.0,0.0,0.0,0.0,0.0,0.0,0.0,0.0,0.0,0.0,0.0,0.0,0.0,0.0,0.0,0.0,0.0,1.3489,1.26,1.1929,1.1781,0.562,-0.1152,-0.7844,-1.5351,-1.911,-1.7683,0.0,0.0,0.0,0.0,0.0,0.0,0.0,0.0,0.0,0.0,0.0,0.0,0.0,0.0,0.0,0.0,0.0,0.0,0.0,0.0,0.0,0.0,0.0,0.0,0.0,0.0,0.0,0.0,0.0,0.0,0.0,0.0,0.0,0.0,0.0,0.0,0.0,0.0,0.0,0.0,0.0,0.0,0.0,0.0,0.0,0.0,0.0,0.0,0.0,0.0,0.0,0.0,0.0,0.0,0.0,0.0,0.0,0.0,0.0,0.0,1.5935,1.5566,0.0,0.0,0.0,0.0,0.0,0.0,0.0,0.0,0.0,0.0,0.0,0.0,0.0,0.0,0.0,0.0,0.0,0.0,0.0,0.0,0.0,0.0,0.0,0.0,0.0,0.0,0.0,0.0,0.0,0.0,0.0,0.0,0.0,0.0,0.0,0.0,0.0,0.0,0.0,0.0,1.381,1.2749,1.1983,1.1929,1.0244,0.5899,-0.1878,-0.8236,-1.1707,-1.1325,-1.8216,0.0,0.0,0.0,0.0,0.0,0.0,0.0,0.0,0.0,0.0,0.0,0.0,0.0,0.0,0.0,0.0,0.0,0.0,0.0,0.0,0.0,0.0,0.0,0.0,0.0,0.0,0.0,0.0,0.0,0.0,0.0,0.0,0.0,0.0,0.0,0.0,0.0,0.0,0.0,0.0,0.0,0.0,0.0,0.0,0.0,0.0,0.0,0.0,0.0,0.0,0.0,0.0,0.0,0.0,0.0,0.0,0.0,0.0,0.0,1.6721,1.6648,0.0,0.0,0.0,0.0,0.0,0.0,0.0,0.0,0.0,0.0,0.0,0.0,0.0,0.0,0.0,0.0,0.0,0.0,0.0,0.0,0.0,0.0,0.0,0.0,0.0,0.0,0.0,0.0,0.0,0.0,0.0,0.0,0.0,0.0,0.0,0.0,0.0,0.0,0.0,0.0,1.3727,1.26,1.1768,1.1558,1.1037,0.7603,-0.0067,-0.3761,-0.7205,-1.0965,-1.3158,0.0,0.0,0.0,0.0,0.0,0.0,0.0,0.0,0.0,0.0,0.0,0.0,0.0,0.0,0.0,0.0,0.0,0.0,0.0,0.0,0.0,0.0,0.0,0.0,0.0,0.0,0.0,0.0,0.0,0.0,0.0,0.0,0.0,0.0,0.0,0.0,0.0,0.0,0.0,0.0,0.0,0.0,0.0,0.0,0.0,0.0,0.0,0.0,0.0,0.0,0.0,0.0,0.0,1.6536,1.6484,1.6354,1.5738,1.6341,1.7726,1.756,1.7943,1.866,1.7611,0.0,0.0,0.0,0.0,0.0,0.0,0.0,0.0,0.0,0.0,0.0,0.0,0.0,0.0,0.0,0.0,0.0,0.0,0.0,0.0,0.0,0.0,1.7349,1.7789,1.7832,1.7569,1.69,0.0,0.0,0.0,0.0,0.0,0.0,0.0,0.0,0.0,0.0,0.0,1.3384,1.2281,1.1409,1.1186,1.0368,0.7465,0.1437,-0.0741,-0.459,-1.1187,-0.768,-0.5082,0.0,0.0,0.0,0.0,0.0,0.0,0.0,0.0,0.0,0.0,0.0,0.0,0.0,0.0,0.0,0.0,0.0,0.0,0.0,0.0,0.0,0.0,0.0,0.0,0.0,0.0,0.0,0.0,0.0,0.0,0.0,0.0,1.6716,1.6569,0.0,0.0,0.0,0.0,0.0,0.0,0.0,0.0,0.0,0.0,0.0,0.0,0.0,1.6269,1.6319,1.5827,1.5897,1.6466,1.604,1.6098,1.6684,1.6968,1.7236,1.7479,1.7429,0.0,1.8705,1.8519,0.0,0.0,0.0,0.0,0.0,0.0,0.0,0.0,0.0,0.0,0.0,0.0,0.0,0.0,0.0,0.0,0.0,0.0,0.0,0.0,0.0,0.0,1.9104,1.7757,1.7532,1.7493,1.6629,1.6767,1.7163,1.7437,1.6599,1.6008,0.0,0.0,0.0,0.0,0.0,0.0,1.3216,1.186,1.1037,1.1335,1.0293,0.902,0.7592,0.1261,-0.3502,-0.5403,-0.8503,-0.8893,-0.577,-0.3504,0.0,0.0,0.0,0.0,0.0,0.0,0.0,0.0,0.0,0.0,0.0,0.0,0.0,0.0,0.0,0.0,0.0,0.0,0.0,0.0,0.0,0.0,0.0,0.0,0.0,0.0,0.0,0.0,0.0,1.5785,1.5677,1.5802,1.4689,1.3795,0.0,0.0,0.0,0.0,0.0,0.0,0.0,0.0,0.0,1.5968,1.6293,1.648,1.6516,1.6267,1.6346,1.6589,1.6332,1.6402,1.6738,1.6902,1.7147,1.7392,1.7392,1.7705,1.825,1.7787,1.751,1.7346,0.0,0.0,0.0,0.0,1.7495,1.7653,1.8378,1.8703,1.8748,1.8559,0.0,0.0,0.0,0.0,0.0,0.0,0.0,1.8667,1.832,1.8448,1.8433,1.7382,1.696,1.6675,1.6241,1.6179,1.631,1.6723,1.6532,1.6372,1.6785,1.587,0.0,0.0,0.0,1.321,1.3083,1.2025,1.126,1.126,1.0368,0.9458,0.8756,0.5067,0.2409,0.1467,-0.2788,-0.4608,-0.3162,-0.2935,-0.1622,0.0,0.0,0.0,0.0,0.0,0.0,0.0,0.0,0.0,0.0,0.0,0.0,0.0,0.0,0.0,0.0,0.0,0.0,0.0,0.0,0.0,0.0,0.0,0.0,0.0,0.0,0.0,0.0,1.5836,1.5733,1.5753,1.5244,1.4525,0.0,0.0,0.0,0.0,0.0,0.0,1.5594,1.5761,1.5992,1.6333,1.6509,1.6637,1.673,1.673,1.673,1.673,1.673,1.673,1.6894,1.6738,1.6984,1.7392,1.731,1.7473,1.7853,1.7405,1.7525,1.7813,1.7604,1.7567,1.7635,1.7957,1.8042,1.8154,1.8982,1.9324,1.9487,1.9564,1.9659,1.9591,1.9106,0.0,0.0,0.0,0.0,1.9031,1.8425,1.8048,1.7567,1.6814,1.6319,1.5996,1.5821,1.5779,1.5799,1.5946,1.6114,1.6276,1.6603,1.5539,0.0,1.5624,1.415,1.2854,1.2707,1.2072,1.1484,1.1037,1.0293,0.9533,0.8912,0.7621,0.6475,0.5857,0.217,-0.0232,-0.0774,-0.1989,-0.2597,-0.2549,0.0,0.0,0.0,0.0,0.0,0.0,0.0,0.0,0.0,0.0,0.0,0.0,0.0,0.0,0.0,0.0,0.0,0.0,0.0,0.0,0.0,0.0,0.0,0.0,0.0,0.0,0.0,0.0,0.0,1.7705,1.7156,0.0,0.0,0.0,0.0,1.5133,1.4394,1.459,1.6071,1.5071,1.517,1.6624,1.6706,1.6714,1.673,1.673,1.673,1.673,1.673,1.6902,1.731,1.6894,1.6984,1.7392,1.6902,1.6984,1.7473,1.8273,1.8006,1.709,1.7535,1.7025,1.6285,1.7527,1.8026,1.8186,1.9423,1.9835,1.9913,2.0157,1.9966,1.9715,1.9696,1.9247,0.0,0.0,1.9696,1.9392,1.8276,1.7971,1.7577,1.5906,1.5582,1.5734,1.5652,1.6137,1.6372,1.546,1.4944,1.4844,1.53,0.0,1.501,1.4287,1.3953,1.3249,1.1937,1.1545,1.126,1.0887,1.0067,0.9539,0.9296,0.7069,0.5687,0.5607,0.3191,0.109,-0.0545,-0.175,-0.1988,-0.124,-0.158,0.0,0.0,0.0,0.0,0.0,0.0,0.0,0.0,0.0,0.0,0.0,0.0,0.0,0.0,0.0,0.0,0.0,0.0,0.0,0.0,0.0,0.0,0.0,0.0,0.0,0.0,0.0,0.0,1.7613,1.7393,0.0,1.613,1.5948,1.584,1.584,1.5614,1.5703,1.6296,1.5906,1.5966,1.6476,1.6648,1.673,1.673,1.673,1.673,1.673,1.6984,1.7229,1.7392,1.7473,1.7627,1.7797,1.7627,1.7627,1.7797,1.8451,1.8451,1.8112,1.8273,1.8247,1.8149,1.8647,1.8816,1.8895,1.9381,1.9706,1.9942,2.0333,2.0391,2.0275,2.0275,2.0081,1.9984,2.0226,2.0275,1.9907,1.8364,1.7997,1.7594,1.5831,1.5423,1.5434,1.5291,1.5444,1.5415,1.4943,1.5215,1.5562,1.5583,1.492,1.4277,1.4253,1.3401,1.2521,1.1613,1.1409,1.1111,1.0293,0.9997,0.9539,0.8927,0.777,0.693,0.6853,0.4433,0.2646,0.1637,-0.0797,-0.2108,-0.2203,-0.3503,-0.1805,0.0,0.0,0.0,0.0,0.0,0.0,0.0,0.0,0.0,0.0,0.0,0.0,0.0,0.0,0.0,0.0,0.0,0.0,0.0,0.0,0.0,0.0,0.0,0.0,0.0,1.8387,1.8875,1.7657,1.7916,1.7735,1.6547,1.6418,1.6381,1.6381,1.6351,1.6394,1.6484,1.6476,1.6394,1.6484,1.6648,1.673,1.673,1.673,1.682,1.6902,1.7229,1.7554,1.7806,1.7959,1.8121,1.8201,1.804,1.8121,1.8282,1.8531,1.8772,1.8931,1.8931,1.9082,1.9301,1.9301,1.9301,1.939,1.946,1.9706,2.0098,2.042,2.0566,2.0566,2.0566,2.0566,2.0566,2.0566,2.0566,2.0167,1.8479,1.7997,1.7594,1.5831,1.5343,1.5198,1.496,1.4896,1.4804,1.4607,1.5046,1.5534,1.5409,1.4697,1.4186,1.4522,1.3382,1.2372,1.2131,1.162,1.0962,1.0218,0.9916,0.9539,0.8851,0.8537,0.8156,0.7633,0.6207,0.4748,0.3467,0.1502,0.0,-0.0832,-0.2382,-0.1091,0.328,0.0,0.0,0.0,0.0,0.0,0.0,0.0,0.0,0.0,0.0,0.0,0.0,0.0,0.0,0.0,0.0,0.0,0.0,0.0,0.0,0.0,0.0,0.0,1.9274,1.996,1.9955,1.8018,1.8879,1.8798,1.6632,1.6648,1.673,1.673,1.6476,1.6476,1.6648,1.6476,1.6476,1.6648,1.673,1.673,1.673,1.673,1.6984,1.7392,1.7392,1.7887,1.87,1.8201,1.8282,1.87,1.8201,1.8282,1.87,1.87,1.8922,1.9301,1.9301,1.9301,1.9301,1.9301,1.9469,1.9636,1.9863,2.0108,2.0264,2.0342,2.042,2.0566,2.0566,2.0566,2.0566,2.0566,2.0566,2.0167,1.8479,1.7997,1.7602,1.5831,1.5174,1.4853,1.4766,1.466,1.4544,1.4423,1.4497,1.4569,1.4569,1.4569,1.4705,1.5092,1.389,0.0,1.3273,1.205,1.0962,1.0588,1.0067,0.9539,0.915,0.9432,0.9125,0.7931,0.8295,0.7431,0.4743,0.5015,0.4496,0.3055,0.1856,0.1606,0.2238,0.0,0.0,0.0,0.0,0.0,0.0,0.0,0.0,0.0,0.0,0.0,0.0,0.0,0.0,0.0,0.0,0.0,0.0,0.0,0.0,0.0,1.9507,2.0429,2.0194,2.0781,2.1014,2.0515,1.9534,1.8736,1.8086,1.7212,1.673,1.673,1.6476,1.6476,1.6648,1.6476,1.6476,1.6648,1.7066,1.7229,1.7229,1.7473,1.7716,1.7878,1.821,1.846,1.87,1.8834,1.8984,1.9152,1.8984,1.8984,1.9152,1.9152,1.9311,1.9478,1.9381,1.939,1.9557,1.9557,1.9627,1.9872,2.0108,2.0264,2.0342,2.0498,2.0566,2.0566,2.0566,2.0566,2.0566,2.0566,2.0566,2.0323,1.9213,1.8487,1.7755,1.6624,1.5568,1.4853,1.4766,1.466,1.4544,1.4423,1.4497,1.4569,1.4569,1.4569,1.4346,1.3615,1.3185,1.2592,1.1835,1.1471,1.1471,1.1877,1.1951,1.1723,1.1131,1.1033,1.0375,0.8765,0.8358,0.7588,0.6291,0.5033,0.3468,0.1392,0.2749,0.3405,0.0,0.0,0.0,0.0,0.0,0.0,0.0,0.0,0.0,0.0,0.0,0.0,0.0,0.0,0.0,0.0,0.0,0.0,0.0,0.0,0.0,0.0,2.0744,2.1635,2.1583,2.169,2.1568,2.1165,1.9913,1.8895,1.8425,1.7708,1.7221,1.7221,1.6976,1.6976,1.7221,1.6976,1.6976,1.7221,1.7473,1.7635,1.7635,1.7878,1.8121,1.8282,1.854,1.8772,1.8922,1.9222,1.9301,1.9301,1.9301,1.9301,1.9301,1.939,1.9478,1.9557,0.0,0.0,0.0,0.0,1.9951,2.0108,2.0333,2.042,2.0411,2.0566,2.0566,2.0566,2.0566,2.0654,2.0731,2.0731,2.0809,2.0644,1.9766,1.9195,1.847,1.7261,1.6157,1.5372,1.4962,1.4698,1.4522,1.44,1.4497,0.0,1.4848,1.4705,1.4489,1.4186,1.3404,1.2739,1.2352,1.1768,1.1545,1.1964,1.2037,1.1964,1.1588,1.1797,0.0,0.0,0.0,0.8978,0.8045,0.6798,0.0,0.0,0.0,0.4822,0.3398,0.5062,0.0,0.0,0.5349,0.5841,0.0,0.0,0.0,0.0,0.0,0.0,0.0,0.0,0.0,0.0,0.0,0.0,0.0,0.0,0.0,0.0,2.2077,2.3001,2.3001,2.2478,2.17,2.0663,1.9972,1.9213,1.8201,1.804,1.804,1.804,1.7635,1.7635,1.7959,1.7635,0.0,0.0,0.0,1.804,1.804,1.8121,1.8362,1.8772,1.878,1.9011,1.9301,1.9381,1.9381,1.9381,1.9381,1.9381,1.9381,1.9557,1.9645,1.9715,1.9715,1.9794,1.9942,2.0264,2.0342,2.0342,2.0566,0.0,0.0,2.0566,2.0644,2.0644,2.0644,2.0741,2.0906,2.0906,2.1061,2.1041,2.0226,1.9982,1.9492,1.7768,1.6826,1.6084,1.5242,1.4664,1.4425,1.4425,1.4569,1.4776,1.5133,1.4919,1.4919,1.5621,1.4114,1.3178,1.3795,1.2425,1.1484,1.1552,1.1477,0.0,1.1329,1.205,1.1842,1.0402,1.0875,1.0718,0.9572,0.9206,0.8379,0.7116,0.6922,0.5591,0.3135,0.3221,0.2955,0.2419,0.5689,0.6136,0.0,0.0,0.0,0.0,0.0,0.0,0.0,0.0,0.0,0.0,0.0,0.0,0.0,0.0,0.0,2.0935,2.2161,2.3001,2.3001,2.2478,2.1863,2.1155,2.0226,1.9292,1.8612,1.8201,1.804,1.804,1.7959,1.7959,1.804,1.7959,1.7959,1.804,1.8371,1.8531,1.8531,1.8913,1.9063,1.9152,1.932,0.0,1.9557,1.9706,1.9784,1.9784,1.9784,1.9784,1.9784,1.9863,1.9942,2.0186,2.0186,2.0186,2.0264,2.0489,2.0566,2.0566,2.0566,2.0566,2.0566,2.0566,2.0731,2.0829,2.0829,2.0974,0.0,2.1128,2.1205,2.1128,2.0964,2.0391,1.9575,1.8231,1.7098,1.6019,1.494,1.4576,1.4425,1.4425,1.4776,1.5133,1.5204,1.5133,1.5054,1.5046,1.4178,1.3382,1.2931,1.2137,1.1916,1.2691,1.3055,1.3128,1.2983,1.3273,1.2728,1.1106,1.0519,0.9834,0.8811,0.8541,0.7952,0.7131,0.637,0.5515,0.4563,0.4026,0.358,0.3312,0.3451,0.3181,0.0,0.0,0.0,0.0,0.0,0.0,0.0,0.0,0.0,0.0,0.0,1.8949,1.9158,0.0,2.0866,2.1582,2.2396,2.3001,2.3001,2.2777,2.2327,2.1711,2.0615,1.9766,1.9469,1.8993,1.8665,1.8665,1.8442,1.8442,1.8674,1.8442,1.8442,1.8665,1.9002,1.917,1.917,1.9469,1.9618,1.9618,1.9715,1.9715,1.9715,1.9863,1.9863,1.9863,1.9863,1.9863,1.9942,2.002,2.0264,2.0411,2.0411,2.0411,2.0489,2.0566,2.0566,2.0566,2.0566,2.0566,2.0644,2.0731,2.0819,2.0906,2.0984,2.1205,2.1359,2.1359,2.1436,2.1502,2.1502,2.1185,2.0507,1.9307,1.8122,1.6905,1.5741,1.5098,1.4776,1.4776,1.5204,1.5551,1.57,1.5771,1.563,1.5401,1.4752,1.4178,1.381,1.3011,1.2645,1.307,1.3077,1.2931,1.2858,1.3012,1.2699,1.1804,1.1178,1.0408,0.9497,0.8982,0.8368,0.7669,0.6871,0.6163,0.5539,0.5272,0.4828,0.4293,0.4202,0.358,0.0,0.0,0.0,0.0,0.0,0.0,0.0,1.9734,1.9593,1.9647,1.9817,2.0006,2.0292,2.069,2.1252,2.2143,2.2692,2.2966,2.299,2.3075,2.2927,2.2327,2.1252,2.0547,2.0401,1.9854,1.946,1.946,1.9082,1.8922,1.9301,1.9002,1.9002,1.939,1.9548,1.9636,1.9636,1.9784,1.9863,1.9863,1.9942,1.9942,1.9942,2.002,2.002,2.002,2.0108,2.0098,2.0098,2.0342,2.0576,2.0722,2.0722,2.0722,2.0722,2.0644,2.0566,2.0644,2.0644,2.0654,2.0654,2.0906,2.0984,2.1061,2.1205,2.1436,2.1578,2.1578,2.1655,2.1807,2.1883,2.1883,2.1511,2.0202,1.9206,1.8146,1.6674,1.5914,1.5409,1.5338,1.5621,1.5982,1.6272,1.6342,1.6342,1.6053,1.5471,1.5046,1.5046,1.4099,1.3375,1.3164,1.2872,1.2686,1.26,1.2573,1.2508,1.2288,1.1939,1.1297,1.0371,0.9763,0.9065,0.8288,0.7669,0.7048,0.6334,0.6517,0.6163,0.5453,0.5808,0.5006,1.5084,1.5365,1.7441,1.9652,1.9659,1.9923,0.0,2.2393,2.1675,2.2583,2.2262,2.18,2.1881,2.1375,2.1243,2.2171,2.2623,2.2945,2.301,2.3298,2.3372,2.2927,2.2327,2.1711,2.1165,2.0469,2.0089,2.0089,1.9539,1.9222,1.9301,1.9399,1.9487,1.9557,1.9794,1.9863,1.9863,1.9863,1.9863,1.9863,2.0108,2.0264,2.0264,2.0411,2.0489,2.0566,2.0741,2.0751,2.0829,2.0974,2.1128,2.1128,2.1128,2.1128,2.1128,2.0722,2.0566,2.0644,2.0819,2.0906,2.0906,2.1128,2.1282,2.1436,2.1436,2.1578,2.1807,2.1807,2.1807,2.1807,2.2025,2.2101,2.172,2.0234,1.9765,1.9147,1.7031,1.65,1.6324,1.5833,1.5982,1.6272,1.6272,1.6621,1.6839,1.676,1.6184,1.5613,1.5463,1.4673,1.3875,1.3011,1.3585,1.3996,1.3708,1.32,1.2751,1.2312,1.2108,1.1472,1.0381,1.0202,0.968,0.8548,0.8197,0.7845,0.7309,0.7136,0.6962,0.6874,0.6962,0.6071,1.8978,1.8386,1.8918,2.1834,2.2288,2.2472,2.3897,2.369,2.327,2.3454,2.2967,2.2432,2.2036,2.1697,2.1599,2.2014,2.2445,2.2865,2.3172,2.3394,2.3568,2.3706,2.3446,2.299,2.2155,2.1318,2.0779,2.0769,2.0313,1.9932,1.9627,1.9706,1.9784,1.9784,2.0029,2.0098,2.0098,2.0255,2.0342,2.0508,2.0586,2.0741,2.0819,2.1395,2.1907,2.2264,2.236,2.2145,2.1787,2.1852,2.1634,2.1205,2.1205,2.1205,2.1205,2.1041,2.0964,2.0964,2.1051,2.1051,2.1138,2.1282,2.1436,2.1512,2.1655,2.1731,2.1807,2.1807,2.1807,2.1883,2.2025,2.2101,2.187,2.0782,2.0186,1.9494,1.8007,1.7285,1.6802,1.6594,1.6612,1.663,1.663,1.6769,1.6908,1.6908,1.6621,1.6403,1.6333,1.5675,1.4816,1.3947,1.4421,1.484,1.4957,1.4956,1.4741,1.4338,1.4212,1.3438,1.1923,1.1746,1.1052,0.9593,0.9248,0.9069,0.9139,0.8193,0.8017,0.8536,0.7845,0.7139,2.1027,2.078,2.0897,2.3275,2.4073,2.4247,2.4363,2.435,2.4305,2.3989,2.3458,2.2919,2.2372,2.2135,2.2069,2.1904,2.2414,2.2887,2.3144,2.3294,2.3432,2.3729,2.3902,2.3765,2.3088,2.2296,2.1756,2.1735,2.1298,2.0924,2.0615,2.0615,2.0605,2.0605,2.0924,2.1078,2.1078,2.1308,2.1461,2.1634,2.1634,2.1711,2.1863,2.2435,2.301,2.3514,2.3588,2.3305,2.2798,2.2872,2.251,2.2004,2.2004,2.2004,2.2014,2.1797,2.1512,2.1205,2.1282,2.1282,2.1359,2.1512,2.1578,2.1578,2.1731,2.1807,2.1873,2.1873,2.1959,2.2025,2.2176,2.2252,2.2126,2.1485,2.0976,2.0298,1.9318,1.8596,1.8043,1.7913,1.7642,1.7511,1.7582,1.745,1.7309,1.738,1.738,1.7272,1.7162,1.659,1.6071,1.563,1.5519,1.5691,1.6102,1.6284,1.6186,1.5928,1.5703,1.4956,1.3542,1.319,1.2419,1.1052,1.0631,1.0626,1.0869,0.9753,0.9579,1.0269,0.941,0.8886,1.9189,2.1182,2.295,2.3255,2.393,2.462,2.462,2.462,2.4607,2.4721,2.4118,2.3446,2.3148,2.2798,2.243,2.1966,2.2621,2.3059,2.2661,2.2956,2.3092,2.2685,2.3086,2.3606,2.3932,2.3496,2.3254,2.3254,2.2638,2.2253,2.2253,2.2403,2.2553,2.2553,2.2925,2.3147,2.3147,2.3294,2.3452,2.3452,2.3452,2.3452,2.3441,2.3441,2.3452,2.3514,2.3745,2.3745,2.3745,2.3963,2.4036,2.4036,2.4036,2.4036,2.3902,2.3202,2.2176,2.1205,2.1436,2.1512,2.1502,2.1731,2.1807,2.1807,2.1807,2.1959,2.2111,2.2111,2.2252,2.2402,2.2628,2.2703,2.2584,2.2339,2.2219,2.1934,2.0931,2.0684,2.0542,2.0042,1.9374,1.9,1.9301,1.88,1.8433,1.8654,1.8507,1.8229,1.7837,1.7449,1.7459,1.7933,1.6961,1.6553,1.7276,1.6798,1.6429,1.6355,1.5794,1.522,1.4699,1.421,1.3607,1.2899,1.2747,1.2498,1.2242,1.1986,1.1901,1.1901,1.1901,1.1724,2.1799,2.3258,2.4028,2.4678,2.5133,2.5342,2.4948,2.4892,2.4892,2.4892,2.4292,2.3754,2.3754,2.3292,2.2934,2.2899,2.3206,2.3565,2.3751,2.3914,2.3986,2.3886,2.4026,2.408,2.3891,2.3896,2.3863,2.3829,2.3401,2.3043,2.2798,2.2798,2.2936,2.2999,2.3147,2.3294,2.3368,2.3441,2.3599,2.3672,2.3818,2.4192,2.4707,2.4707,2.5004,2.5499,2.5569,2.5346,2.4981,2.4921,2.4767,2.4457,2.4337,2.4397,2.4457,2.4253,2.3879,2.3379,2.208,2.2025,2.2478,2.2111,2.2035,2.2025,2.2176,2.2252,2.2327,2.2327,2.2327,2.2478,2.2628,2.2703,2.2658,2.235,2.2313,2.211,2.148,2.102,2.0736,2.0594,2.0083,1.9568,1.9185,1.9122,1.8985,1.8756,1.8544,1.8286,1.8009,1.8027,1.81,1.8258,1.8306,1.8312,1.8457,1.8504,1.8336,1.7942,1.77,1.7204,1.6288,1.5801,1.5123,1.4183,1.3776,1.3691,1.3853,1.3081,1.2996,1.3594,1.2735,1.231,2.4139,2.5203,2.5673,2.6058,2.6122,2.5988,2.5591,2.5439,2.5286,2.5188,2.465,2.4221,2.4118,2.3839,2.3543,2.339,2.3662,2.3949,2.4236,2.4307,2.4315,2.4355,2.4482,2.4417,2.3798,2.4118,2.426,2.4026,2.393,2.3818,2.3568,2.3811,2.3986,2.4036,2.4192,2.4337,2.448,2.4552,2.4624,2.4767,2.4921,2.5217,2.5746,2.5746,2.6025,2.6533,2.6533,2.6302,2.5931,2.5791,2.5639,2.5405,2.5346,2.5417,2.5475,2.5169,2.5252,2.5252,2.3452,2.318,2.3548,2.318,2.3032,2.3032,2.318,2.3254,2.3327,2.3327,2.3191,2.3054,2.3202,2.299,2.2776,2.2776,2.2783,2.2694,2.2588,2.2226,2.2012,2.2012,2.157,2.1053,2.074,2.0457,2.0162,1.9791,1.9362,1.8939,1.8498,1.8751,1.892,1.8759,1.9163,1.9322,1.9235,1.9487,1.9408,1.9011,1.886,1.8371,1.7619,1.7212,1.655,1.5711,1.5296,1.5213,1.5296,1.4525,1.4448,1.4963,1.4183,1.3762,2.6088,2.703,2.7849,2.7282,2.6834,2.6549,2.6563,2.6204,2.5839,2.5592,2.5244,2.4835,2.4305,2.435,2.4292,2.3628,2.4077,2.44,2.4099,2.412,2.4141,2.4086,2.4504,2.4554,2.3792,2.4355,2.4474,2.3911,2.4285,2.453,2.4566,2.5257,2.5606,2.5606,2.598,2.6213,2.6201,2.6396,2.6533,2.6533,2.6533,2.6533,2.6533,2.6533,2.6533,2.6533,2.6521,2.6521,2.6533,2.6658,2.6726,2.6782,2.6943,2.7024,2.6943,2.6195,2.6346,2.6794,2.5322,2.4803,2.4732,2.4732,2.4732,2.4732,2.4743,2.4886,2.504,2.504,2.4612,2.4192,2.412,2.3632,2.315,2.3519,2.3604,2.3751,2.4116,2.42,2.42,2.42,2.3717,2.3338,2.3593,2.2596,2.1756,2.1614,2.0867,2.0033,1.9163,1.954,1.9784,1.9381,1.9548,1.9636,1.9645,1.9645,1.9636,1.9557,1.9011,1.87,1.87,1.8282,1.7878,1.7473,1.7221,1.6968,1.6476,1.6327,1.617,1.617,1.617,1.617,2.8471,2.8976,2.895,2.7932,2.76,2.7449,2.7041,2.6654,2.6297,2.6258,2.5495,2.4948,2.5216,2.4991,2.4835,2.5048,2.5339,2.5493,2.5453,2.5438,2.5297,2.4964,2.5016,2.4882,2.436,2.4872,2.514,2.5018,2.4968,2.5135,2.5526,2.5685,2.591,2.6062,2.6144,2.627,2.6396,2.6465,2.6533,2.6533,2.6533,2.6533,2.6533,2.6589,2.6658,2.6658,2.6807,2.6943,2.7066,2.6943,2.7066,2.7268,2.7268,2.7268,2.7335,2.7108,2.7175,2.7335,2.6892,2.6239,2.5451,2.5028,2.4886,2.4957,2.5134,2.5146,2.5217,2.5217,2.5075,2.4933,2.4636,2.442,2.4227,2.4116,2.4043,2.4043,2.4189,2.42,2.42,2.42,2.3717,2.3338,2.3593,2.2957,2.2414,2.2574,2.1907,2.0961,1.979,1.9963,2.0186,2.002,2.0255,2.0177,1.9863,1.9784,1.9706,1.939,1.9231,1.9152,1.9152,1.8763,1.8451,1.8371,1.7959,1.7708,1.7627,1.7546,1.7392,1.7066,1.7066,1.682,3.0384,3.0443,3.0093,2.9178,2.881,2.8466,2.762,2.7144,2.6707,2.615,2.5397,2.4948,2.5397,2.5118,2.5005,2.5619,2.5828,2.5953,2.6071,2.6104,2.5994,2.5715,2.5673,2.555,2.5233,2.5571,2.5977,2.6237,2.5794,2.567,2.597,2.6052,2.6062,2.6213,2.627,2.6396,2.6589,2.6589,2.6589,2.6589,2.6671,2.6863,2.704,2.6863,2.6985,2.7297,2.7066,2.7079,2.7146,2.7146,2.7214,2.7403,2.7403,2.7403,2.7523,2.7523,2.7523,2.7523,2.7523,2.7095,2.6539,2.6171,2.6102,2.6102,2.6195,2.6277,2.6277,2.6277,2.6,2.5652,2.5087,2.4862,2.4647,2.4261,2.4539,2.4886,2.5028,2.5111,2.4969,2.4754,2.4443,2.4215,2.4311,2.3756,2.3305,2.3463,2.2798,2.2059,2.1375,2.0712,2.0264,2.0108,2.0342,2.0333,1.9942,1.9863,1.9784,1.9469,1.9381,1.9301,1.9301,1.9073,1.8851,1.87,1.8451,1.8201,1.804,1.804,1.7878,1.7635,1.7635,1.7465,3.1882,3.1541,3.1227,3.0558,3.0168,2.956,2.8338,2.772,2.7078,2.5893,2.5244,2.4991,2.5384,2.5174,2.5174,2.5865,2.6078,2.6274,2.6461,2.6521,2.6497,2.6461,2.6404,2.6378,2.6311,2.6578,2.6976,2.7612,2.6969,2.6518,2.6388,2.6435,2.6533,2.6533,2.6726,2.685,2.6973,2.704,2.704,2.704,2.7188,2.751,2.7855,2.7443,2.7643,2.8117,2.7577,2.7268,2.7214,2.7403,2.7403,2.7335,2.7469,2.7523,2.7523,2.759,2.7656,2.7656,2.7709,2.7723,2.759,2.759,2.7523,2.7523,2.7603,2.7603,2.7603,2.7603,2.7108,2.6483,2.5791,2.5358,2.5004,2.4683,2.5229,2.5849,2.622,2.6233,2.6025,2.5523,2.5382,2.5312,2.5312,2.4707,2.4264,2.4264,2.361,2.3169,2.3169,2.169,2.0566,2.0323,2.0557,2.0557,2.0313,2.0235,2.0089,1.9794,1.9696,1.9529,1.9301,1.9381,1.9231,1.8772,1.8772,1.8603,1.8193,1.8193,1.8121,1.8121,1.8121,1.804,3.2599,3.2276,3.1987,3.1227,3.0997,3.0553,2.9066,2.8435,2.7762,2.6587,2.5797,2.5563,2.6428,2.6136,2.6136,2.7348,2.7328,2.727,2.758,2.738,2.7247,2.7181,2.6922,2.692,2.7377,2.7965,2.8584,2.9186,2.9097,2.8738,2.815,2.8115,2.8195,2.8338,2.8403,2.8454,2.862,2.862,2.862,2.862,2.8634,2.8698,2.8812,2.8839,2.898,2.9044,2.9079,2.8776,2.8222,2.8287,2.7973,2.7469,2.7456,2.7523,2.759,2.8105,2.8352,2.8417,2.8953,2.8776,2.8287,2.7842,2.7789,2.7789,2.7947,2.8013,2.8013,2.8013,2.7868,2.7669,2.7255,2.704,2.6892,2.662,2.662,2.6756,2.6837,2.6496,2.6151,2.6082,2.5664,2.5312,2.5312,2.5158,2.5087,2.5087,2.442,2.3902,2.3902,2.3095,2.2499,2.2499,2.251,2.2424,2.2178,2.2103,2.1659,2.0692,2.1058,2.0672,1.9381,1.9766,1.9775,1.9222,1.9231,1.9152,1.9063,1.9063,1.8913,1.8612,1.8612,1.8371,3.3558,3.3304,3.3092,3.2276,3.2091,3.1528,2.948,2.8817,2.8138,2.6438,2.5646,2.5536,2.6351,2.615,2.6204,2.7188,2.7372,2.7437,2.761,2.7645,2.7645,2.7645,2.7823,2.8181,2.8821,2.9476,3.0145,3.0743,3.0822,3.0315,2.9142,2.8839,2.8712,2.8803,2.8839,2.8967,2.9156,2.9156,2.9156,2.9156,2.9205,2.938,2.969,2.947,2.9594,2.9917,2.9642,2.9331,2.903,2.903,2.8839,2.8519,2.8519,2.8519,2.8583,2.8903,2.903,2.9093,2.938,2.9142,2.861,2.8509,2.8183,2.7855,2.7921,2.8013,2.8079,2.8079,2.8079,2.7947,2.7364,2.731,2.7377,2.6812,2.7082,2.7443,2.7443,2.696,2.6496,2.622,2.5734,2.5312,2.5312,2.5312,2.5312,2.5312,2.4933,2.4707,2.4707,2.442,2.3913,2.3106,2.3032,2.2872,2.2627,2.2627,2.2328,2.1659,2.1659,2.1354,2.0595,2.0692,2.0547,2.0304,2.0313,2.0313,2.0313,2.0313,2.0157,2.001,2.001,1.9687,3.4216,3.43,3.4115,3.3414,3.3245,3.2554,2.9962,2.928,2.8537,2.6342,2.566,2.566,2.6204,2.6272,2.6379,2.6974,2.7335,2.759,2.7725,2.7929,2.8061,2.8192,2.8756,2.9394,3.0036,3.0739,3.1411,3.2028,3.2074,3.1492,3.0254,2.9642,2.9407,2.9504,2.9614,2.969,2.9794,2.9997,2.9997,2.9794,2.9997,3.024,3.0524,3.0133,3.0208,3.0703,3.0147,2.9827,2.969,2.969,2.9628,2.9504,2.9504,2.9504,2.9504,2.969,2.9766,2.9813,3.0011,2.958,2.9107,2.9435,2.8803,2.7908,2.7987,2.8183,2.8379,2.8379,2.8379,2.8235,2.7657,2.7617,2.7577,2.7002,2.7417,2.7987,2.7987,2.7577,2.704,2.6633,2.6082,2.5652,2.5523,2.5523,2.5453,2.5312,2.5312,2.5312,2.5312,2.5312,2.4862,2.3621,2.3475,2.339,2.322,2.3084,2.2936,2.2627,2.2414,2.2113,2.1811,2.1669,2.1614,2.1461,2.1461,2.1461,2.1461,2.1385,2.1308,2.1308,2.1231,2.0934,3.4151,3.4906,3.4832,3.4444,3.4344,3.3653,3.0905,3.0184,2.9395,2.6909,2.6404,2.651,2.6916,2.7049,2.7321,2.7974,2.8024,2.8204,2.8842,2.8654,2.8591,2.9042,2.9406,2.9884,3.0569,3.1321,3.1955,3.2571,3.2633,3.247,3.2043,3.1564,3.1407,3.1777,3.1834,3.1637,3.1292,3.2321,3.2336,3.1278,3.1879,3.1879,3.1409,3.1351,3.1351,3.1409,3.1351,3.097,3.0389,3.0389,3.0072,2.9504,2.9504,2.9504,2.9566,3.0389,3.0703,3.0763,3.1495,3.094,3.0011,3.0615,2.9642,2.83,2.8444,2.8931,2.9393,2.9393,2.9393,2.9317,2.9254,2.8853,2.8457,2.8379,2.8444,2.8522,2.8522,2.8118,2.7709,2.7643,2.7242,2.6701,2.622,2.6082,2.5943,2.5382,2.5312,2.5312,2.5312,2.5312,2.5241,2.5087,2.5087,2.5087,2.5075,2.4754,2.4311,2.3672,2.3863,2.3423,2.2253,2.2798,2.2798,2.2178,2.2178,2.2178,2.2178,2.1811,2.1659,2.1659,2.1308,2.1165,3.4408,3.5232,3.5119,3.4852,3.4808,3.413,3.1621,3.0941,3.0106,2.7731,2.7108,2.7056,2.7312,2.7378,2.7494,2.7775,2.8057,2.8398,2.8795,2.9313,2.9704,2.987,3.0569,3.1262,3.1676,3.2191,3.2828,3.3479,3.3527,3.3578,3.363,3.2826,3.2461,3.261,3.2718,3.2664,3.2516,3.2986,3.2986,3.2516,3.2788,3.2734,3.2516,3.2176,3.2023,3.2007,3.164,3.1351,3.1087,3.1087,3.097,3.0718,3.0837,3.0896,3.097,3.1379,3.1509,3.1567,3.1868,3.1437,3.0748,3.1043,3.0435,2.9594,2.958,2.9827,3.0072,3.0072,2.9827,2.9504,2.9504,2.9044,2.8587,2.8587,2.8587,2.8587,2.8587,2.8183,2.7776,2.7776,2.7377,2.6905,2.6701,2.6427,2.6082,2.5873,2.5523,2.5312,2.5312,2.5312,2.5312,2.5312,2.5312,2.5312,2.5312,2.5182,2.4897,2.4467,2.4671,2.4587,2.3963,2.4047,2.4047,2.3963,2.3621,2.3412,2.3412,2.3265,2.3191,2.3191,2.3054,2.282,3.4348,3.5491,3.5405,3.5239,3.4998,3.4261,3.2229,3.1389,3.0459,2.8388,2.7815,2.765,2.77,2.7815,2.7879,2.7845,2.8334,2.8748,2.8935,2.9733,3.0332,3.0333,3.1511,3.2426,3.263,3.34,3.4082,3.4609,3.4642,3.469,3.4897,3.4235,3.3684,3.3319,3.3423,3.3355,3.3182,3.3511,3.3511,3.3182,3.3355,3.3355,3.3198,3.2788,3.2641,3.2586,3.2216,3.1992,3.2007,3.2048,3.2048,3.2104,3.2287,3.2342,3.2342,3.2492,3.2437,3.2287,3.2342,3.1879,3.1291,3.1522,3.1233,3.0807,3.0837,3.0852,3.0822,3.0822,3.0315,2.9827,2.9827,2.9345,2.8944,2.9135,2.9008,2.8881,2.8881,2.843,2.8052,2.8052,2.7709,2.7443,2.7242,2.6905,2.6633,2.6427,2.607,2.5791,2.5791,2.5791,2.5791,2.5791,2.5791,2.5652,2.5312,2.5182,2.5194,2.5206,2.5312,2.5441,2.5569,2.5499,2.5417,2.5569,2.5229,2.5028,2.5028,2.4743,2.4611,2.4611,2.4334,2.3959,3.3796,3.5759,3.5774,3.5718,3.4988,3.3979,3.2665,3.1458,3.0252,2.8933,2.8574,2.8463,2.8304,2.8511,2.8637,2.8511,2.9012,2.9422,2.947,2.9865,3.0166,3.0359,3.1991,3.3134,3.3169,3.4805,3.589,3.589,3.589,3.589,3.5907,3.5864,3.5311,3.4151,3.4101,3.3815,3.3198,3.4317,3.4317,3.3198,3.3815,3.3764,3.3182,3.3182,3.3182,3.3182,3.3198,3.3182,3.3182,3.3339,3.3391,3.3391,3.3547,3.3582,3.3582,3.3735,3.3443,3.2986,3.3145,3.2446,3.1595,3.216,3.1992,3.1595,3.2231,3.1936,3.148,3.148,3.0999,3.0524,3.0524,3.0011,2.9628,3.0329,2.995,2.9504,2.9504,2.8994,2.8587,2.8587,2.8587,2.8392,2.7855,2.7776,2.7577,2.704,2.6973,2.6973,2.6973,2.6973,2.6973,2.6973,2.6973,2.6552,2.5382,2.4981,2.5206,2.6164,2.5791,2.5988,2.6973,2.6973,2.6973,2.6973,2.6973,2.6973,2.6973,2.6057,2.5557,2.5557,2.4599,2.42,2.9802,3.2649,3.4363,3.4333,3.3898,3.3192,3.2054,3.1429,3.0768,2.9613,2.938,2.9348,2.9166,2.9227,2.9406,2.9599,2.9917,3.0186,3.0549,3.1404,3.1888,3.1603,3.2804,3.3808,3.4184,3.5182,3.6042,3.6589,3.6663,3.6539,3.6305,3.6305,3.6028,3.5357,3.5115,3.4897,3.4721,3.4818,3.4739,3.4366,3.4546,3.4529,3.4366,3.3968,3.3815,3.3815,3.3355,3.3235,3.3339,3.3391,3.3443,3.3531,3.3684,3.3735,3.3735,3.3903,3.3818,3.3665,3.3716,3.3511,3.3235,3.3407,3.3355,3.3235,3.3407,3.2841,3.2048,3.1595,3.1364,3.1058,3.0644,3.0329,3.0269,3.045,3.0011,2.9504,2.9504,2.9058,2.8587,2.8587,2.8587,2.8522,2.8392,2.8052,2.7894,2.8155,2.7828,2.7749,2.8244,2.8295,2.8295,2.8295,2.8295,2.7802,2.6552,2.6358,2.6277,2.6321,2.6676,2.6947,2.7124,2.7297,2.739,2.751,2.7175,2.6973,2.6973,2.6688,2.6552,2.6539,2.5873,2.5606,2.8155,3.1529,3.4036,3.3895,3.3364,3.2625,3.1721,3.121,3.0679,2.9968,2.9886,2.9957,2.987,2.9897,3.0038,3.0344,3.0723,3.1057,3.1168,3.2177,3.2858,3.2788,3.3496,3.4267,3.4954,3.5739,3.6364,3.6881,3.722,3.7325,3.7099,3.7099,3.6985,3.6729,3.5977,3.5571,3.5571,3.5362,3.527,3.527,3.527,3.527,3.527,3.4802,3.4626,3.4626,3.4136,3.3969,0.0,3.4185,3.4219,3.4333,3.4464,3.4496,3.4496,3.4577,3.448,3.4284,3.4284,3.4185,3.3986,3.3986,3.3986,3.3986,3.3986,3.3407,3.2625,3.2241,3.1962,3.1777,3.1592,3.1347,3.1188,3.1218,3.0733,3.024,3.024,2.978,2.9324,2.9324,2.9324,2.9324,2.9324,2.9044,2.8953,2.9289,2.9087,2.9024,2.9448,2.951,2.951,2.951,2.951,2.9213,2.8363,2.7723,2.7204,2.6934,2.7364,2.7643,2.7749,2.7842,2.7987,2.8118,2.7776,2.7577,2.7577,2.7377,2.7175,2.6973,2.6633,2.6496,0.0,3.1784,3.444,3.407,3.3172,3.2271,3.1705,3.0869,0.0,3.0103,3.0146,3.0316,3.0468,3.051,3.0593,3.0757,3.1499,3.1952,3.1578,3.2388,3.3256,3.3885,3.4073,3.4545,3.5538,3.6313,3.6767,3.684,3.7653,3.8125,3.8059,3.8132,3.8117,3.8101,3.6768,3.6045,3.6002,3.5977,3.5977,3.5977,3.5933,3.5933,3.5933,3.5616,3.5543,3.565,3.535,3.5274,3.5412,3.552,3.5566,3.5611,3.5639,3.5667,3.5667,3.5622,3.527,3.488,3.488,3.4529,3.4136,3.4136,3.4136,3.4136,3.4086,3.3665,3.3251,3.3251,3.2848,3.2563,3.3077,3.2795,3.236,3.2367,3.1936,3.148,3.148,3.0984,3.0569,3.0524,3.051,3.0569,3.0524,3.0524,3.0524,3.0584,3.0584,3.0584,3.0629,3.0629,3.0629,3.0629,3.0629,3.0629,3.0629,2.9087,2.8025,2.8026,2.796,2.8235,2.8716,2.8716,2.8716,2.8716,2.8716,2.8716,2.8716,2.8235,2.7762,2.7229,2.7229,2.7229,2.4596,0.0,3.2835,3.2737,3.2156,3.156,0.0,3.0977,3.0609,3.0617,3.0716,3.0797,3.074,3.0797,3.1061,3.1679,3.2272,3.2751,3.2895,3.35,3.4101,3.4663,3.472,3.5058,3.5904,3.6141,3.6531,3.715,3.7976,3.8296,3.7821,3.843,3.8591,3.8101,3.7756,3.7452,3.7142,3.6777,3.6596,3.6596,3.6411,3.6347,3.6347,3.6281,3.6281,3.6281,3.6197,3.6256,3.6381,3.6399,3.6498,3.6557,3.6241,3.6131,3.6088,3.5739,3.5515,3.5424,3.5424,3.5333,3.5224,3.5224,3.5224,3.5131,3.4738,3.4219,3.3818,3.3818,3.37,3.3547,3.3287,3.3077,3.2864,3.2492,3.1936,3.148,3.148,3.1304,3.1013,3.0569,3.0808,3.0969,3.0569,3.0524,3.0703,3.1175,3.1248,3.1407,3.1864,3.1921,3.1921,3.1921,3.1921,3.1905,3.1901,3.069,2.9875,2.9903,2.9903,2.9903,3.004,3.004,3.004,3.004,3.004,3.004,3.004,2.9903,2.9827,2.969,2.9289,2.9087,2.4682,2.8842,3.2737,3.2472,3.1985,3.1565,3.1435,3.124,3.1078,3.1145,3.13,3.147,3.149,3.1759,3.2018,3.223,3.304,3.3818,3.4175,3.4327,3.4563,3.4959,3.4959,3.5132,3.5552,3.5932,3.6311,3.6727,3.7561,3.7888,3.7534,3.8321,3.867,3.834,3.8635,3.8493,3.7839,3.7578,3.747,3.7506,3.7398,3.7325,3.7325,3.7159,3.7104,3.7124,3.6973,3.6932,3.6964,3.6964,3.6943,3.686,3.6678,3.6557,3.6557,3.6308,3.6182,3.6182,3.6182,3.6071,3.5871,3.5667,3.5622,3.5577,3.527,3.4975,3.4673,3.4431,3.4382,3.4317,3.4003,3.3953,3.3802,3.3251,3.2879,3.2648,3.2648,3.2602,3.2462,3.2164,3.2149,3.2149,3.2109,3.1901,3.1972,3.254,3.2648,3.2772,3.3108,3.3108,3.3108,3.3108,3.3108,3.3093,3.3098,3.2493,3.187,3.1273,3.1215,3.1215,3.1215,3.1215,3.1215,3.1215,3.1215,3.1215,3.1215,3.0969,3.0867,3.0867,3.0392,3.0151,2.6171,3.0139,3.3201,3.2619,3.2249,3.1932,3.1565,3.1507,3.1579,3.1657,3.186,3.2144,3.236,3.2727,3.291,3.2678,3.3789,3.4807,3.5219,3.5063,3.492,3.5097,3.5132,3.5136,3.5108,3.5723,3.6093,3.6041,3.6842,3.7281,3.7184,3.7981,3.8457,3.8419,3.9101,3.9088,3.8291,3.8332,3.8373,3.8436,3.8405,3.8373,3.8373,3.8107,3.8005,3.802,3.7749,3.7612,3.7542,3.7542,3.7415,3.719,3.7076,3.7038,3.7038,3.696,3.6939,3.69,3.69,3.6678,3.6326,3.5941,3.5827,3.5827,3.5827,3.5827,3.5677,3.5144,3.4958,3.488,3.4833,3.4769,3.4673,3.4136,3.3986,3.3986,3.3986,3.407,3.4086,3.4036,3.3716,3.3547,3.3935,3.3614,3.3459,3.3919,3.3986,3.3986,3.3986,3.3986,3.4036,3.4119,3.4119,3.4153,3.4333,3.4333,3.3906,3.2929,3.2538,3.2408,3.2408,3.2408,3.2408,3.2408,3.2408,3.2408,3.2408,3.1906,3.1713,3.1713,3.136,3.1202,2.6236,3.0011,3.2983,3.259,3.2284,3.202,3.1858,3.1821,3.1858,3.1932,3.2109,3.2388,3.28,3.2672,3.278,3.3619,3.4429,3.5115,3.5651,3.5663,3.5628,3.5663,3.5675,3.5679,3.5679,3.5732,3.5747,3.5684,3.6485,3.6858,3.6651,3.74,3.7753,3.7585,3.8401,3.8798,3.8717,3.8887,3.897,3.897,3.8873,3.8833,3.8833,3.8737,3.8737,3.8737,3.8688,3.8658,3.8646,3.8646,3.8646,3.8554,3.798,3.7755,3.772,3.7342,3.7097,3.69,3.69,3.686,3.6781,3.6701,3.6701,3.6701,3.6701,3.6701,3.662,3.6182,3.5766,3.5379,3.4927,3.4769,3.4673,3.4136,3.3986,3.3986,3.3986,3.4382,3.4529,3.4086,3.4317,3.4431,3.407,3.3919,3.3935,3.3986,3.3986,3.3986,3.3986,3.3986,3.4153,3.4543,3.4574,3.4935,3.571,3.5797,3.5882,3.6153,3.462,3.3735,3.3735,3.3735,3.3735,3.3735,3.3735,3.3735,3.3735,3.3633,3.3582,3.3582,3.3652,3.3636,2.7409,2.9927,3.1728,3.1965,3.2548,3.3073,3.3036,3.3013,3.2988,3.2965,3.3075,3.3234,3.3484,3.3602,3.3938,3.4834,3.4858,3.5022,3.5698,3.5646,3.5599,3.5783,3.5791,3.58,3.58,3.5774,3.5736,3.5706,3.6075,3.6221,3.6009,3.6807,3.7222,3.713,3.7874,3.828,3.8295,3.8759,3.9226,3.9683,3.9637,3.959,3.959,3.959,3.9537,3.9452,3.9452,3.9298,3.9045,3.9045,3.9007,3.8862,3.8554,3.8442,3.841,3.8245,3.7995,3.7773,3.7649,3.7542,3.7433,3.7306,3.7288,3.7288,3.7288,3.7288,3.7232,3.6925,3.6563,3.6224,3.5732,3.5599,3.5554,3.5311,3.5052,3.4911,3.5174,3.5464,3.5582,3.5559,3.5542,3.5497,3.5559,3.517,3.4908,3.5203,3.5052,3.4958,3.522,3.5249,3.5414,3.5848,3.5891,3.6061,3.651,3.6551,3.6649,3.69,3.6053,3.5559,3.5559,3.5559,3.5559,3.5559,3.5559,3.5559,3.5559,3.5256,3.5148,3.5148,3.5006,3.4944,2.8748,3.027,3.1071,3.2077,3.3045,3.3782,3.3891,3.3916,3.3936,3.3875,3.3954,3.408,3.4149,3.4538,3.4996,3.5506,3.5185,3.5064,3.5698,3.5562,3.5497,3.5747,3.5784,3.5782,3.5782,3.5793,3.5818,3.5802,3.5807,3.5762,3.5646,3.6278,3.6639,3.6647,3.7327,3.772,3.7687,3.8401,3.9136,3.989,4.01,4.0196,4.0196,4.0196,4.012,3.9958,3.9958,3.9766,3.9433,3.9433,3.9357,3.92,3.9146,3.9091,3.9027,3.895,3.8803,3.8646,3.8431,3.8273,3.8114,3.7957,3.7887,3.7887,3.7887,3.7887,3.7837,3.7596,3.7452,3.7248,3.6661,3.6492,3.6451,3.6516,3.6224,3.5985,3.6367,3.6451,3.6557,3.6921,3.6654,3.6539,3.7002,3.6475,3.6146,3.6545,3.6298,3.6215,3.6545,3.6586,3.6746,3.7155,3.7193,3.723,3.736,3.736,3.736,3.736,3.7152,3.6978,3.69,3.6985,3.7023,3.6999,3.7023,3.7044,3.7041,3.6579,3.64,3.6423,3.6203,3.6104,2.9761,3.139,3.2225,3.4042,3.3903,3.3407,3.3585,3.3877,3.4083,3.4079,3.427,3.4507,3.463,3.4983,3.5196,3.5006,3.5331,3.5644,3.5704,3.5696,3.5683,3.5696,3.5716,3.5716,3.5716,3.581,3.5867,3.58,3.5868,3.5853,3.5786,3.5858,3.5878,3.5872,3.6703,3.7136,3.7074,3.7899,3.8556,3.9012,3.9814,4.0196,4.0196,4.0196,4.0196,4.0177,4.0177,4.0177,4.012,4.012,4.012,4.0081,3.9844,3.9607,3.9402,3.9027,3.9007,3.9129,3.8902,3.8833,3.8833,3.8815,3.8815,3.8815,3.8815,3.8815,3.8707,3.8269,3.8449,3.8504,3.7488,3.702,3.6939,3.7155,3.702,3.6821,3.686,3.686,3.6921,3.723,3.723,3.7306,3.7524,3.7506,3.747,3.7524,3.747,3.747,3.7524,3.7524,3.7664,3.8071,3.8122,3.8287,3.8725,3.8755,3.8755,3.8755,3.7807,3.7173,3.69,3.7255,3.7398,3.725,3.7381,3.7485,3.7559,3.7325,3.7232,3.729,3.759,3.7539,2.9673,3.0918,3.1996,3.3403,3.4062,3.4444,3.4824,3.5005,3.5052,3.4888,3.4884,3.4934,3.4884,3.5229,3.543,3.5234,3.5446,3.5631,3.5639,3.5638,3.5643,3.5702,3.5696,3.5703,3.5703,3.5755,3.5777,3.5743,3.5806,3.581,3.5742,3.5742,3.574,3.5749,3.6063,3.6216,3.6197,3.7092,3.7622,3.779,3.9129,4.0048,4.0569,4.0569,4.0504,4.0392,4.0392,4.0321,4.0196,4.0196,4.0196,4.0196,4.0101,4.0003,3.9922,3.9772,3.9664,3.9599,3.9664,3.9618,3.9486,3.9641,3.9632,3.9532,3.966,3.9609,3.9489,3.9264,3.9333,3.9226,3.815,3.7787,3.7718,3.7821,3.7595,3.738,3.7648,3.7718,3.7839,3.8212,3.8277,3.8323,3.8469,3.8182,3.8002,3.8081,3.7817,3.776,3.8173,3.8081,3.8204,3.8811,3.8891,3.9015,3.9375,3.9502,3.9542,3.9418,3.8692,3.8245,3.8147,3.8414,3.8527,3.8462,3.8527,3.8586,3.8593,3.842,3.8376,3.8389,3.8652,3.8681,3.0183,3.1242,3.2344,3.3465,3.4347,3.5034,3.5392,3.554,3.551,3.5339,3.5154,3.5012,3.4999,3.5217,3.5378,3.5373,3.5484,3.556,3.5574,3.5577,3.559,3.5631,3.563,3.5639,3.5639,3.5655,3.5679,3.5679,3.5742,3.5741,3.57,3.5713,3.5731,3.573,3.5722,3.5722,3.57,3.6359,3.682,3.7079,3.8205,3.9335,4.046,4.046,4.0533,4.0662,4.0662,4.0571,4.0453,4.0427,4.0419,4.0372,4.0321,4.0319,4.0315,4.0264,4.0118,3.9967,4.0155,4.0101,3.9965,4.0139,4.012,4.002,4.0158,4.01,4.0001,3.9948,3.9967,3.9792,3.9083,3.8767,3.8623,3.8612,3.8412,3.829,3.8501,3.86,3.8801,3.9171,3.9258,3.9306,3.9429,3.9145,3.8939,3.9015,3.8734,3.8641,3.9104,3.9024,3.9094,3.9583,3.9624,3.9714,3.9896,4.0028,4.0042,3.9931,3.9578,3.9301,3.9158,3.9415,3.9507,3.946,3.951,3.9551,3.9564,3.9399,3.9335,3.9354,3.9572,3.9615,3.1637,3.262,3.3557,3.4625,3.4845,3.4849,3.497,3.5146,3.5302,3.5296,3.494,3.4686,3.495,3.4938,3.499,3.5256,3.5418,3.5493,3.5493,3.5493,3.5493,3.5493,3.5493,3.5493,3.5493,3.5562,3.5611,3.5611,3.5663,3.5703,3.5703,3.5756,3.5807,3.5807,3.5805,3.5778,3.5698,3.5778,3.6208,3.6986,3.706,3.8007,3.9701,3.9701,4.0169,4.0974,4.0974,4.0994,4.0987,4.0924,4.0867,4.079,4.0583,4.0554,4.0584,4.0376,4.0312,4.0312,4.0312,4.0257,4.0214,4.0214,4.0214,4.0214,4.0214,4.0214,4.0212,4.0303,4.0312,4.0323,4.0385,3.9961,3.9505,3.951,3.9567,3.9543,3.9346,3.9528,3.9756,3.9957,3.9991,4.0092,4.0352,4.0404,4.0404,4.0404,4.0404,4.0404,4.0404,4.0404,4.0404,4.0404,4.0343,4.0325,4.0409,4.0334,4.0344,4.0397,4.0416,4.0196,3.9723,4.0094,4.0198,4.0024,4.0196,4.0339,4.0404,4.0134,4.0043,4.0114,4.0382,4.0303,3.1054,3.1961,3.2895,3.3823,3.4462,3.4891,3.4918,3.5013,3.5083,3.5032,3.4907,3.4803,3.4777,3.4847,3.4908,3.4885,3.4979,3.5072,3.5072,3.5209,3.5273,3.5273,3.5417,3.5493,3.5493,3.5509,3.5528,3.5528,3.555,3.5557,3.5557,3.562,3.5669,3.5669,3.5713,3.5728,3.571,3.5773,3.5919,3.6166,3.6227,3.7136,3.8799,3.8799,3.8936,3.9208,3.9818,4.0091,4.013,4.0733,4.0964,4.0921,4.0876,4.0866,4.0863,4.0818,4.079,4.079,4.079,4.0791,4.0762,4.0762,4.0671,4.0575,4.0722,4.0671,4.0587,4.0762,4.079,4.079,4.0816,4.0652,4.0413,4.0134,4.0076,4.0068,3.996,4.0029,4.0111,4.0079,4.016,4.025,4.0373,4.0364,4.0354,4.0392,4.0321,4.026,4.026,4.0413,4.0531,4.0531,4.0522,4.0598,4.08,4.0796,4.0796,4.0819,4.0819,4.0603,4.0145,4.0421,4.0519,4.041,4.0537,4.0597,4.0616,4.039,4.0291,4.0318,4.0429,4.0435,3.1793,3.2655,3.3465,3.3949,3.4411,3.4729,3.4639,3.4734,3.4812,3.4655,3.4634,3.4623,3.4668,3.4715,3.4775,3.4779,3.4857,3.4889,3.487,3.4963,3.5035,3.5,3.5105,3.519,3.5207,3.5207,3.5273,3.5369,3.5379,3.5422,3.5495,3.554,3.5565,3.5565,3.5639,3.567,3.567,3.5733,3.5749,3.5756,3.5831,3.6396,3.7374,3.7783,3.8143,3.8514,3.9021,3.9442,3.9775,4.0306,4.07,4.0994,4.0994,4.1025,4.1047,4.1047,4.1047,4.1047,4.1047,4.1011,4.0994,4.0964,4.0889,4.0792,4.0886,4.0842,4.0769,4.0912,4.096,4.0962,4.099,4.0976,4.0858,4.0494,4.0454,4.0469,4.034,4.0411,4.0461,4.039,4.0439,4.0506,4.0542,4.0558,4.0552,4.0596,4.0541,4.0524,4.0524,4.0599,4.0636,4.0636,4.0569,4.0604,4.0793,4.077,4.077,4.0805,4.0805,4.0661,4.0351,4.0615,4.0767,4.072,4.0736,4.0734,4.0732,4.0624,4.0566,4.0566,4.0605,4.0622,3.3276,3.4044,3.4641,3.4509,3.4489,3.4418,3.4236,3.4386,3.4495,3.4245,3.4197,3.4269,3.4517,3.4561,3.4626,3.4792,3.4831,3.4812,3.4733,3.4753,3.4733,3.4674,3.4674,3.4714,3.4773,3.4793,3.4889,3.5141,3.5157,3.5242,3.5432,3.5449,3.5457,3.547,3.5534,3.557,3.5601,3.567,3.5704,3.5704,3.5749,3.5786,3.5825,3.6745,3.7636,3.8456,3.8476,3.8924,3.9671,3.9688,4.0173,4.0894,4.09,4.0988,4.1097,4.108,4.1082,4.1082,4.1082,4.1042,4.0994,4.0935,4.0906,4.089,4.0801,4.0799,4.0797,4.0854,4.0863,4.0871,4.0935,4.0954,4.0891,4.0611,4.0664,4.0715,4.0506,4.0596,4.074,4.0731,4.074,4.0757,4.0749,4.0805,4.084,4.0859,4.0906,4.094,4.094,4.0777,4.0655,4.0655,4.0493,4.0422,4.0471,4.043,4.0417,4.0471,4.0452,4.041,4.0367,4.0684,4.0848,4.084,4.0768,4.0731,4.0729,4.0733,4.0723,4.0733,4.0723,4.0732,3.2907,3.3275,3.3627,3.3587,3.3921,3.4244,3.4208,3.4245,3.4269,3.4221,3.4197,3.4221,3.4269,3.4245,3.4221,3.425,3.4227,3.4179,3.4179,3.4307,3.4401,3.4379,3.4572,3.4713,3.4733,3.4714,3.4753,3.4793,3.4851,3.4889,3.4963,3.4997,3.5098,3.5262,3.5331,3.5445,3.5601,3.5676,3.5697,3.5707,3.5704,3.5725,3.5725,3.5992,3.6606,3.7429,3.7477,3.7997,3.8783,3.8848,3.9353,4.0133,4.0078,4.0483,4.1084,4.1039,4.1027,4.1027,4.1027,4.1016,4.1,4.0972,4.0988,4.094,4.076,4.0727,4.0694,4.0604,4.0577,4.0597,4.0587,4.0583,4.0486,4.0331,4.0427,4.0498,4.0232,4.0177,4.0153,4.0096,4.0269,4.0404,4.0347,4.0428,4.048,4.0434,4.0434,4.0453,4.0453,4.0419,4.0385,4.0385,4.0342,4.0345,4.0338,4.0326,4.0326,4.0338,4.0095,4.0004,4.0152,4.0326,4.0409,4.0364,4.0281,4.0243,4.0256,4.02,4.0178,4.0159,4.0178,4.0161,3.3669,3.3833,3.3932,3.3771,3.3967,3.4197,3.4197,3.4197,3.4197,3.4197,3.4197,3.4197,3.4148,3.4124,3.4099,3.4049,3.4023,3.3998,3.3947,3.4037,3.4093,3.4068,3.4165,3.4279,3.4325,3.4325,3.4353,3.4508,3.4551,3.4632,3.4753,3.4832,3.4907,3.5016,3.5081,3.5162,3.5254,3.5336,3.5383,3.5424,3.5412,3.5461,3.5516,3.5702,3.6033,3.643,3.6499,3.7024,3.7827,3.7864,3.84,3.9178,3.9142,3.9657,4.0413,4.0318,4.0524,4.0855,4.0785,4.0749,4.076,4.0714,4.0704,4.0683,4.0544,4.0462,4.0403,4.0328,4.0265,4.0181,4.0079,4.0034,3.9947,3.9696,3.9966,4.0241,4.0043,3.9967,3.9889,3.9861,3.9851,3.9872,3.9813,3.9948,4.0005,3.9773,3.9773,3.9675,3.9346,3.9422,3.9418,3.9227,3.9303,3.9317,3.9114,3.9293,3.9402,3.9402,3.9387,3.9425,3.9519,3.9488,3.9659,4.0041,3.9852,3.9833,3.9964,3.9793,3.9789,3.9888,3.9888,3.9888,3.4658,3.4624,3.4504,3.4213,3.4173,3.4197,3.4148,3.4105,3.408,3.4055,3.408,3.408,3.403,3.3954,3.3858,3.3805,3.3778,3.3797,3.3815,3.3815,3.3788,3.3807,3.3807,3.3815,3.3868,3.3868,3.3979,3.4195,3.4218,3.433,3.4548,3.4651,3.4693,3.4752,3.4813,3.487,3.4906,3.4962,3.5032,3.5081,3.5098,3.5165,3.5281,3.5582,3.5687,3.5638,3.5709,3.6145,3.6807,3.682,3.7332,3.8117,3.8105,3.8624,3.9369,3.9246,3.9626,4.0209,4.0231,4.0266,4.0261,4.0309,4.0308,4.0277,4.0154,4.0024,3.9927,3.9907,3.9806,3.9659,3.9421,3.9397,3.9344,3.8914,3.9333,3.9797,3.9709,3.9622,3.9576,3.9576,3.9339,3.9177,3.9295,3.9325,3.925,3.9027,3.9015,3.8812,3.8224,3.8335,3.8332,3.8003,3.8081,3.8091,3.7929,3.8059,3.8235,3.8414,3.8511,3.8637,3.8762,3.8431,3.8678,3.9622,3.9376,3.9333,3.9576,3.9352,3.9333,3.9576,3.9576,3.9576,3.481,3.4348,3.4012,3.3947,3.4074,3.4148,3.3972,3.3805,3.3625,3.3447,3.3542,3.368,3.368,3.3335,3.3057,3.3057,3.2996,3.3045,3.335,3.3379,3.3494,3.378,3.3807,3.3788,3.3815,3.3815,3.3815,3.385,3.3902,3.3954,3.4005,3.413,3.4316,3.452,3.4609,3.4715,3.4906,3.4962,3.4997,3.5015,3.5064,3.5117,3.5138,3.5288,3.5345,3.5364,3.543,3.5527,3.5623,3.5679,3.623,3.7007,3.6945,3.7433,3.8117,3.8064,3.8104,3.8281,3.9035,3.9288,3.9353,3.9814,3.9967,3.9889,3.9542,3.9352,3.9214,3.9088,3.8998,3.8869,3.8401,3.8593,3.8755,3.8196,3.8438,3.8799,3.8799,3.867,3.8597,3.8597,3.8314,3.8272,3.8887,3.837,3.8,3.8449,3.8211,3.7954,3.7856,3.7874,3.7893,3.7842,3.743,3.7499,3.8253,3.7618,3.7533,3.8365,3.7679,3.7541,3.8186,3.7345,3.7417,3.8597,3.8566,3.8566,3.8597,3.8566,3.8566,3.8597,3.8597,3.8597,3.4875,3.4223,3.368,3.3578,3.3616,3.3643,3.3439,3.3325,3.3248,3.3148,3.3027,3.2996,3.316,3.3039,3.2903,3.284,3.2827,3.2858,3.3001,3.3001,3.3001,3.3154,3.3105,3.3057,3.3057,3.3302,3.3447,3.3447,3.3707,3.3842,3.3842,3.3947,3.4074,3.4221,3.4298,3.4394,3.4508,3.4548,3.4591,3.4672,3.4888,3.4962,3.4927,3.5105,3.5187,3.5187,3.5302,3.5339,3.5339,3.5387,3.5605,3.5952,3.5925,3.643,3.7161,3.7048,3.7307,3.7728,3.804,3.8061,3.8038,3.8707,3.8878,3.8831,3.9055,3.9026,3.8934,3.8868,3.8603,3.8255,3.7819,3.7698,3.756,3.7066,3.7122,3.7251,3.7251,3.7649,3.7893,3.7452,3.7253,3.7254,3.7541,3.7435,3.7147,3.6814,3.6741,3.647,3.5771,3.6139,3.6434,3.6132,3.6394,3.6554,3.6399,3.6514,3.665,3.6788,3.6759,3.6929,3.7232,3.6694,3.6631,3.7155,3.756,3.7859,3.7995,3.8117,3.8117,3.7995,3.7995,3.7995,3.4883,3.4308,3.3795,3.3496,3.3449,3.3375,3.3009,3.2885,3.2822,3.2759,3.2502,3.2317,3.255,3.2616,3.2601,3.2502,3.2502,3.2553,3.2601,3.2586,3.2603,3.2651,3.2568,3.2484,3.2484,3.2809,3.3014,3.3014,3.3284,3.3504,3.3634,3.3716,3.377,3.385,3.3902,3.3954,3.3979,3.4055,3.4221,3.4386,3.4653,3.4753,3.4768,3.4945,3.4982,3.4926,3.5122,3.5203,3.5203,3.5203,3.5203,3.5203,3.5203,3.5605,3.616,3.606,3.6405,3.6938,3.7051,3.6925,3.6821,3.7553,3.7653,3.7571,3.8034,3.8026,3.79,3.8101,3.7736,3.7256,3.7029,3.6869,3.6609,3.613,3.619,3.6274,3.6215,3.6773,3.7177,3.6596,3.6277,3.6195,3.6516,3.6406,3.6125,3.5545,3.5555,3.52,3.4153,3.4671,3.5001,3.4625,3.5157,3.5295,3.4847,3.5249,3.5459,3.5307,3.5681,3.5942,3.6011,3.5812,3.583,3.6011,3.6417,3.6855,3.7325,3.747,3.747,3.7325,3.7325,3.7325,3.4904,3.4716,3.4423,3.3827,3.3815,3.3746,3.2916,3.2553,3.2403,3.2197,3.1965,3.1819,3.1856,3.1856,3.1819,3.1691,3.1765,3.1912,3.2039,3.2162,3.23,3.2484,3.2517,3.2484,3.2484,3.2517,3.255,3.255,3.255,3.2745,3.3214,3.3284,3.3372,3.3419,3.3504,3.3458,3.335,3.3734,3.4074,3.4386,3.4409,3.4495,3.4623,3.4749,3.4687,3.4454,3.4772,3.4908,3.4908,3.4908,3.4908,3.4908,3.4908,3.4946,3.4984,3.4984,3.5003,3.5173,3.5969,3.6094,3.595,3.6491,3.6509,3.6266,3.6048,3.5648,3.5437,3.615,3.5907,3.5498,3.5822,3.6139,3.6291,3.5749,3.6139,3.6533,3.6274,3.6256,3.6256,3.6215,3.5453,3.5119,3.6222,3.5244,3.4576,3.5199,3.4988,3.4561,3.4086,3.4036,3.4086,3.402,3.3649,3.3719,3.4622,3.3855,3.377,3.4653,3.4317,3.4136,3.4414,3.4431,3.4752,3.543,3.5057,3.5301,3.6298,3.6298,3.6298,3.6298,3.6298,3.6298,3.4808,3.4604,3.4274,3.3913,3.3582,3.3259,3.2791,3.2348,3.1984,3.1929,3.1783,3.1671,3.1671,3.1671,3.1671,3.1617,3.1596,3.1614,3.1671,3.1637,3.1657,3.1714,3.1677,3.1657,3.1657,3.1914,3.2057,3.2057,3.235,3.2583,3.2745,3.2777,3.2872,3.3014,3.3045,3.3136,3.3291,3.3569,3.378,3.3895,3.3935,3.3968,3.4043,3.4375,3.4483,3.4416,3.4628,3.4607,3.4458,3.4458,3.4458,3.4458,3.4458,3.4458,3.4458,3.4458,3.4458,3.4514,3.4813,3.4745,3.4629,3.5338,3.5384,3.5248,3.567,3.5688,3.5529,3.5577,3.5206,3.4809,3.4627,3.4245,3.3734,3.3053,3.3036,3.3143,3.3096,3.4239,3.5044,3.4382,3.4005,3.3855,3.4268,3.3971,3.37,3.3719,3.3649,3.3423,3.2911,3.3214,3.3459,3.3355,3.3563,3.37,3.3617,3.37,3.3649,3.3463,3.3598,3.37,3.3719,3.3649,3.37,3.3972,3.3838,3.4446,3.582,3.5735,3.5735,3.582,3.5442,3.5442,3.4921,3.4756,3.4484,3.4173,3.3771,3.3341,3.2786,3.2347,3.1985,3.1582,3.1432,3.1317,3.1145,3.1067,3.1067,3.124,3.1274,3.1213,3.0958,3.1021,3.1044,3.1044,3.1134,3.119,3.119,3.1449,3.1603,3.1603,3.1878,3.2109,3.2282,3.2282,3.235,3.2586,3.2586,3.2716,3.3001,3.328,3.3444,3.3502,3.3616,3.3671,3.3671,3.4006,3.4147,3.4117,3.4227,3.4316,3.4316,3.4245,3.4197,3.4197,3.4197,3.4197,3.4197,3.4197,3.4197,3.4197,3.4043,3.3821,3.3661,3.4181,3.4117,3.3934,3.4587,3.4601,3.4405,3.4429,3.4067,3.368,3.3635,3.3014,3.224,3.1851,3.1454,3.1162,3.1162,3.2386,3.334,3.2743,3.2384,3.2348,3.2503,3.2503,3.2426,3.2413,3.2498,3.2485,3.216,3.2547,3.2734,3.2695,3.3055,3.3161,3.2695,3.3055,3.3108,3.2547,3.2895,3.2986,3.2895,3.2933,3.2986,3.2933,3.2933,3.3547,3.4783,3.4684,3.47,3.4767,3.4398,3.4398,0.0,0.0,0.0,3.4604,3.445,3.4098,3.2931,3.266,3.2362,3.1176,3.0897,3.0737,3.0201,2.9989,3.0031,3.0485,3.0666,3.0543,2.9881,3.0251,3.0543,3.0477,3.0878,3.119,3.119,3.119,3.119,3.119,3.119,3.1389,3.1752,3.1789,3.1914,3.2179,3.2126,3.2197,3.2385,3.2766,3.3099,3.3291,3.3473,3.3559,3.3577,3.3671,3.3616,3.3491,3.3643,3.4023,3.4539,3.4293,3.4173,3.4173,3.4173,3.4173,3.4173,3.4173,3.4173,3.4087,3.3703,3.3386,3.3164,3.3094,3.2727,3.2351,3.2586,3.2179,3.1774,3.2607,3.236,3.1983,3.2804,3.2467,3.1976,3.2236,3.1692,3.1016,3.06,3.0801,3.1114,3.1292,3.0814,3.0525,3.1063,3.0845,3.0789,3.1455,3.1638,3.1796,3.1901,3.1936,3.1936,3.1936,3.1936,3.1936,3.1936,3.1951,3.1966,3.1966,3.1981,3.194,3.1799,3.2287,3.2492,3.2398,3.2398,3.2641,3.3145,3.3198,3.3182,3.3182,3.3182,3.3198,3.4156,0.0,0.0,0.0,0.0,0.0,3.3931,3.2907,3.2071,3.2055,3.1053,3.0243,3.0444,3.0107,2.9777,2.9556,2.9821,3.0011,2.9853,2.9924,2.9995,3.0011,3.0393,3.0699,3.0699,3.1015,3.119,3.119,3.119,3.1269,3.1351,3.1393,3.1524,3.1671,3.1839,3.202,3.2197,3.2386,3.257,3.2766,3.2848,3.2943,3.3086,3.3361,3.3476,3.3437,3.3625,3.3788,3.3921,3.3726,3.3633,3.3633,3.3577,3.3577,3.3633,3.3577,3.3397,3.3178,3.3069,3.2755,3.2398,3.2382,3.223,3.2109,3.2179,3.2039,3.1858,3.1823,3.1684,3.1438,3.1073,3.0482,2.989,2.9627,2.9069,2.8591,2.8556,2.8606,2.888,2.9922,2.9963,2.9872,3.0015,2.9978,2.9985,3.0274,3.0342,3.0365,3.0401,3.047,3.0524,3.0431,3.047,3.0524,3.0431,3.0925,3.1142,3.0904,3.1498,3.1784,3.1597,3.1754,3.1796,3.1754,3.1754,3.1796,3.1992,3.2437,3.2841,3.3182,3.3182,3.2772,3.3711,3.35,3.3234,3.3232,0.0,0.0,3.3491,3.2723,3.2015,3.1581,3.0499,2.9613,2.9673,2.9438,2.9152,2.8826,2.9059,2.9243,2.9243,2.9393,2.9483,2.9483,2.9924,3.0225,3.0225,3.0617,3.0918,3.0918,3.1095,3.119,3.119,3.1274,3.1351,3.1517,3.1671,3.1839,3.1965,3.2144,3.2266,3.2404,3.2539,3.2672,3.277,3.305,3.3202,3.325,3.3357,3.3415,3.3444,3.3393,3.3382,3.3364,3.3135,3.3183,3.3304,3.2898,3.2752,3.2651,3.235,3.2039,3.1789,3.177,3.1531,3.1266,3.1603,3.1287,3.0847,3.0858,3.0697,3.0352,2.9881,2.9287,2.8748,2.8496,2.7993,2.7625,2.7675,2.7675,2.785,2.8711,2.8794,2.8742,2.8742,2.8794,2.8952,2.9275,2.9358,2.9463,2.9696,2.9765,2.9818,2.9726,2.9535,2.952,2.9726,2.9909,2.9937,2.9755,3.0253,3.0461,3.0347,3.0347,3.0594,3.1049,3.1106,3.124,3.1482,3.1853,3.2176,3.2461,3.2461,3.2145,3.3393,3.2807,3.2166,3.2219,3.2881,0.0,3.2456,3.2389,3.2147,3.0813,2.9858,2.9188,2.8888,2.8717,2.8623,2.8623,2.8607,2.8558,2.8396,2.8748,2.9044,2.9044,2.9438,2.9705,2.9705,3.014,3.0435,3.0435,3.0878,3.1151,3.119,3.1196,3.1274,3.1462,3.1521,3.1579,3.18,3.1965,3.2073,3.2108,3.2404,3.2573,3.2606,3.277,3.2884,3.2916,3.2866,3.2898,3.2975,3.3152,3.3262,3.3274,3.288,3.2898,3.3042,3.2283,3.2197,3.2369,3.166,3.1359,3.1283,3.124,3.0707,3.0208,3.0925,3.0201,2.9284,2.9848,2.9613,2.9164,2.912,2.8685,2.8288,2.8288,2.7929,2.7575,2.7509,2.7509,2.7524,2.7575,2.7575,2.7625,2.7625,2.7675,2.7936,2.8397,2.8524,2.8719,2.9227,2.9247,2.9178,2.9178,2.8712,2.8601,2.9124,2.877,2.8465,2.8465,2.8594,2.8623,2.8623,2.8623,2.911,3.0205,3.022,3.0517,3.107,3.1349,3.1482,3.1482,3.1482,3.1482,3.1731,3.143,3.1224,3.1129,3.1845,0.0,3.3137,3.2619,3.2265,3.3002,3.1436,3.0207,3.1212,3.056,2.9875,2.9915,2.9755,2.9347,2.851,2.8493,2.8541,2.8541,2.8967,2.9257,2.9257,2.9661,2.9924,2.9924,3.0351,3.0781,3.119,3.0861,3.0885,3.1295,3.1083,3.1179,3.1617,3.1783,3.1929,3.2108,3.2266,3.2454,3.2606,3.2454,3.242,3.242,3.2162,3.2039,3.2074,3.2537,3.2737,3.277,3.2702,3.2519,3.2248,3.2074,3.1842,3.1623,3.1435,3.1145,3.0838,3.0797,3.0368,2.9881,3.0054,2.9645,2.915,2.9257,2.9212,2.912,2.912,2.8685,2.8288,2.8288,2.7929,2.7473,2.6997,2.6893,2.6721,2.6283,2.6967,2.7625,2.7625,2.7625,2.767,2.7805,2.7395,2.7179,2.7258,2.6816,2.6531,2.6531,2.6436,2.6422,2.6531,2.6931,2.7173,2.7173,2.7698,2.7968,2.7968,2.7968,2.8082,2.8326,2.8326,2.8383,2.8511,3.0527,3.1482,3.1482,3.1482,3.1482,3.1167,3.0659,3.0283,3.0129,3.0865,0.0,0.0,3.1378,3.1327,3.2173,3.1105,3.0329,3.1463,3.1149,3.0766,3.0802,3.0269,2.9556,2.8746,2.848,2.8411,2.8411,2.8621,2.8748,2.8748,2.9182,2.9528,2.9793,3.0011,3.0351,3.0838,3.0617,3.0642,3.0948,3.0788,3.0788,3.1044,3.114,3.124,3.147,3.1804,3.202,3.2091,3.2091,3.2127,3.2127,3.1789,3.1679,3.177,3.2056,3.2056,3.1896,3.2162,3.2127,3.1842,3.1397,3.1261,3.1223,3.1027,3.0781,3.0609,3.0609,3.007,2.9483,2.9705,2.9287,2.8638,2.8415,2.8319,2.8319,2.8319,2.8125,2.7929,2.7929,2.7545,2.7049,2.6788,2.6457,2.6176,2.5837,2.6269,2.6707,2.6707,2.6707,2.6707,2.6707,2.6443,2.6229,2.6229,2.6014,2.5783,2.5783,2.5577,2.5536,2.5797,2.5855,2.5881,2.5881,2.6214,2.638,2.638,2.638,2.6691,2.7271,2.7639,2.7794,2.7794,2.903,2.9639,2.9639,2.9639,2.9639,3.0884,3.0133,2.9531,2.9372,2.9956,3.0439,0.0,0.0,0.0,3.103,3.0574,3.0456,3.1516,3.1603,3.1567,3.1584,3.0899,3.0045,2.9214,2.8978,2.8685,2.8057,2.8186,2.8299,2.8137,2.859,2.9074,2.9572,2.9617,2.9837,3.0351,3.0293,3.0293,3.046,3.036,3.036,3.0377,3.046,3.0601,3.0764,3.1261,3.149,3.1507,3.162,3.1731,3.1733,3.1418,3.1342,3.1452,3.1623,3.1397,3.1044,3.1531,3.1642,3.1456,3.0781,3.0757,3.0942,3.0493,3.0384,3.0342,3.0241,2.9661,2.8982,2.9287,2.881,2.8076,2.771,2.7625,2.7625,2.7625,2.7625,2.7575,2.7458,2.7049,2.6616,2.6404,2.596,2.5632,2.5522,2.5467,2.5522,2.5728,2.5783,2.5783,2.5783,2.5742,2.5632,2.5632,2.5522,2.5467,2.5467,2.5104,2.4991,2.5412,2.5104,2.4835,2.4835,2.4835,2.4835,2.4835,2.4835,2.5279,2.6244,2.6787,2.7095,2.7095,2.7037,2.7337,2.7794,2.7794,2.7794,3.0171,2.9626,2.9453,2.92,2.923,2.9447,3.0018,0.0,3.0556,3.2099,0.0,3.1428,3.3176,0.0,0.0,3.2676,3.2516,3.1852,3.0318,3.0471,2.9626,2.6813,2.7479,2.7974,2.7327,2.7775,2.8365,2.8951,2.8997,2.9257,2.9837,2.9483,2.9438,2.9881,2.954,2.9569,2.9946,3.0335,3.0518,3.0559,3.0965,3.1162,3.1162,3.1004,3.0908,3.0908,3.0658,3.051,3.0551,3.1004,3.0925,3.0634,3.1223,3.1106,3.0675,3.0692,3.0651,3.051,3.0027,2.9897,2.9793,2.9393,2.8873,2.8304,2.7944,2.776,2.766,2.7625,2.7625,2.7625,2.7625,2.7625,2.7473,2.6945,2.6721,2.6404,2.5439,2.5174,2.4948,2.439,2.4274,2.4607,2.5632,2.5783,2.5783,2.5783,2.537,2.5118,2.5118,2.4607,2.4274,2.4274,2.4229,2.4229,2.4274,2.4229,2.4229,2.4229,2.4229,2.4229,2.4229,2.4229,2.4255,2.4379,2.4503,2.453,2.453,2.4413,2.5549,2.7794,2.7794,2.7736,2.9926,2.9651,2.955,2.9049,2.9423,2.9896,2.9805,3.0079,3.0695,3.188,0.0,0.0,0.0,0.0,0.0,0.0,3.255,3.174,3.0629,3.0602,3.0103,2.8576,2.9306,2.9615,2.8819,2.8338,2.8235,2.8573,2.8558,2.8779,2.9348,2.9212,2.9166,2.9393,2.9212,2.915,2.9196,2.9377,2.9617,2.9924,3.0309,3.046,3.046,3.0518,3.046,3.0377,3.0215,3.0189,3.0274,3.051,3.0468,3.0359,3.0601,3.0617,3.0526,3.0568,3.0568,3.0468,3.0284,3.0027,2.9661,2.8873,2.8496,2.8207,2.776,2.7625,2.7625,2.7625,2.7625,2.7625,2.7625,2.7625,2.7458,2.6826,2.6457,2.596,2.516,2.4734,2.439,2.4171,2.4112,2.4216,2.4708,2.4821,2.4821,2.4821,2.4607,2.4505,2.4505,2.4287,2.4112,2.4112,2.4112,2.4112,2.4112,2.4112,2.4112,2.4112,2.4112,2.4112,2.4112,2.4112,2.4112,2.4112,2.4112,2.4112,2.4112,2.4067,2.4524,2.5549,2.5418,2.536,3.0452,2.9998,2.9678,2.9036,2.9323,2.9701,2.9294,2.9591,3.0254,3.1271,3.1352,0.0,0.0,0.0,3.2791,3.2903,0.0,3.1654,3.0952,3.0963,3.0639,2.9654,3.0273,3.061,3.0144,2.908,2.8512,2.8701,2.835,2.8365,2.8873,2.892,2.892,2.892,2.892,2.8826,2.8605,2.87,2.892,2.938,2.9633,2.981,2.9853,3.0011,3.0011,2.9924,2.9826,2.9886,2.993,2.9826,2.9766,2.981,2.9957,3.007,3.0199,3.0241,3.03,3.0258,3.0011,2.9601,2.9058,2.8352,2.811,2.8012,2.771,2.7625,2.7625,2.7625,2.7625,2.7625,2.7625,2.7473,2.7203,2.6616,2.6014,2.5425,2.4892,2.439,2.4112,2.4112,2.4112,2.4112,2.4112,2.4112,2.4112,2.4112,2.4112,2.4112,2.4112,2.4112,2.4112,2.4112,2.4112,2.4112,2.4112,2.4112,2.4112,2.4112,2.4112,2.4112,2.4112,2.4112,2.4112,2.4112,2.4112,2.4112,2.4112,2.4067,2.3949,2.3832,2.37,2.3628,3.1976,3.0775,2.9777,2.924,2.8546,2.8076,2.8432,2.856,2.898,3.0439,3.0468,3.0638,3.1987,3.1915,3.1792,3.2161,3.2315,0.0,0.0,3.2136,3.1546,2.8698,2.9162,2.9978,3.0588,2.9704,2.9207,2.9529,2.8623,2.8118,2.8396,2.8396,2.8396,2.8396,2.8396,2.8396,2.8396,2.8605,2.8842,2.9121,2.9121,2.9259,2.9515,2.9515,2.9515,2.9515,2.938,2.9335,2.9289,2.8889,2.8732,2.8779,2.9225,2.9406,2.9451,2.9572,2.9722,2.9705,2.8717,2.8076,2.7675,2.761,2.7625,2.7625,2.761,2.7625,2.7625,2.7625,2.7625,2.7625,2.7625,2.7152,2.6563,2.596,2.5425,2.4835,2.4287,2.4112,2.4112,2.4112,2.4112,2.4112,2.4112,2.4112,2.4112,2.4112,2.4112,2.4112,2.4112,2.4112,2.4112,2.4112,2.4112,2.4112,2.4112,2.4112,2.4112,2.4112,2.4112,2.4112,2.4112,2.4112,2.4112,2.4112,2.4112,2.4112,2.4112,2.3949,2.3819,2.3628,2.3819,2.3713,3.2065,3.1483,3.0709,2.9635,2.9179,2.8884,2.8356,2.8853,2.91,2.7948,2.8883,2.9577,2.8452,2.939,3.0442,3.0629,3.0629,3.0636,0.0,3.0797,3.0762,3.0521,3.095,3.1424,3.1795,3.0299,2.9403,2.9648,2.8717,2.8201,2.8411,2.8411,2.8411,2.8411,2.8411,2.8411,2.8411,2.8493,2.8605,2.8842,2.8842,2.8873,2.8967,2.9152,2.9044,2.8685,2.8748,2.8654,2.848,2.824,2.824,2.8321,2.8465,2.867,2.8873,2.9287,2.9512,2.9406,2.8384,2.7963,2.7894,2.7575,2.7539,2.7625,2.7625,2.7625,2.7625,2.7625,2.7625,2.7524,2.71,2.6826,2.6404,2.5342,2.4908,2.458,2.3923,2.3747,2.3747,2.3747,2.3747,2.3747,2.3747,2.3878,2.4008,2.4112,2.4112,2.4112,2.4112,2.4112,2.4112,2.4112,2.4112,2.4112,2.4112,2.3819,2.3641,2.3641,2.3305,2.31,2.31,2.2919,2.2798,2.2798,2.2555,2.2433,2.2433,2.2372,2.231,2.2137,2.2199,2.258,3.1924,3.2031,3.0896,2.9655,2.8404,2.7301,2.6736,2.6804,2.6669,2.5442,2.6795,2.7664,2.5863,2.7419,2.89,2.8682,2.8876,2.9242,0.0,2.9782,3.0167,3.1285,3.1759,3.2092,3.232,3.1131,3.0186,2.9776,2.9082,2.8607,2.8396,2.8411,2.8411,2.8411,2.8411,2.8411,2.8411,2.8411,2.8429,2.8479,2.8398,2.8398,2.8479,2.8527,2.8415,2.8207,2.8061,2.7898,2.7735,2.7464,2.7399,2.75,2.77,2.7849,2.8061,2.8622,2.8701,2.8528,2.7864,2.7695,2.7745,2.7437,2.7386,2.7423,2.7188,2.7137,2.7086,2.6864,2.6811,2.6707,2.6336,2.6068,2.5673,2.4851,2.4452,2.4176,2.3675,2.3424,2.3233,2.3233,2.3233,2.3185,2.2932,2.3378,2.3819,2.3936,2.3995,2.4054,2.4067,2.4054,2.4054,2.3878,2.3878,2.3747,2.3603,2.3305,2.3138,2.3138,2.2992,2.2798,2.2604,2.247,2.2286,2.2101,2.1803,2.1616,2.1592,2.1616,2.1502,2.1388,2.1388,2.1765]}]]